     2.10           OBSERVATION DATA    G (GPS)             RINEX VERSION / TYPE
teqc 2000Jul20 Karen Wendt 20040525 20:58:19UTC             PGM / RUN BY / DATE
Linux 2.0.36|Pentium II|gcc -static|Linux|486/DX+           COMMENT
teqc 2000Jul20 Karen Wendt 20040525 20:58:18UTC             COMMENT
BIT 2 OF LLI FLAGS DATA COLLECTED UNDER A/S CONDITION       COMMENT
earn Eagle_1958_USC&GS_(Reno_net)                           MARKER NAME
GDH USGS                                                    OBSERVER / AGENCY
ZE120033802 ASHTECH UZ-12 ZE00                              REC # / TYPE / VERS
CR14329 ASH700936D_M NONE                                   ANT # / TYPE
 -2424170.0000 -4287759.0000  4040650.0000                  APPROX POSITION XYZ
        0.4124        0.0000        0.0000                  ANTENNA: DELTA H/E/N
     1     1                                                WAVELENGTH FACT L1/2
     5    C1    L1    L2    P1    P2                        # / TYPES OF OBSERV
    30.0000                                                 INTERVAL
                                                            COMMENT
National Earthquake Hazard Reduction Program                COMMENT
Crustal Strain Project                                      COMMENT
345 Middlefield Road, MS/977                                COMMENT
U.S. Geological Survey, Menlo Park, California 94025        COMMENT
Contact: kwendt@usgs.gov (Ph: 650-329-4866)                 COMMENT
Antenna height is vertical to base of antenna               COMMENT
                                                            COMMENT
SNR is mapped to RINEX snr flag value [1-9]                 COMMENT
L1: 1 -> 1; 90 -> 5; 210 -> 9                               COMMENT
L2: 1 -> 1; 150 -> 5; 250 -> 9                              COMMENT
  2004     5    21     0     0    0.0000000     GPS         TIME OF FIRST OBS
                                                            END OF HEADER
 04  5 21  0  0  0.0000000  0  6G20G11G14G25G 1G30
  22668778.271   -15539072.42543 -12061411.68642  22668778.210    22668775.603
  21481577.191   -20597884.10243 -15985128.73142  21481577.497    21481573.570
  22730549.908   -13681411.87843 -10597139.81842  22730550.092    22730546.500
  20642143.152   -25098079.13743 -19540920.03942  20642143.227    20642139.330
  23471317.672    -9374302.63743  -7289531.18342  23471317.823    23471318.098
  24095125.188    -7585677.06343  -5872542.78942  24095125.958    24095124.253
 04  5 21  0  0 30.0000000  0  6G20G11G14G25G 1G30
  22652515.032   -15624535.95943 -12128006.58042  22652514.970    22652512.386
  21485190.014   -20578898.51843 -15970334.78342  21485190.321    21485186.415
  22745244.187   -13604192.95943 -10536969.28742  22745244.393    22745240.822
  20642105.060   -25098279.20144 -19541075.91642  20642105.127    20642101.250
  23456937.867    -9449868.27943  -7348413.36642  23456938.023    23456938.275
  24093293.183    -7595300.40643  -5880041.50342  24093294.500    24093293.008
 04  5 21  0  1  0.0000000  0  6G20G11G14G25G 1G30
  22636273.769   -15709883.89943 -12194511.39742  22636273.741    22636271.153
  21488904.797   -20559377.16243 -15955123.35042  21488905.123    21488901.238
  22759952.768   -13526899.11143 -10476740.35142  22759952.939    22759949.397
  20642167.178   -25097952.74744 -19540821.52142  20642167.256    20642163.366
  23442589.014    -9525271.53343  -7407169.02142  23442589.173    23442589.396
  24091562.136    -7604401.15843  -5887132.99042  24091562.866    24091561.121
 04  5 21  0  1 30.0000000  0  6G20G11G14G25G 1G30
  22620056.500   -15795105.73043 -12260917.94842  22620056.472    22620053.922
  21492723.043   -20539312.19943 -15939488.33342  21492723.350    21492719.468
  22774677.087   -13449522.40543 -10416446.86342  22774677.293    22774673.717
  20642331.085   -25097091.18144 -19540150.15542  20642331.185    20642327.305
  23428272.793    -9600503.31843  -7465791.06742  23428272.907    23428273.147
  24089931.567    -7612969.13443  -5893809.30142  24089932.281    24089930.842
 04  5 21  0  2  0.0000000  0  6G20G11G14G25G 1G30
  22603862.714   -15880204.48243 -12327228.59242  22603862.666    22603860.115
  21496643.709   -20518708.95343 -15923433.86942  21496644.020    21496640.165
  22789416.117   -13372068.35043 -10356093.09542  22789416.305    22789412.764
  20642595.793   -25095700.07544 -19539066.16142  20642595.882    20642592.016
  23413988.400    -9675567.94043  -7524282.83542  23413988.470    23413988.738
  24088401.859    -7621008.10043  -5900073.41742  24088402.529    24088401.171
 04  5 21  0  2 30.0000000  0  6G20G11G14G25G 1G30
  22587692.814   -15965177.65343 -12393441.39242  22587692.786    22587690.201
  21500666.761   -20497567.79043 -15906960.25142  21500667.065    21500663.188
  22804169.792   -13294537.30643 -10295679.34442  22804169.990    22804166.469
  20642961.362   -25093778.94044 -19537569.15942  20642961.461    20642957.588
  23399735.910    -9750464.43143  -7582643.60542  23399736.021    23399736.250
  24086973.139    -7628516.24543  -5905923.87042  24086973.719    24086972.323
 04  5 21  0  3  0.0000000  0  6G20G11G14G25G 1G30
  22571547.560   -16050021.20143 -12459553.18242  22571547.556    22571544.943
  21504792.462   -20475887.12843 -15890066.24242  21504792.755    21504788.898
  22818938.416   -13216927.63443 -10235204.33142  22818938.617    22818935.139
  20643428.086   -25091326.11043 -19535657.84642  20643428.179    20643424.340
  23385515.949    -9825190.31143  -7640871.42242  23385516.086    23385516.294
  24085645.979    -7635490.15443  -5911358.09142  24085646.730    24085645.095
 04  5 21  0  3 30.0000000  0  6G20G11G14G25G 1G30
  22555427.163   -16134734.17043 -12525563.22942  22555427.188    22555424.519
  21509020.517   -20453668.66243 -15872753.16942  21509020.797    21509016.940
  22833721.749   -13139240.85943 -10174669.22342  22833721.921    22833718.487
  20643995.788   -25088342.72544 -19533333.12042  20643995.887    20643992.044
  23371328.368    -9899745.96943  -7698966.59442  23371328.468    23371328.734
  24084420.438    -7641929.42643  -5916375.68442  24084421.343    24084419.756
 04  5 21  0  4  0.0000000  0  6G20G11G14G25G 1G30
  22539332.001   -16219314.71643 -12591470.08942  22539332.012    22539329.293
  21513350.659   -20430913.59143 -15855021.96042  21513350.944    21513347.102
  22848519.498   -13061478.14543 -10114074.94442  22848519.680    22848516.264
  20644664.305   -25084829.55844 -19530595.57042  20644664.388    20644660.573
  23357173.148    -9974131.38143  -7756929.11242  23357173.288    23357173.549
  24083296.525    -7647833.21643  -5920976.05042  24083297.688    24083296.231
 04  5 21  0  4 30.0000000  0  6G20G11G14G25G 1G30
  22523261.755   -16303764.46443 -12657275.02642  22523261.700    22523258.968
  21517782.153   -20407626.00743 -15836875.80242  21517782.447    21517778.593
  22863330.914   -12983643.84043 -10053424.88342  22863331.064    22863327.682
  20645432.898   -25080790.56844 -19527448.28942  20645432.991    20645429.144
  23343049.779   -10048349.68943  -7814761.42042  23343049.977    23343050.105
  24082274.382    -7653203.68043  -5925160.80942  24082275.639    24082274.096
 04  5 21  0  5  0.0000000  0  6G20G11G14G25G 1G30
  22507216.194   -16388084.44443 -12722978.85342  22507216.095    22507213.361
  21522314.193   -20383810.03243 -15818317.91642  21522314.484    21522310.651
  22878155.276   -12905741.36643  -9992721.70742  22878155.407    22878152.053
  20646300.860   -25076229.36744 -19523894.09342  20646300.957    20646297.094
  23328957.697   -10122403.48543  -7872465.52842  23328957.880    23328957.976
  24081353.527    -7658043.20843  -5928931.86542  24081354.664    24081353.210
 04  5 21  0  5 30.0000000  0  6G20G11G14G25G 1G30
  22491197.286   -16472264.03543 -12788573.28742  22491197.179    22491194.450
  21526948.377   -20359457.27643 -15799341.75842  21526948.664    21526944.846
  22892994.136   -12827762.48243  -9931958.97242  22892994.350    22892991.006
  20647269.850   -25071137.27844 -19519926.21642  20647269.958    20647266.078
  23314898.683   -10196283.41643  -7930034.16642  23314898.883    23314898.937
  24080535.594    -7662341.50143  -5932281.14942  24080536.494    24080535.243
 04  5 21  0  6  0.0000000  0  6G20G11G14G25G 1G30
  22475204.128   -16556308.14943 -12854062.15542  22475204.038    22475201.324
  21531683.159   -20334575.81343 -15779953.62542  21531683.437    21531679.657
  22907846.155   -12749714.86943  -9871142.70342  22907846.330    22907843.018
  20648338.463   -25065521.70744 -19515550.43442  20648338.570    20648334.684
  23300871.592   -10269995.93043  -7987472.34642  23300871.768    23300871.803
  24079819.822    -7666104.17543  -5935213.10242  24079820.581    24079819.213
 04  5 21  0  6 30.0000000  0  6G20G11G14G25G 1G30
  22459238.056   -16640209.85543 -12919440.04542  22459238.003    22459235.298
  21536519.387   -20309161.26843 -15760150.09942  21536519.669    21536515.917
  22922712.010   -12671594.24243  -9810269.52342  22922712.227    22922708.937
  20649507.538   -25059378.19744 -19510763.26842  20649507.650    20649503.757
  23286877.317   -10343535.76643  -8044775.98142  23286877.549    23286877.424
  24079206.785    -7669325.37943  -5937723.11342  24079207.577    24079206.205
 04  5 21  0  7  0.0000000  0  6G20G11G14G25G 1G30
  22443298.173   -16723974.33543 -12984711.00942  22443298.100    22443295.393
  21541455.498   -20283221.99743 -15739937.69942  21541455.769    21541452.024
  22937590.373   -12593408.43743  -9749345.57142  22937590.535    22937587.282
  20650775.548   -25052714.68244 -19505570.90342  20650775.654    20650771.771
  23272914.527   -10416909.98643  -8101950.55942  23272914.787    23272914.608
  24078695.832    -7672011.40343  -5939816.09242  24078696.441    24078695.038
 04  5 21  0  7 30.0000000  0  6G20G11G14G25G 1G30
  22427385.715   -16807594.89543 -13049869.84242  22427385.613    22427382.840
  21546492.230   -20256753.86443 -15719313.19942  21546492.497    21546488.756
  22952481.898   -12515153.10543  -9688367.43042  22952482.064    22952478.866
  20652143.338   -25045526.80644 -19499969.94642  20652143.452    20652139.557
  23258984.324   -10490113.24143  -8158991.90942  23258984.584    23258984.310
  24078287.440    -7674156.25443  -5941487.40942  24078288.283    24078286.979
 04  5 21  0  8  0.0000000  0  6G20G11G14G25G 1G30
  22411501.805   -16891065.45743 -13114911.78342  22411501.680    22411498.861
  21551630.084   -20229754.25143 -15698274.55942  21551630.374    21551626.620
  22967387.259   -12436825.23843  -9627332.76842  22967387.394    22967384.207
  20653611.624   -25037811.18544 -19493957.75942  20653611.654    20653607.797
  23245087.432   -10563141.28043  -8215896.73242  23245087.678    23245087.362
  24077983.044    -7675755.20143  -5942733.33842  24077983.966    24077982.758
 04  5 21  0  8 30.0000000  0  6G20G11G14G25G 1G30
  22395644.518   -16974396.05343 -13179844.66542  22395644.382    22395641.519
  21556866.671   -20202235.89843 -15676831.70742  21556866.941    21556863.206
  22982304.000   -12358437.31443  -9566251.33742  22982304.123    22982300.997
  20655177.968   -25029580.01143 -19487543.84342  20655177.972    20655174.128
  23231221.722   -10636005.61043  -8272673.98642  23231221.913    23231221.645
  24077780.793    -7676819.12543  -5943562.35342  24077781.514    24077780.083
 04  5 21  0  9  0.0000000  0  6G20G11G14G25G 1G30
  22379815.939   -17057575.55943 -13244659.80842  22379815.811    22379812.925
  21562203.517   -20174190.66843 -15654978.30042  21562203.785    21562200.047
  22997233.864   -12279980.83743  -9505116.46342  22997233.977    22997230.832
  20656843.967   -25020824.99743 -19480721.74042  20656843.974    20656840.121
  23217388.934   -10708696.68443  -8329316.23942  23217389.134    23217388.877
  24077682.210    -7677337.81343  -5943966.51242  24077682.965    24077681.341
 04  5 21  0  9 30.0000000  0  6G20G11G14G25G 1G30
  22364015.817   -17140605.45643 -13309358.37542  22364015.715    22364012.788
  21567639.812   -20145622.83043 -15632717.66242  21567640.083    21567636.347
  23012175.964   -12201459.87843  -9443931.35542  23012176.068    23012172.927
  20658608.814   -25011550.46143 -19473494.81542  20658608.824    20658604.991
  23203588.625   -10781217.65843  -8385825.95742  23203588.800    23203588.473
  24077686.841    -7677313.93543  -5943947.90342  24077687.558    24077685.659
 04  5 21  0 10  0.0000000  0  6G20G11G14G25G 1G30
  22348244.234   -17223485.54943 -13373940.21342  22348244.147    22348241.172
  21573174.902   -20116535.57443 -15610052.28542  21573175.203    21573171.471
  23027129.835   -12122876.79543  -9382697.82842  23027129.970    23027126.811
  20660472.146   -25001758.52543 -19465864.72742  20660472.160    20660468.312
  23189820.392   -10853569.92643  -8442204.20242  23189820.539    23189820.150
  24077794.289    -7676748.33743  -5943507.16642  24077795.093    24077793.378
 04  5 21  0 10 30.0000000  0  6G20G11G14G25G 1G30
  22332502.414   -17306209.20043 -13438400.15042  22332502.320    22332499.337
  21578809.568   -20086925.24643 -15586979.32242  21578809.866    21578806.148
  23042096.283   -12044227.61443  -9321412.79442  23042096.429    23042093.302
  20662434.635   -24991445.36143 -19457828.48642  20662434.670    20662430.813
  23176085.135   -10925748.59743  -8498447.18242  23176085.289    23176084.782
  24078006.048    -7675635.67143  -5942640.12942  24078006.851    24078005.089
 04  5 21  0 11  0.0000000  0  6G20G11G14G25G 1G30
  22316789.602   -17388780.41843 -13502741.30042  22316789.492    22316786.522
  21584542.432   -20056798.99643 -15563504.34742  21584542.711    21584539.000
  23057074.071   -11965519.09243  -9260081.53342  23057074.197    23057071.041
  20664495.080   -24980617.58343 -19449391.24542  20664495.110    20664491.286
  23162381.792   -10997759.38943  -8554559.34742  23162381.919    23162381.477
  24078320.987    -7673981.09343  -5941350.82242  24078321.638    24078319.909
 04  5 21  0 11 30.0000000  0  6G20G11G14G25G 1G30
  22301107.807   -17471188.50743 -13566955.33942  22301107.721    22301104.714
  21590374.925   -20026149.11843 -15539621.34942  21590375.217    21590371.490
  23072064.783   -11886742.93043  -9198697.55942  23072064.857    23072061.694
  20666654.913   -24969267.50543 -19440547.02042  20666654.935    20666651.127
  23148712.118   -11069593.42843  -8610533.78242  23148712.222    23148711.762
  24078740.842    -7671775.15343  -5939631.87342  24078741.295    24078739.747
 04  5 21  0 12  0.0000000  0  6G20G11G14G25G 1G30
  22285454.956   -17553444.60643 -13631050.94942  22285454.860    22285451.865
  21596304.341   -19994989.80443 -15515341.38742  21596304.648    21596300.919
  23087065.695   -11807912.83743  -9137271.56242  23087065.781    23087062.648
  20668911.593   -24957408.40043 -19431306.15242  20668911.619    20668907.806
  23135073.695   -11141263.20943  -8666380.23542  23135073.818    23135073.305
  24079263.107    -7669030.11843  -5937492.88242  24079263.635    24079262.137
 04  5 21  0 12 30.0000000  0  6G20G11G14G25G 1G30
  22269833.193   -17635537.35343 -13695019.27242  22269833.078    22269830.073
  21602332.280   -19963313.08043 -15490658.25442  21602332.559    21602328.799
  23102078.510   -11729020.30543  -9075796.91742  23102078.591    23102075.495
  20671266.704   -24945032.13144 -19421662.29942  20671266.744    20671262.927
  23121468.365   -11212759.26243  -8722091.31442  23121468.507    23121467.906
  24079889.927    -7665735.79543  -5934925.86742  24079890.529    24079889.230
 04  5 21  0 13  0.0000000  0  6G20G11G14G25G 1G30
  22254242.222   -17717468.09043 -13758861.35142  22254242.120    22254239.141
  21608457.759   -19931123.59043 -15465575.56342  21608458.036    21608454.255
  23117102.440   -11650069.18843  -9014276.61342  23117102.535    23117099.440
  20673719.456   -24932142.81743 -19411618.66942  20673719.486    20673715.664
  23107895.433   -11284084.73043  -8777669.46742  23107895.573    23107895.023
  24080620.891    -7661895.10143  -5931933.11142  24080621.364    24080620.061
 04  5 21  0 13 30.0000000  0  6G20G11G14G25G 1G30
  22238683.282   -17799230.72743 -13822572.44642  22238683.155    22238680.203
  21614681.358   -19898418.42143 -15440091.04542  21614681.641    21614677.856
  23132138.191   -11571056.12543  -8952708.04542  23132138.265    23132135.150
  20676270.432   -24918737.32843 -19401172.82542  20676270.475    20676266.642
  23094355.826   -11355235.28243  -8833111.32542  23094355.971    23094355.430
  24081456.143    -7657503.26643  -5928510.88142  24081457.030    24081455.861
 04  5 21  0 14  0.0000000  0  6G20G11G14G25G 1G30
  22223155.101   -17880831.60843 -13886157.49642  22223154.961    22223152.032
  21621001.226   -19865207.32743 -15414212.29642  21621001.511    21620997.737
  23147184.061   -11491990.09143  -8891098.20542  23147184.110    23147180.973
  20678917.897   -24904824.71743 -19390331.82042  20678917.968    20678914.097
  23080847.937   -11426218.98943  -8888423.17642  23080848.086    23080847.547
  24082395.339    -7652567.85043  -5924665.07642  24082396.077    24082394.870
 04  5 21  0 14 30.0000000  0  6G20G11G14G25G 1G30
  22207658.967   -17962264.01143 -13949611.26342  22207658.856    22207655.896
  21627418.059   -19831486.65943 -15387936.47242  21627418.349    21627414.577
  23162240.803   -11412866.83543  -8829443.76042  23162240.822    23162237.701
  20681662.642   -24890401.07543 -19379092.60442  20681662.692    20681658.828
  23067372.824   -11497030.65443  -8943600.98042  23067372.948    23067372.379
  24083439.124    -7647083.75143  -5920391.75942  24083439.759    24083438.562
 04  5 21  0 15  0.0000000  0  6G20G11G14G25G 1G30
  22192195.880   -18043522.79043 -14012929.74142  22192195.776    22192192.841
  21633932.210   -19797254.70643 -15361262.25342  21633932.485    21633928.738
  23177308.833   -11333683.90743  -8767742.85142  23177308.870    23177305.776
  20684505.027   -24875464.20043 -19367453.47142  20684505.078    20684501.202
  23053931.035   -11567667.06043  -8998642.20542  23053931.138    23053930.578
  24084587.922    -7641047.10143  -5915687.80842  24084588.369    24084587.096
 04  5 21  0 15 30.0000000  0  6G20G11G14G25G 1G30
  22176765.080   -18124612.07743 -14076116.14642  22176764.971    22176762.007
  21640542.257   -19762518.77843 -15334195.31842  21640542.530    21640538.802
  23192386.950   -11254448.00243  -8706000.64242  23192386.934    23192383.927
  20687443.785   -24860020.82344 -19355419.65842  20687443.842    20687439.936
  23040521.462   -11638134.08543  -9053551.44842  23040521.619    23040521.031
  24085840.673    -7634463.46343  -5910557.70242  24085841.317    24085839.974
 04  5 21  0 16  0.0000000  0  6G20G11G14G25G 1G30
  22161367.094   -18205528.82343 -14139168.10642  22161366.973    22161364.049
  21647248.134   -19727279.28943 -15306735.99842  21647248.380    21647244.712
  23207475.123   -11175158.76743  -8644216.89642  23207475.197    23207472.221
  20690478.905   -24844071.10243 -19342991.29142  20690478.974    20690475.046
  23027144.433   -11708430.53543  -9108327.79642  23027144.648    23027143.917
  24087197.995    -7627331.32243  -5905000.21342  24087198.709    24087197.340
 04  5 21  0 16 30.0000000  0  6G20G11G14G25G 1G30
  22146002.644   -18286269.28743 -14202082.70342  22146002.526    22145999.589
  21654049.894   -19691535.86043 -15278884.00242  21654050.123    21654046.489
  23222573.758   -11095814.98143  -8582390.61942  23222573.829    23222570.901
  20693610.558   -24827614.11143 -19330167.64842  20693610.618    20693606.687
  23013800.270   -11778554.35343  -9162969.61342  23013800.448    23013799.658
  24088659.820    -7619648.44643  -5899013.52342  24088660.670    24088659.203
 04  5 21  0 17  0.0000000  0  6G20G11G14G25G 1G30
  22130671.824   -18366833.01143 -14264859.58042  22130671.707    22130668.772
  21660946.997   -19655291.47343 -15250641.64842  21660947.225    21660943.597
  23237682.417   -11016418.60343  -8520523.37942  23237682.513    23237679.554
  20696838.242   -24810652.51643 -19316950.80942  20696838.288    20696834.358
  23000488.631   -11848506.94143  -9217478.00442  23000488.812    23000488.013
  24090226.522    -7611415.89243  -5892598.52442  24090227.254    24090225.711
 04  5 21  0 17 30.0000000  0  6G20G11G14G25G 1G30
  22115375.236   -18447216.92343 -14327496.34442  22115375.120    22115372.175
  21667939.301   -19618546.67843 -15222009.36642  21667939.536    21667935.917
  23252801.169   -10936969.43243  -8458614.99642  23252801.213    23252798.290
  20700161.895   -24793186.38543 -19303340.82842  20700161.937    20700158.038
  22987209.841   -11918287.08143  -9271852.03642  22987210.053    22987209.164
  24091897.906    -7602632.16943  -5885754.05742  24091898.774    24091897.473
 04  5 21  0 18  0.0000000  0  6G20G11G14G25G 1G30
  22100112.668   -18527421.98343 -14389993.73942  22100112.557    22100109.615
  21675026.061   -19581305.60743 -15192990.37742  21675026.277    21675022.681
  23267929.158   -10857471.15443  -8396668.34942  23267929.241    23267926.365
  20703580.867   -24775219.59443 -19289340.72342  20703580.874    20703576.985
  22973963.300   -11987897.64743  -9326093.93342  22973963.500    22973962.674
  24093673.816    -7593300.15243  -5878482.32342  24093674.560    24093673.086
 04  5 21  0 18 30.0000000  0  6G20G11G14G25G 1G30
  22084886.301   -18607436.99043 -14452343.05042  22084886.155    22084883.216
  21682208.646   -19543560.76843 -15163578.84342  21682208.867    21682205.310
  23283068.201   -10777914.92343  -8334676.54342  23283068.247    23283065.400
  20707096.673   -24756743.88943 -19274944.06142  20707096.667    20707092.779
  22960750.914   -12057329.05443  -9380196.22642  22960751.093    22960750.159
  24095555.747    -7583409.91243  -5870775.64842  24095556.628    24095555.132
 04  5 21  0 19  0.0000000  0  6G20G11G14G25G 1G30
  22069694.079   -18687272.48043 -14514552.47442  22069693.926    22069690.990
  21689484.410   -19505326.49743 -15133785.93042  21689484.622    21689481.076
  23298215.743   -10698314.10243  -8272649.98942  23298215.842    23298212.964
  20710706.621   -24737773.35443 -19260161.81842  20710706.619    20710702.735
  22947570.208   -12126593.89943  -9434168.73042  22947570.346    22947569.392
  24097541.805    -7572974.01143  -5862643.74042  24097542.593    24097540.881
 04  5 21  0 19 30.0000000  0  6G20G11G14G25G 1G30
  22054537.575   -18766920.23043 -14576615.60442  22054537.432    22054534.478
  21696854.242   -19466597.76443 -15103607.72442  21696854.470    21696850.948
  23313372.909   -10618663.02443  -8210584.28242  23313372.988    23313370.109
  20714411.767   -24718302.61843 -19244989.81142  20714411.764    20714407.873
  22934422.446   -12195685.53843  -9488006.26942  22934422.538    22934421.602
  24099632.564    -7561985.66343  -5854081.38942  24099633.277    24099631.860
 04  5 21  0 20  0.0000000  0  6G20G11G14G25G 1G30
  22039416.572   -18846381.25743 -14638533.23942  22039416.487    22039413.494
  21704317.269   -19427379.43943 -15073048.01942  21704317.478    21704313.976
  23328538.869   -10538965.50943  -8148482.39442  23328538.962    23328536.132
  20718211.297   -24698335.86343 -19229431.29142  20718211.300    20718207.403
  22921306.993   -12264607.17143  -9541711.33042  22921307.057    22921306.132
  24101828.220    -7550448.05243  -5845091.03242  24101829.059    24101827.467
 04  5 21  0 20 30.0000000  0  6G20G11G14G25G 1G30
  22024332.643   -18925647.58743 -14700299.15842  22024332.543    22024329.565
  21711874.389   -19387666.74843 -15042103.08942  21711874.586    21711871.064
  23343714.756   -10459215.88043  -8086339.88542  23343714.851    23343712.062
  20722106.282   -24677867.59243 -19213481.98042  20722106.284    20722102.398
  22908225.134   -12333352.36043  -9595278.90442  22908225.223    22908224.274
  24104129.503    -7538354.55343  -5835667.53942  24104130.465    24104128.711
 04  5 21  0 21  0.0000000  0  6G20G11G14G25G 1G30
  22009285.274   -19004722.11143 -14761915.62942  22009285.147    22009282.127
  21719524.351   -19347466.07043 -15010777.90942  21719524.544    21719521.033
  23358899.506   -10379419.43343  -8024160.90942  23358899.584    23358896.878
  20726095.443   -24656904.37843 -19197147.00042  20726095.437    20726091.551
  22895175.932   -12401925.81943  -9648712.67042  22895176.002    22895175.062
  24106535.422    -7525709.71943  -5825814.44142  24106536.414    24106534.907
 04  5 21  0 21 30.0000000  0  6G20G11G14G25G 1G30
  21994274.859   -19083602.24143 -14823380.61842  21994274.737    21994271.673
  21727266.909   -19306779.00043 -14979073.72742  21727267.061    21727263.526
  23374093.130   -10299576.57443  -7961945.76442  23374093.116    23374090.494
  20730178.621   -24635447.07043 -19180427.01442  20730178.613    20730174.740
  22882159.502   -12470327.07343  -9702012.24542  22882159.570    22882158.620
  24109046.811    -7512513.12243  -5815531.34442  24109047.575    24109045.901
 04  5 21  0 22  0.0000000  0  6G20G11G14G25G 1G30
  21979301.883   -19162285.65643 -14884692.33042  21979301.747    21979298.668
  21735101.695   -19265606.89043 -14946991.59142  21735101.896    21735098.335
  23389295.386   -10219687.73043  -7899694.79142  23389295.520    23389292.910
  20734355.657   -24613496.45343 -19163322.63342  20734355.656    20734351.809
  22869175.919   -12538555.86843  -9755177.42642  22869175.977    22869175.009
  24111662.988    -7498764.42343  -5804818.08442  24111663.838    24111662.229
 04  5 21  0 22 30.0000000  0  6G20G11G14G25G 1G30
  21964366.232   -19240772.97343 -14945851.23042  21964366.067    21964362.971
  21743028.019   -19223953.78143 -14914534.65442  21743028.210    21743024.694
  23404505.992   -10139755.80243  -7837410.24842  23404506.135    23404503.504
  20738625.849   -24591056.34943 -19145836.82642  20738625.844    20738622.013
  22856224.653   -12606614.61643  -9808210.10842  22856224.678    22856223.712
  24114383.834    -7484465.80143  -5793676.30142  24114384.708    24114383.244
 04  5 21  0 23  0.0000000  0  6G20G11G14G25G 1G30
  21949468.654   -19319059.96543 -15006854.04342  21949468.507    21949465.380
  21751045.951   -19181819.38543 -14881702.68842  21751046.158    21751042.619
  23419725.213   -10059778.99843  -7775090.71142  23419725.277    23419722.616
  20742989.377   -24568125.74743 -19127968.81742  20742989.376    20742985.553
  22843306.210   -12674500.99843  -9861108.47742  22843306.209    22843305.254
  24117209.963    -7469615.35243  -5782104.51242  24117210.618    24117209.077
 04  5 21  0 23 30.0000000  0  6G20G11G14G25G 1G30
  21934610.163   -19397141.86343 -15067697.03842  21934610.005    21934606.822
  21759155.704   -19139202.61643 -14848494.84542  21759155.898    21759152.332
  23434953.309    -9979755.45343  -7712734.77742  23434953.338    23434950.655
  20747446.593   -24544702.82743 -19109717.18742  20747446.580    20747442.776
  22830421.129   -12742211.94743  -9913870.14342  22830421.142    22830420.242
  24120141.495    -7454209.86643  -5770100.25242  24120142.103    24120140.794
 04  5 21  0 24  0.0000000  0  6G20G11G14G25G 1G30
  21919790.373   -19475020.09943 -15128381.34042  21919790.226    21919787.056
  21767356.260   -19096108.63943 -14814915.15042  21767356.443    21767352.857
  23450189.373    -9899689.30443  -7650345.64442  23450189.497    23450186.801
  20751996.537   -24520792.62043 -19091085.84642  20751996.520    20751992.742
  22817568.805   -12809750.97443  -9966497.85142  22817568.845    22817567.849
  24123177.882    -7438252.94143  -5757666.28342  24123178.560    24123177.151
 04  5 21  0 24 30.0000000  0  6G20G11G14G25G 1G30
  21905009.554   -19552693.55743 -15188906.07742  21905009.424    21905006.223
  21775647.128   -19052540.07643 -14780965.65242  21775647.299    21775643.746
  23465433.407    -9819581.80043  -7587924.27942  23465433.494    23465430.873
  20756638.780   -24496397.49143 -19072076.64942  20756638.755    20756634.956
  22804749.048   -12877118.79743 -10018992.15542  22804749.072    22804748.043
  24126319.377    -7421745.39943  -5744803.28642  24126319.935    24126318.631
 04  5 21  0 25  0.0000000  0  6G20G11G14G25G 1G30
  21890268.336   -19630159.04443 -15249268.75942  21890268.173    21890264.993
  21784028.140   -19008497.65843 -14746646.91142  21784028.325    21784024.760
  23480685.445    -9739432.72343  -7525470.53542  23480685.457    23480682.832
  20761373.289   -24471517.53943 -19052689.66742  20761373.262    20761369.456
  22791962.067   -12944314.46943 -10071352.31342  22791962.064    22791961.019
  24129565.602    -7404686.33743  -5731510.50242  24129566.218    24129564.667
 04  5 21  0 25 30.0000000  0  6G20G11G14G25G 1G30
  21875567.374   -19707413.05943 -15309466.65742  21875567.200    21875564.021
  21792499.265   -18963981.57143 -14711959.07942  21792499.485    21792495.930
  23495945.624    -9659240.80943  -7462983.40442  23495945.620    23495942.967
  20766200.123   -24446152.28643 -19032924.52742  20766200.115    20766196.292
  22779208.192   -13011336.29543 -10123577.01242  22779208.173    22779207.100
  24132917.060    -7387074.29143  -5717786.81742  24132917.605    24132916.406
 04  5 21  0 26  0.0000000  0  6G20G11G14G25G 1G30
  21860906.399   -19784456.83443 -15369500.74042  21860906.215    21860903.038
  21801059.490   -18918997.23243 -14676906.37842  21801059.703    21801056.176
  23511213.079    -9579010.21243  -7400466.12742  23511213.132    23511210.427
  20771118.316   -24420306.92643 -19012785.27942  20771118.324    20771114.481
  22766486.769   -13078187.59643 -10175668.83242  22766486.795    22766485.658
  24136373.111    -7368912.54743  -5703634.81442  24136373.636    24136372.547
 04  5 21  0 26 30.0000000  0  6G20G11G14G25G 1G30
  21846286.786   -19861283.14143 -15429365.35942  21846286.617    21846283.453
  21809709.528   -18873541.00543 -14641485.96942  21809709.736    21809706.228
  23526488.871    -9498735.94743  -7337914.83842  23526488.860    23526486.124
  20776128.646   -24393977.47043 -18992268.81542  20776128.646    20776124.798
  22753798.788   -13144862.97643 -10227623.57442  22753798.780    22753797.662
  24139934.648    -7350195.86643  -5689050.37342  24139935.289    24139934.192
 04  5 21  0 27  0.0000000  0  6G20G11G14G25G 1G30
  21831707.920   -19937895.49843 -15489063.26642  21831707.751    21831704.565
  21818447.929   -18827620.42943 -14605703.73342  21818448.115    21818444.655
  23541771.706    -9418424.20143  -7275334.33142  23541771.736    23541768.985
  20781229.787   -24367170.75343 -18971380.45942  20781229.784    20781225.935
  22741143.213   -13211367.82643 -10279445.44242  22741143.250    22741142.108
  24143600.962    -7330930.03443  -5674038.02442  24143601.419    24143600.316
 04  5 21  0 27 30.0000000  0  6G20G11G14G25G 1G30
  21817171.399   -20014285.43043 -15548587.85342  21817171.195    21817168.016
  21827275.528   -18781231.05043 -14569556.19642  21827275.721    21827272.313
  23557062.721    -9338069.31943  -7212720.20642  23557062.837    23557060.056
  20786422.791   -24339881.42443 -18950116.03842  20786422.761    20786418.912
  22728521.357   -13277695.76543 -10331129.46442  22728521.388    22728520.173
  24147372.849    -7311108.83243  -5658592.94842  24147373.316    24147372.337
 04  5 21  0 28  0.0000000  0  6G20G11G14G25G 1G30
  21802676.140   -20090458.24843 -15607943.26342  21802675.991    21802672.772
  21836190.624   -18734382.07843 -14533050.53942  21836190.793    21836187.392
  23572360.581    -9257679.14643  -7150078.60042  23572360.673    23572357.896
  20791705.860   -24312118.73143 -18928482.76842  20791705.808    20791701.976
  22715931.757   -13343854.23143 -10382681.42342  22715931.777    22715930.547
  24151248.970    -7290739.98643  -5642721.10642  24151249.450    24151248.216
 04  5 21  0 28 30.0000000  0  6G20G11G14G25G 1G30
  21788222.931   -20166410.27543 -15667126.62942  21788222.777    21788219.529
  21845193.091   -18687074.12343 -14496187.23242  21845193.234    21845189.807
  23587665.354    -9177252.50243  -7087408.55342  23587665.379    23587662.614
  20797079.012   -24283882.42943 -18906480.45142  20797078.991    20797075.160
  22703374.706   -13409841.45643 -10434099.94642  22703374.759    22703373.455
  24155229.766    -7269821.98343  -5626421.36442  24155230.171    24155228.372
 04  5 21  0 29  0.0000000  0  6G20G11G14G25G 1G30
  21773813.164   -20242133.86843 -15726131.99142  21773813.019    21773809.774
  21854283.605   -18639303.36943 -14458963.29842  21854283.740    21854280.317
  23602977.963    -9096784.38543  -7024706.21242  23602978.101    23602975.293
  20802543.081   -24255168.54443 -18884105.99242  20802543.055    20802539.212
  22690851.411   -13475651.59243 -10485380.48642  22690851.445    22690850.121
  24159315.476    -7248349.28043  -5609689.42842  24159316.233    24159315.000
 04  5 21  0 29 30.0000000  0  6G20G11G14G25G 1G30
  21759445.302   -20317637.50143 -15784965.95842  21759445.134    21759441.846
  21863459.885   -18591081.83543 -14421388.11142  21863460.023    21863456.596
  23618296.385    -9016285.81543  -6961980.11942  23618296.497    23618293.800
  20808095.828   -24225988.71543 -18861368.46142  20808095.787    20808091.939
  22678359.748   -13541295.13543 -10536531.20742  22678359.802    22678358.497
  24163505.487    -7226332.82343  -5592533.74142  24163506.052    24163504.509
 04  5 21  0 30  0.0000000  0  6G20G11G14G25G 1G30
  21745121.438   -20392909.66443 -15843619.55342  21745121.274    21745117.999
  21872723.308   -18542402.21443 -14383455.97542  21872723.483    21872720.059
  23633622.304    -8935748.01043  -6899223.47342  23633622.374    23633619.652
  20813738.755   -24196334.96243 -18838261.63642  20813738.707    20813734.870
  22665901.566   -13606762.93443 -10587544.99742  22665901.589    22665900.237
  24167800.250    -7203763.35243  -5574947.14542  24167800.880    24167799.570
 04  5 21  0 30 30.0000000  0  6G20G11G14G25G 1G30
  21730841.779   -20467949.54743 -15902092.15342  21730841.606    21730838.361
  21882073.284   -18493267.99343 -14345169.60542  21882073.427    21882070.005
  23648955.360    -8855172.59343  -6836437.52542  23648955.425    23648952.642
  20819471.384   -24166209.79643 -18814787.48142  20819471.336    20819467.482
  22653476.628   -13672056.03143 -10638422.65442  22653476.655    22653475.263
  24172200.166    -7180642.44543  -5556930.87442  24172200.798    24172199.618
 04  5 21  0 31  0.0000000  0  6G20G11G14G25G 1G30
  21716606.265   -20542757.43843 -15960383.97942  21716606.089    21716602.844
  21891508.934   -18443683.51443 -14306532.38342  21891509.067    21891505.664
  23664295.032    -8774562.63243  -6773624.64542  23664295.045    23664292.236
  20825292.941   -24135617.29043 -18790949.16242  20825292.894    20825289.040
  22641084.513   -13737176.83743 -10689166.06042  22641084.510    22641083.086
  24176704.145    -7156972.97643  -5538487.12742  24176705.066    24176703.501
 04  5 21  0 31 30.0000000  0  6G20G11G14G25G 1G30
  21702415.678   -20617329.38543 -16018491.95742  21702415.478    21702412.231
  21901030.252   -18393648.94943 -14267544.45342  21901030.357    21901026.961
  23679641.484    -8693916.57443  -6710783.63042  23679641.514    23679638.770
  20831203.504   -24104557.05143 -18766746.38142  20831203.464    20831199.596
  22628725.642   -13802123.15543 -10739773.50742  22628725.591    22628724.092
  24181312.735    -7132753.10243  -5519614.53442  24181313.747    24181312.445
 04  5 21  0 32  0.0000000  0  6G20G11G14G25G 1G30
  21688269.794   -20691666.21743 -16076416.72642  21688269.616    21688266.375
  21910636.275   -18343169.08143 -14228209.53442  21910636.371    21910632.999
  23694994.153    -8613237.94843  -6647917.25342  23694994.120    23694991.459
  20837202.163   -24073033.85443 -18742182.85242  20837202.120    20837198.252
  22616399.286   -13866898.18843 -10790247.47542  22616399.208    22616397.708
  24186025.650    -7107986.35443  -5500315.77742  24186026.706    24186025.185
 04  5 21  0 32 30.0000000  0  6G20G11G14G25G 1G30
  21674168.992   -20765766.25743 -16134156.98242  21674168.809    21674165.559
  21920326.538   -18292246.46043 -14188529.61242  21920326.649    21920323.289
  23710352.827    -8532527.54143  -6585026.10042  23710352.795    23710350.188
  20843288.585   -24041049.55943 -18717260.02842  20843288.518    20843284.667
  22604105.498   -13931502.20443 -10840588.19542  22604105.380    22604103.923
  24190842.724    -7082673.47543  -5480591.48542  24190843.530    24190841.868
 04  5 21  0 33  0.0000000  0  6G20G11G14G25G 1G30
  21660114.148   -20839624.82143 -16191709.07542  21660113.959    21660110.705
  21930101.172   -18240880.63343 -14148504.33642  21930101.286    21930097.917
  23725718.020    -8451783.33243  -6522108.62142  23725717.898    23725715.348
  20849462.921   -24008603.15143 -18691977.11742  20849462.871    20849459.010
  22591844.692   -13995932.69243 -10890793.69042  22591844.596    22591843.153
  24195763.931    -7056812.53043  -5460440.11142  24195764.568    24195762.749
 04  5 21  0 33 30.0000000  0  6G20G11G14G25G 1G30
  21646105.674   -20913239.76543 -16249071.33842  21646105.476    21646102.191
  21939959.799   -18189073.47843 -14108135.16942  21939959.892    21939956.541
  23741089.546    -8371005.59243  -6459165.01842  23741089.410    23741087.012
  20855724.943   -23975696.05943 -18666335.22642  20855724.869    20855721.022
  22579616.941   -14060189.44243 -10940863.81342  22579616.854    22579615.432
  24200789.066    -7030403.68843  -5439861.84142  24200789.776    24200788.450
 04  5 21  0 34  0.0000000  0  6G20G11G14G25G 1G30
  21632143.552   -20986611.12343 -16306243.79042  21632143.350    21632140.034
  21949901.548   -18136829.47443 -14067425.59542  21949901.650    21949898.296
  23756467.002    -8290197.06943  -6396197.42142  23756466.844    23756464.454
  20862073.892   -23942332.07743 -18640337.32042  20862073.818    20862069.977
  22567421.895   -14124274.55143 -10990800.19342  22567421.818    22567420.362
  24205918.404    -7003449.50343  -5418858.60442  24205918.902    24205917.575
 04  5 21  0 34 30.0000000  0  6G20G11G14G25G 1G30
  21618228.857   -21059733.16043 -16363221.97042  21618228.667    21618225.326
  21959926.724   -18084147.09343 -14026374.43842  21959926.827    21959923.478
  23771850.849    -8209354.78143  -6333203.49142  23771850.685    23771848.325
  20868510.230   -23908508.96743 -18613981.65442  20868510.165    20868506.276
  22555260.202   -14188184.46243 -11040600.06042  22555260.127    22555258.680
  24211152.097    -6975947.03343  -5397428.13942  24211152.454    24211151.505
 04  5 21  0 35  0.0000000  0  6G20G11G14G25G 1G30
  21604361.274   -21132607.80843 -16420007.37842  21604361.053    21604357.707
  21970034.150   -18031032.23043 -13984986.27742  21970034.283    21970030.952
  23787240.303    -8128483.07243  -6270186.64342  23787240.119    23787237.729
  20875032.845   -23874232.43743 -18587272.67342  20875032.774    20875028.872
  22543131.106   -14251923.09543 -11090266.45742  22543131.011    22543129.535
  24216488.948    -6947900.62743  -5375573.84742  24216489.610    24216488.418
 04  5 21  0 35 30.0000000  0  6G20G11G14G25G 1G30
  21590541.575   -21205230.68543 -16476596.60142  21590541.356    21590537.997
  21980223.894   -17977484.88943 -13943261.12142  21980224.005    21980220.696
  23802635.709    -8047580.03343  -6207145.40442  23802635.523    23802633.157
  20881641.838   -23839501.93543 -18560209.94742  20881641.771    20881637.861
  22531034.996   -14315488.18943 -11139797.62742  22531034.918    22531033.437
  24221929.729    -6919308.75743  -5353294.48742  24221930.367    24221929.462
 04  5 21  0 36  0.0000000  0  7G20G16G11G14G25G 1G30
  21576769.034   -21277605.62243 -16532992.62442  21576768.837    21576765.487
  24656292.222    -3795669.86153  -2915512.88152  24656292.937    24656296.241
  21990494.332   -17923513.47943 -13901205.52242  21990494.436    21990491.152
  23818035.875    -7966652.23043  -6144084.86742  23818035.622    23818033.313
  20888335.755   -23804325.13143 -18532799.45142  20888335.704    20888331.802
  22518970.843   -14378885.77443 -11189198.28042  22518970.766    22518969.217
  24227473.270    -6890177.94743  -5330595.18742  24227473.803    24227472.851
 04  5 21  0 36 30.0000000  0  7G20G16G11G14G25G 1G30
  21563045.924   -21349720.86643 -16589186.28742  21563045.727    21563042.389
  24638271.016    -3890370.32443  -2989305.11242  24638271.723    24638274.963
  22000846.943   -17869110.14043 -13858813.35542  22000847.069    22000843.808
  23833442.358    -7885690.43843  -6080997.83942  23833442.223    23833439.942
  20895116.204   -23768693.69743 -18505034.70042  20895116.147    20895112.236
  22506940.345   -14442106.14343 -11238460.83742  22506940.304    22506938.724
  24233121.287    -6860498.98643  -5307468.73342  24233121.843    24233120.288
 04  5 21  0 37  0.0000000  0  7G20G16G11G14G25G 1G30
  21549372.199   -21421576.65843 -16645177.77642  21549371.981    21549368.633
  24620243.114    -3985106.55543  -3063125.22542  24620243.723    24620246.737
  22011280.897   -17814279.32443 -13816088.09542  22011281.017    22011277.800
  23848854.897    -7804697.36443  -6017886.42842  23848854.724    23848852.467
  20901982.368   -23732611.76443 -18476918.91142  20901982.297    20901978.410
  22494943.106   -14505151.75043 -11287587.21342  22494943.036    22494941.475
  24238872.359    -6830274.97143  -5283917.58542  24238873.417    24238872.211
 04  5 21  0 37 30.0000000  0  7G20G16G11G14G25G 1G30
  21535747.003   -21493177.37043 -16700970.51142  21535746.797    21535743.440
  24602207.716    -4079882.01143  -3136975.91342  24602208.537    24602211.223
  22021794.561   -17759029.93743 -13773036.67542  22021794.665    22021791.445
  23864271.957    -7723679.96343  -5954756.06442  23864271.913    23864269.639
  20908932.638   -23696087.73543 -18448458.63342  20908932.573    20908928.708
  22482977.956   -14568028.86343 -11336582.30242  22482977.886    22482976.286
  24244726.539    -6799513.06043  -5259947.28442  24244727.461    24244726.024
 04  5 21  0 38  0.0000000  0  7G20G16G11G14G25G 1G30
  21522171.967   -21564514.46243 -16756557.82442  21522171.763    21522168.400
  24584166.621    -4174687.43943  -3210849.95442  24584167.347    24584169.986
  22032388.631   -17703357.87243 -13729655.88842  22032388.726    22032385.523
  23879694.893    -7642632.28243  -5891602.12042  23879694.863    23879692.674
  20915968.063   -23659116.28743 -18419649.71242  20915968.002    20915964.161
  22471046.045   -14630731.24143 -11385441.22342  22471045.998    22471044.372
  24250683.711    -6768207.47643  -5235553.32242  24250684.661    24250683.401
 04  5 21  0 38 30.0000000  0  7G20G16G11G14G25G 1G30
  21508647.202   -21635587.44243 -16811939.33642  21508647.004    21508643.624
  24566119.959    -4269521.64843  -3284746.42042  24566120.581    24566123.159
  22043062.357   -17647267.01643 -13685948.77842  22043062.470    22043059.284
  23895123.122    -7561556.43743  -5828426.21242  23895123.181    23895121.013
  20923087.903   -23621701.28243 -18390495.16342  20923087.823    20923084.003
  22459147.064   -14693260.53143 -11434165.28042  22459147.011    22459145.329
  24256743.698    -6736360.60343  -5210737.60142  24256744.505    24256743.595
 04  5 21  0 39  0.0000000  0  7G20G16G11G14G25G 1G30
  21495173.093   -21706394.26143 -16867113.44942  21495172.893    21495169.502
  24548068.418    -4364382.03543  -3358663.29342  24548068.969    24548071.538
  22053815.346   -17590759.78443 -13641917.21642  22053815.483    22053812.300
  23910556.673    -7480452.97343  -5765228.78242  23910556.719    23910554.567
  20930291.754   -23583844.74743 -18360996.56742  20930291.688    20930287.859
  22447281.035   -14755616.68843 -11482754.42542  22447280.955    22447279.276
  24262906.818    -6703973.40343  -5185500.87042  24262907.609    24262906.718
 04  5 21  0 39 30.0000000  0  7G20G16G11G14G25G 1G30
  21481748.835   -21776939.10243 -16922083.42842  21481748.630    21481745.253
  24530011.172    -4459271.84943  -3432603.09442  24530011.874    24530014.262
  22064646.052   -17533844.34743 -13597567.57542  22064646.183    22064642.993
  23925994.282    -7399328.57643  -5702015.04642  23925994.233    23925992.129
  20937578.137   -23545554.45543 -18331159.97742  20937578.098    20937574.243
  22435446.720   -14817805.99943 -11531213.55642  22435446.657    22435444.983
  24269171.515    -6671052.57343  -5159848.30142  24269172.278    24269171.316
 04  5 21  0 40  0.0000000  0  7G20G16G11G14G25G 1G30
  21468377.138   -21847207.80543 -16976838.22942  21468376.928    21468373.517
  24511951.282    -4554176.19843  -3506554.20342  24511951.845    24511954.099
  22075556.270   -17476511.05443 -13552892.32842  22075556.392    22075553.192
  23941437.908    -7318171.80643  -5638776.09442  23941437.946    23941435.824
  20944949.029   -23506820.05843 -18300977.32842  20944948.983    20944945.153
  22423646.442   -14879816.50743 -11579533.36342  22423646.361    22423644.721
  24275539.665    -6637587.23143  -5133771.44242  24275540.312    24275539.268
 04  5 21  0 40 30.0000000  0  7G20G16G11G14G25G 1G30
  21455057.009   -21917205.44743 -17031381.82142  21455056.801    21455053.385
  24493887.663    -4649099.62443  -3580520.21542  24493888.234    24493890.546
  22086544.049   -17418770.00343 -13507899.35442  22086544.187    22086541.003
  23956886.352    -7236990.16643  -5575517.77742  23956886.450    23956884.227
  20952402.798   -23467650.27243 -18270455.42242  20952402.743    20952398.899
  22411878.788   -14941655.41843 -11627719.45742  22411878.729    22411877.089
  24282010.458    -6603585.15443  -5107276.32842  24282010.861    24282010.056
 04  5 21  0 41  0.0000000  0  7G20G16G11G14G25G 1G30
  21441788.810   -21986930.14543 -17085712.72442  21441788.620    21441785.191
  24475820.973    -4744039.39343  -3654498.97342  24475821.422    24475823.803
  22097609.053   -17360623.35743 -13462590.33142  22097609.159    22097605.963
  23972339.367    -7155784.21043  -5512240.48342  23972339.534    23972337.233
  20959938.989   -23428047.30843 -18239595.96842  20959938.925    20959935.090
  22400143.715   -15003323.07943 -11675772.11442  22400143.688    22400142.071
  24288582.752    -6569047.59243  -5080363.99442  24288583.048    24288582.433
 04  5 21  0 41 30.0000000  0  7G20G16G11G14G25G 1G30
  21428573.095   -22056379.01143 -17139828.69642  21428572.907    21428569.489
  24457751.962    -4838991.41443  -3728487.28042  24457752.399    24457754.745
  22108750.953   -17302072.47643 -13416966.31042  22108751.065    22108747.870
  23987797.060    -7074553.56843  -5448943.97542  23987797.210    23987795.036
  20967557.491   -23388011.99243 -18208399.62142  20967557.389    20967553.544
  22388441.490   -15064818.48443 -11723690.54842  22388441.448    22388439.814
  24295257.242    -6533974.27443  -5053034.21242  24295257.563    24295256.009
 04  5 21  0 42  0.0000000  0  7G20G16G11G14G25G 1G30
  21415410.484   -22125548.97243 -17193727.34142  21415410.272    21415406.879
  24439681.234    -4933952.43743  -3802482.57042  24439681.677    24439684.084
  22119969.414   -17243119.20743 -13371028.74542  22119969.529    22119966.357
  24003259.588    -6993297.89843  -5385627.97042  24003259.648    24003257.615
  20975258.019   -23347545.60243 -18176867.37442  20975257.910    20975254.026
  22376772.128   -15126141.05143 -11771474.30042  22376772.094    22376770.458
  24302034.062    -6498365.57143  -5025287.12142  24302034.340    24302031.593
 04  5 21  0 42 30.0000000  0  7G20G16G11G14G25G 1G30
  21402301.528   -22194436.77343 -17247406.11842  21402301.334    21402297.945
  24421609.657    -5028918.02943  -3876481.43742  24421610.043    24421612.225
  22131264.354   -17183764.29443 -13324778.21342  22131264.430    22131261.277
  24018727.055    -6912016.34443  -5322291.78342  24018727.070    24018725.124
  20983040.498   -23306648.34043 -18144999.37842  20983040.407    20983036.521
  22365135.903   -15187289.47943 -11819122.35942  22365135.875    22365134.213
  24308911.487    -6462221.04743  -4997122.59842  24308912.257    24308910.259
 04  5 21  0 43  0.0000000  0  7G20G16G11G14G25G 1G30
  21389245.843   -22263044.84843 -17300866.92642  21389245.629    21389242.226
  24403536.911    -5123890.16443  -3950485.40742  24403537.192    24403539.365
  22142634.392   -17124014.72443 -13278220.15442  22142634.447    22142631.320
  24034198.541    -6830713.93243  -5258939.34642  24034198.440    24034196.464
  20990903.749   -23265326.58843 -18112800.61242  20990903.673    20990899.798
  22353531.960   -15248268.49443 -11866638.41742  22353531.929    22353530.258
  24315890.650    -6425546.12543  -4968544.81642  24315891.266    24315889.634
 04  5 21  0 43 30.0000000  0  7G20G16G11G14G25G 1G30
  21376244.703   -22331366.26643 -17354104.36542  21376244.463    21376241.051
  24385464.342    -5218861.10643  -4024488.45842  24385464.662    24385466.589
  22154079.887   -17063868.38043 -13231352.92642  22154079.968    22154076.853
  24049674.746    -6749386.12943  -5195567.12842  24049674.627    24049672.672
  20998848.280   -23223577.69243 -18080269.01242  20998848.214    20998844.350
  22341961.207   -15309073.11043 -11914018.57542  22341961.130    22341959.442
  24322971.398    -6388337.16443  -4939550.82142  24322972.193    24322970.159
 04  5 21  0 44  0.0000000  0  7G20G16G11G14G25G 1G30
  21363298.607   -22399398.34943 -17407116.34742  21363298.375    21363294.963
  24367392.670    -5313827.23543  -4098487.76242  24367393.097    24367394.923
  22165600.541   -17003327.07143 -13184177.92842  22165600.613    22165597.502
  24065155.782    -6668033.05943  -5132175.23342  24065155.633    24065153.618
  21006873.912   -23181402.85343 -18047405.50742  21006873.847    21006869.960
  22330423.698   -15369702.87543 -11961262.48242  22330423.616    22330421.917
  24330153.364    -6350594.41343  -4910140.91442  24330154.257    24330152.064
 04  5 21  0 44 30.0000000  0  7G20G16G11G14G25G 1G30
  21350407.091   -22467143.66143 -17459904.87142  21350406.846    21350403.407
  24349321.578    -5408790.48843  -4172484.85742  24349322.011    24349323.752
  22177195.044   -16942397.77243 -13136700.60342  22177195.114    22177192.035
  24080640.711    -6586659.80543  -5068767.61042  24080640.596    24080638.635
  21014979.315   -23138808.61843 -18014215.20142  21014979.266    21014975.410
  22318918.539   -15430162.68343 -12008373.96942  22318918.482    22318916.701
  24337435.673    -6312323.62243  -4880319.56842  24337436.506    24337434.837
 04  5 21  0 45  0.0000000  0  6G20G16G11G14G25G 1
  21337572.384   -22534590.30243 -17512460.66942  21337572.171    21337568.719
  24331253.517    -5503738.01043  -4246469.67642  24331253.924    24331255.600
  22188864.798   -16881073.02243 -13088915.13642  22188864.885    22188861.787
  24096131.293    -6505256.65243  -5005336.66442  24096131.220    24096129.204
  21023166.095   -23095786.83943 -17980691.74742  21023166.045    21023162.171
  22307447.611   -15490442.55143 -12055345.23442  22307447.537    22307445.772
 04  5 21  0 45 30.0000000  0  6G20G16G11G14G25G 1
  21324792.100   -22601751.11943 -17564793.74742  21324791.854    21324788.387
  24313186.112    -5598682.09243  -4320451.82342  24313186.485    24313188.074
  22200606.395   -16819370.62543 -13040835.39842  22200606.501    22200603.398
  24111624.590    -6423839.20543  -4941894.59642  24111624.458    24111622.550
  21031430.983   -23052354.57543 -17946848.43342  21031430.917    21031427.077
  22296008.068   -15550557.67043 -12102188.12642  22296007.960    22296006.154
 04  5 21  0 46  0.0000000  0  6G20G16G11G14G25G 1
  21312068.013   -22668616.42343 -17616896.55842  21312067.789    21312064.329
  24295121.339    -5693612.17743  -4394423.07642  24295121.618    24295123.338
  22212420.862   -16757285.39443 -12992457.34942  22212420.973    22212417.844
  24127121.958    -6342400.33243  -4878435.83642  24127121.909    24127119.936
  21039775.077   -23008506.18043 -17912680.86542  21039774.995    21039771.168
  22284601.280   -15610500.56843 -12148896.81642  22284601.184    22284599.328
 04  5 21  0 46 30.0000000  0  6G20G16G11G14G25G 1
  21299400.899   -22735182.34843 -17668766.08442  21299400.673    21299397.221
  24277060.085    -5788523.48843  -4468379.70142  24277060.429    24277062.156
  22224308.013   -16694818.15843 -12943781.62842  22224308.124    22224304.987
  24142623.623    -6260938.89843  -4814959.49042  24142623.646    24142621.578
  21048198.251   -22964242.05643 -17878189.35042  21048198.184    21048194.365
  22273227.539   -15670269.75343 -12195470.15342  22273227.439    22273225.556
 04  5 21  0 47  0.0000000  0  6G20G16G11G14G25G 1
  21286790.439   -22801450.64543 -17720403.69742  21286790.189    21286786.753
  24259002.264    -5883417.11243  -4542322.55342  24259002.672    24259004.252
  22236266.693   -16631974.99543 -12894812.97842  22236266.798    22236263.709
  24158128.760    -6179458.66743  -4751468.49842  24158128.800    24158126.913
  21056699.557   -22919567.50143 -17843378.01742  21056699.482    21056695.665
  22261886.182   -15729868.79743 -12241910.90842  22261886.086    22261884.167
 04  5 21  0 47 30.0000000  0  6G20G16G11G14G25G 1
  21274237.237   -22867418.09543 -17771806.88742  21274236.970    21274233.557
  24240948.565    -5978288.91843  -4616248.40242  24240948.872    24240950.493
  22248296.695   -16568757.12743 -12845552.35442  22248296.783    22248293.722
  24173637.775    -6097958.94143  -4687962.32342  24173637.801    24173635.892
  21065278.826   -22874483.07443 -17808247.30242  21065278.757    21065274.952
  22250577.344   -15789296.71443 -12288218.31942  22250577.279    22250575.354
 04  5 21  0 48  0.0000000  0  6G20G16G11G14G25G 1
  21261742.770   -22933076.91843 -17822969.58542  21261742.482    21261739.072
  24222900.664    -6073130.18143  -4690150.43242  24222900.996    24222902.582
  22260398.576   -16505161.44043 -12795997.32742  22260398.663    22260395.632
  24189151.351    -6016434.64143  -4624436.98842  24189151.366    24189149.565
  21073936.820   -22828985.05443 -17772794.30842  21073936.767    21073932.922
  22239302.222   -15848547.86543 -12334388.00042  22239302.108    22239300.161
 04  5 21  0 48 30.0000000  0  6G20G16G11G14G25G 1
  21249305.368   -22998435.88343 -17873898.63142  21249305.067    21249301.647
  24204856.981    -6167949.21643  -4764035.13642  24204857.306    24204858.789
  22272569.721   -16441201.67843 -12746158.60242  22272569.824    22272566.813
  24204667.553    -5934897.08143  -4560901.33442  24204667.571    24204665.795
  21082670.980   -22783086.88243 -17737029.50942  21082670.912    21082667.052
  22228058.624   -15907633.30243 -12380428.55042  22228058.530    22228056.525
 04  5 21  0 49  0.0000000  0  6G20G16G11G14G25G 1
  21236927.673   -23063480.96643 -17924583.09442  21236927.367    21236923.959
  24186820.428    -6262730.91643  -4837890.77042  24186820.750    24186822.075
  22284811.954   -16376868.39843 -12696028.82942  22284812.066    22284809.074
  24220188.533    -5853334.59643  -4497346.25842  24220188.431    24220186.650
  21091483.213   -22736778.35043 -17700944.94742  21091483.147    21091479.274
  22216848.785   -15966541.19643 -12426330.74942  22216848.680    22216846.662
 04  5 21  0 49 30.0000000  0  6G20G16G11G14G25G 1
  21224608.504   -23128218.56643 -17975027.95942  21224608.206    21224604.766
  24168789.892    -6357480.90243  -4911721.68342  24168790.188    24168791.620
  22297123.182   -16312172.68243 -12645616.64342  22297123.292    22297120.330
  24235712.447    -5771756.11643  -4433778.71542  24235712.347    24235710.633
  21100371.520   -22690070.03943 -17664548.86942  21100371.429    21100367.553
  22205671.072   -16025280.24743 -12472101.38342  22205670.959    22205668.951
 04  5 21  0 50  0.0000000  0  6G20G16G11G14G25G 1
  21212349.178   -23192641.70543 -18025227.78942  21212348.876    21212345.433
  24150766.893    -6452191.44643  -4985521.85742  24150767.192    24150768.604
  22309503.837   -16247112.19743 -12594920.21642  22309503.912    22309500.958
  24251240.240    -5690157.19543  -4370195.24542  24251240.206    24251238.492
  21109336.476   -22642958.87643 -17627838.87942  21109336.390    21109332.502
  22194526.454   -16083845.46943 -12517736.57042  22194526.322    22194524.272
 04  5 21  0 50 30.0000000  0  6G20G16G11G14G25G 1
  21200149.808   -23256749.74643 -18075182.08842  21200149.512    21200146.056
  24132751.674    -6546861.19743  -5059290.25242  24132751.912    24132753.302
  22321953.137   -16181691.09843 -12543942.78942  22321953.210    22321950.217
  24266771.613    -5608539.69143  -4306597.31342  24266771.479    24266769.894
  21118377.384   -22595448.45943 -17590817.77842  21118377.317    21118373.421
  22183414.588   -16142238.52443 -12563237.60142  22183414.454    22183412.405
 04  5 21  0 51  0.0000000  0  6G20G16G11G14G25G 1
  21188010.377   -23320542.93843 -18124891.04842  21188010.061    21188006.583
  24114744.330    -6641489.50543  -5133026.35942  24114744.634    24114745.962
  22334470.112   -16115914.24243 -12492688.15142  22334470.161    22334467.201
  24282306.113    -5526906.35443  -4242987.03042  24282305.840    24282304.246
  21127493.460   -22547543.19843 -17553489.01542  21127493.386    21127489.473
  22172335.037   -16200461.86043 -12608606.38342  22172334.887    22172332.827
 04  5 21  0 51 30.0000000  0  6G20G16G11G14G25G 1
  21175932.315   -23384013.43743 -18174348.56142  21175932.001    21175928.524
  24096746.541    -6736067.65843  -5206723.38642  24096746.947    24096748.102
  22347055.332   -16049778.61843 -12441153.95542  22347055.387    22347052.444
  24297844.449    -5445251.99143  -4179360.36442  24297844.212    24297842.653
  21136685.376   -22499239.34343 -17515849.65742  21136685.299    21136681.390
  22161288.825   -16258509.87143 -12653838.54942  22161288.673    22161286.611
 04  5 21  0 52  0.0000000  0  6G20G16G11G14G25G 1
  21163914.641   -23447166.62343 -18223558.81342  21163914.331    21163910.841
  24078757.483    -6830599.93643  -5280384.66942  24078757.845    24078758.941
  22359706.967   -15983293.99243 -12389347.80742  22359707.001    22359704.086
  24313385.430    -5363583.84743  -4115722.95642  24313385.271    24313383.660
  21145951.493   -22450545.65743 -17477906.53242  21145951.386    21145947.502
  22150274.636   -16316389.67143 -12698939.64042  22150274.477    22150272.373
 04  5 21  0 52 30.0000000  0  6G20G16G11G14G25G 1
  21151958.845   -23509994.64043 -18272515.69242  21151958.556    21151955.059
  24060778.710    -6925077.95443  -5354003.66542  24060779.010    24060780.091
  22372425.636   -15916457.33143 -12337267.35242  22372425.664    22372422.740
  24328930.056    -5281897.07543  -4052071.03242  24328929.786    24328928.181
  21155292.363   -22401459.16043 -17439657.32042  21155292.255    21155288.360
  22139293.441   -16374096.03843 -12743905.59342  22139293.292    22139291.159
 04  5 21  0 53  0.0000000  0  6G20G16G11G14G25G 1
  21140065.322   -23572495.41843 -18321217.57542  21140065.041    21140061.532
  24042810.857    -7019498.82043  -5427578.13842  24042811.156    24042812.203
  22385210.733   -15849271.54843 -12284914.85642  22385210.766    22385207.825
  24344478.055    -5200191.84743  -3988404.72842  24344477.888    24344476.223
  21164707.533   -22351982.10743 -17401103.78042  21164707.412    21164703.526
  22128345.246   -16431629.04743 -12788736.46342  22128345.090    22128342.927
 04  5 21  0 53 30.0000000  0  6G20G16G11G14G25G 1
  21128233.656   -23634671.29943 -18369666.29842  21128233.344    21128229.847
  24024853.581    -7113864.24343  -5501109.43442  24024853.862    24024854.788
  22398060.848   -15781743.83043 -12232295.90942  22398060.906    22398057.964
  24360028.808    -5118473.08043  -3924727.88642  24360028.542    24360026.943
  21174195.818   -22302120.78343 -17362250.80942  21174195.687    21174191.829
  22117429.174   -16488993.30943 -12833435.84442  22117429.010    22117426.840
 04  5 21  0 54  0.0000000  0  6G20G16G11G14G25G 1
  21116465.143   -23696515.00043 -18417856.17342  21116464.861    21116461.346
  24006908.499    -7208165.58243  -5574590.80342  24006908.757    24006909.594
  22410976.609   -15713871.27043 -12179408.25842  22410976.678    22410973.753
  24375582.887    -5036735.83643  -3861036.61942  24375582.735    24375581.134
  21183757.940   -22251871.49443 -17323095.53442  21183757.802    21183753.946
  22106546.168   -16546183.61043 -12877999.67042  22106546.012    22106543.810
 04  5 21  0 54 30.0000000  0  6G20G16G11G14G25G 1
  21104760.044   -23758025.53043 -18465786.43542  21104759.765    21104756.250
  23988975.923    -7302401.16643  -5648020.93942  23988976.208    23988976.885
  22423957.233   -15645657.85943 -12126255.01342  22423957.298    22423954.376
  24391140.214    -4954981.61343  -3797332.14642  24391140.151    24391138.554
  21193393.203   -22201237.79343 -17283640.71442  21193393.059    21193389.233
  22095696.070   -16603201.07243 -12922428.82142  22095695.937    22095693.709
 04  5 21  0 55  0.0000000  0  6G20G16G11G14G25G 1
  21093118.067   -23819204.48943 -18513458.33042  21093117.782    21093114.257
  23971055.795    -7396571.60143  -5721400.31642  23971056.043    23971056.558
  22437001.551   -15577109.73043 -12072840.94542  22437001.622    22436998.702
  24406700.082    -4873214.27043  -3733617.44242  24406700.003    24406698.352
  21203100.621   -22150225.05443 -17243890.54242  21203100.466    21203096.654
  22084878.132   -16660049.37043 -12966726.15242  22084878.005    22084875.794
 04  5 21  0 55 30.0000000  0  6G20G16G11G14G25G 1
  21081540.541   -23880044.74343 -18560866.30042  21081540.249    21081536.712
  23953149.512    -7490669.07743  -5794722.84442  23953149.696    23953150.183
  22450110.014   -15508224.68643 -12019164.34742  22450110.021    22450107.133
  24422263.430    -4791429.32843  -3669889.02742  24422263.186    24422261.626
  21212880.663   -22098830.61343 -17203842.94342  21212880.518    21212876.711
  22074093.349   -16716723.73243 -13010887.95542  22074093.185    22074090.986
 04  5 21  0 56  0.0000000  0  6G20G16G11G14G25G 1
  21070027.096   -23940548.09343 -18608011.74642  21070026.836    21070023.275
  23935256.943    -7584694.43643  -5867989.18042  23935257.161    23935257.605
  22463281.293   -15439009.23243 -11965230.29142  22463281.319    22463278.442
  24437829.238    -4709630.88943  -3606150.09942  24437828.968    24437827.528
  21222732.172   -22047060.46643 -17163502.58242  21222732.065    21222728.269
  22063340.896   -16773228.09343 -13054917.28642  22063340.719    22063338.520
 04  5 21  0 56 30.0000000  0  6G20G16G11G14G25G 1
  21058578.692   -24000709.77743 -18654890.96842  21058578.442    21058574.862
  23917379.152    -7678642.05443  -5941194.93642  23917379.329    23917379.725
  22476515.381   -15369463.70643 -11911039.03242  22476515.411    22476512.575
  24453397.965    -4627816.77443  -3542398.94442  24453397.724    24453396.369
  21232655.326   -21994914.05443 -17122869.03342  21232655.208    21232651.405
  22052621.226   -16829559.99543 -13098812.23542  22052621.076    22052618.865
 04  5 21  0 57  0.0000000  0  6G20G16G11G14G25G 1
  21047195.618   -24060528.09743 -18701502.63242  21047195.353    21047191.795
  23899516.656    -7772509.40843  -6014338.14742  23899516.859    23899517.248
  22489811.744   -15299590.85943 -11856592.71242  22489811.781    22489808.990
  24468969.663    -4545987.45743  -3478635.94842  24468969.431    24468968.010
  21242649.647   -21942393.65243 -17081944.06042  21242649.522    21242645.705
  22041934.378   -16885719.62043 -13142572.94542  22041934.201    22041931.999
 04  5 21  0 57 30.0000000  0  6G20G16G11G14G25G 1
  21035877.889   -24120003.18343 -18747846.83942  21035877.616    21035874.034
  23881669.627    -7866295.65743  -6087418.16742  23881669.782    23881670.113
  22503169.450   -15229395.88643 -11801895.39042  22503169.469    22503166.712
  24484543.787    -4464145.94243  -3414863.44642  24484543.517    24484542.032
  21252714.307   -21889503.65943 -17040731.09742  21252714.161    21252710.365
  22031279.769   -16941709.56243 -13186201.42642  22031279.599    22031277.456
 04  5 21  0 58  0.0000000  0  6G20G16G11G14G25G 1
  21024626.672   -24179128.67043 -18793918.63542  21024626.392    21024622.822
  23863839.394    -7959993.49643  -6160429.29242  23863839.615    23863839.799
  22516588.634   -15158877.52243 -11746946.06342  22516588.680    22516585.961
  24500120.900    -4382287.88643  -3351078.04842  24500120.723    24500119.272
  21262849.757   -21836241.67743 -16999228.27442  21262849.597    21262845.802
  22020658.258   -16997525.60243 -13229694.41142  22020658.120    22020655.968
 04  5 21  0 58 30.0000000  0  6G20G16G11G14G25G 1
  21013441.631   -24237906.37143 -18839719.42742  21013441.360    21013437.773
  23846025.819    -8053603.94443  -6233372.32042  23846025.944    23846026.187
  22530068.251   -15088041.71143 -11691749.38242  22530068.283    22530065.589
  24515700.426    -4300417.46943  -3287283.02842  24515700.185    24515698.825
  21273054.779   -21782613.93243 -16957440.44142  21273054.626    21273050.841
  22010069.153   -17053171.64043 -13273054.91842  22010068.994    22010066.839
 04  5 21  0 59  0.0000000  0  6G20G16G11G14G25G 1
  21002323.699   -24296331.47843 -18885245.47042  21002323.418    21002319.827
  23828229.912    -8147121.25643  -6306242.76942  23828230.057    23828230.219
  22543608.211   -15016888.80043 -11636305.61842  22543608.259    22543605.622
  24531282.655    -4218532.37943  -3223476.55842  24531282.527    24531281.000
  21283329.528   -21728619.85443 -16915367.14942  21283329.389    21283325.587
  21999512.909   -17108645.06243 -13316280.92942  21999512.716    21999510.539
 04  5 21  0 59 30.0000000  0  6G20G16G11G14G25G 1
  20991272.672   -24354404.74843 -18930497.35942  20991272.403    20991268.825
  23810451.694    -8240545.33743  -6379040.57442  23810451.899    23810452.038
  22557207.537   -14945424.13043 -11580618.92242  22557207.597    22557204.948
  24546867.227    -4136635.76043  -3159661.11142  24546867.027    24546865.537
  21293673.070   -21674264.17543 -16873012.09542  21293672.930    21293669.164
  21988988.914   -17163948.86843 -13359374.76542  21988988.721    21988986.545
 04  5 21  1  0  0.0000000  0  6G20G16G11G14G25G 1
  20980289.962   -24412119.21643 -18975469.65942  20980289.689    20980286.106
  23792692.739    -8333868.21843  -6451759.52142  23792693.022    23792693.129
  22570866.518   -14873645.84643 -11524687.84842  22570866.594    22570863.963
  24562454.735    -4054723.05743  -3095833.17742  24562454.624    24562453.085
  21304085.924   -21619544.28443 -16830373.23542  21304085.788    21304082.024
  21978498.091   -17219078.28643 -13402332.71642  21978497.893    21978495.710
 04  5 21  1  0 30.0000000  0  5G20G11G14G25G 1
  20969374.556   -24469480.04943 -19020166.40142  20969374.267    20969370.698
  22584583.290   -14801564.05643 -11468520.27342  22584583.371    22584580.705
  24578044.032    -3972801.83843  -3031998.58342  24578043.808    24578042.224
  21314566.325   -21564469.33343 -16787457.70442  21314566.174    21314562.444
  21968039.098   -17274040.54643 -13445160.41842  21968038.900    21968036.699
 04  5 21  1  1  0.0000000  0  5G20G11G14G25G 1
  20958528.369   -24526477.18943 -19064579.74642  20958528.055    20958524.480
  22598358.795   -14729173.37043 -11412112.00242  22598358.876    22598356.232
  24593636.313    -3890864.37043  -2968151.31042  24593636.212    24593634.632
  21325115.381   -21509033.61343 -16744261.05742  21325115.236    21325111.527
  21957613.425   -17328827.60043 -13487851.59342  21957613.234    21957611.052
 04  5 21  1  1 30.0000000  0  5G20G11G14G25G 1
  20947750.850   -24583113.45243 -19108711.88742  20947750.527    20947746.954
  22612191.659   -14656481.48043 -11355469.02942  22612191.729    22612189.094
  24609230.593    -3808916.02043  -2904295.57642  24609230.299    24609229.051
  21335731.737   -21453244.37743 -16700788.94642  21335731.571    21335727.890
  21947220.079   -17383444.82743 -13530410.44142  21947219.895    21947217.706
 04  5 21  1  2  0.0000000  0  5G20G11G14G25G 1
  20937042.972   -24639383.69443 -19152558.81942  20937042.650    20937039.077
  22626081.937   -14583487.95943 -11298591.02442  22626082.001    22626079.349
  24624827.719    -3726953.73543  -2840428.98842  24624827.364    24624826.269
  21346415.607   -21397100.26343 -16657040.30642  21346415.461    21346411.796
  21936859.697   -17437888.81543 -13572834.29242  21936859.536    21936857.312
 04  5 21  1  2 30.0000000  0  5G20G11G14G25G 1
  20926404.300   -24695290.18843 -19196122.31042  20926403.981    20926400.417
  22640028.141   -14510200.38743 -11241483.88342  22640028.221    22640025.575
  24640426.405    -3644982.26243  -2776555.22942  24640426.039    24640424.925
  21357165.742   -21340608.01243 -16613020.38742  21357165.607    21357161.927
  21926531.368   -17492164.34743 -13615126.88042  21926531.179    21926528.958
 04  5 21  1  3  0.0000000  0  5G20G11G14G25G 1
  20915835.725   -24750828.39443 -19239398.82042  20915835.399    20915831.852
  22654030.354   -14436618.65943 -11184147.52842  22654030.426    22654027.773
  24656027.390    -3562999.19243  -2712672.43442  24656026.901    24656025.959
  21367982.283   -21283766.82043 -16568728.56542  21367982.135    21367978.462
  21916235.605   -17546268.79143 -13657286.15342  21916235.426    21916233.169
 04  5 21  1  3 30.0000000  0  5G20G11G14G25G 1
  20905338.356   -24805992.41843 -19282383.76142  20905338.022    20905334.476
  22668088.723   -14362741.93743 -11126581.31242  22668088.774    22668086.087
  24671630.987    -3481001.25043  -2648778.03342  24671630.720    24671629.657
  21378865.473   -21226575.23143 -16524163.71042  21378865.356    21378861.685
  21905973.093   -17600198.62243 -13699309.37042  21905972.883    21905970.639
 04  5 21  1  4  0.0000000  0  5G20G11G14G25G 1
  20894912.041   -24860783.14643 -19325077.82242  20894911.702    20894908.139
  22682202.126   -14288575.82443 -11068789.58942  22682202.147    22682199.498
  24687236.909    -3398991.54343  -2584874.46142  24687236.602    24687235.556
  21389814.394   -21169038.30143 -16479329.75442  21389814.278    21389810.608
  21895743.181   -17653956.82443 -13741198.84042  21895743.031    21895740.755
 04  5 21  1  4 30.0000000  0  6G20G16G11G14G25G 1
  20884556.755   -24915200.37443 -19367480.84442  20884556.434    20884552.893
  23633797.690    -1261792.04853   -978720.74952  23633796.742    23633795.751
  22696369.728   -14214125.08243 -11010776.08042  22696369.715    22696367.066
  24702844.803    -3316972.18543  -2520963.39142  24702844.566    24702843.582
  21400828.226   -21111160.23043 -16434229.97742  21400828.129    21400824.459
  21885545.634   -17707545.17243 -13782955.96342  21885545.468    21885543.196
 04  5 21  1  5  0.0000000  0  6G20G16G11G14G25G 1
  20874273.167   -24969240.96043 -19409590.37642  20874272.831    20874269.301
  23616256.486    -1353966.36113                                  23616250.367
  22710591.135   -14139391.39943 -10952542.09842  22710591.099    22710588.476
  24718454.731    -3234942.27843  -2457044.07142  24718454.302    24718453.358
  21411906.832   -21052941.92743 -16388865.08042  21411906.717    21411903.055
  21875380.596   -17760962.69643 -13824579.97342  21875380.395    21875378.153
 04  5 21  1  5 30.0000000  0  5G20G16G11G25G 1
  20864063.720   -25022891.85043 -19451396.25242  20864063.391    20864059.853
  23598743.233
  22724867.901   -14064366.71843 -10894081.37242  22724867.866    22724865.266
  21423051.909   -20994374.31843 -16343228.00242  21423051.771    21423048.088
  21865250.149   -17814198.48243 -13866062.37242  21865249.921    21865247.685
 04  5 21  1  6  0.0000000  0  5G20G16G11G25G 1
  20853925.157   -25076170.26143 -19492911.88542  20853924.824    20853921.296
  23581254.086
  22739195.899   -13989072.81343 -10835410.86342  22739195.846    22739193.266
  21434259.276   -20935479.26443 -16297335.77242  21434259.158    21434255.453
  21855150.587   -17867271.98143 -13907418.31442  21855150.363    21855148.094
 04  5 21  1  6 30.0000000  0  5G20G16G11G25G 1
  20843859.733   -25129064.26943 -19534127.98242  20843859.405    20843855.871
  23563791.527    -1629669.97443   -998387.17452  23563791.978    23563790.914
  22753576.408   -13913502.88543 -10776525.26842  22753576.351    22753573.808
  21445530.497   -20876248.67243 -16251182.08342  21445530.377    21445526.670
  21845083.837   -17920173.22043 -13948640.02842  21845083.578    21845081.286
 04  5 21  1  7  0.0000000  0  5G20G16G11G25G 1
  20833867.408   -25181574.23143 -19575044.81742  20833867.081    20833863.557
  23546355.546    -1721296.43643  -1069784.26742  23546355.709    23546354.741
  22768008.479   -13837661.85743 -10717428.42542  22768008.451    22768005.944
  21456864.682   -20816687.21043 -16204770.57442  21456864.557    21456860.861
  21835049.331   -17972904.68243 -13989729.44742  21835049.100    21835046.771
 04  5 21  1  7 30.0000000  0  5G20G16G11G25G 1
  20823948.978   -25233695.84543 -19615659.05042  20823948.638    20823945.118
  23528946.937    -1812777.76843  -1141068.25842  23528947.224    23528946.295
  22782491.966   -13761550.83343 -10658121.19842  22782491.917    22782489.454
  21468261.860   -20756794.76943 -16158101.15742  21468261.727    21468258.039
  21825047.578   -18025464.11243 -14030684.81542  21825047.355    21825045.028
 04  5 21  1  8  0.0000000  0  5G20G16G11G25G 1
  20814105.214   -25285425.12743 -19655967.56942  20814104.887    20814101.345
  23511567.012    -1904109.14243  -1212235.39742  23511567.303    23511566.393
  22797026.697   -13685170.47743 -10598604.09442  22797026.702    22797024.186
  21479721.985   -20696571.53243 -16111173.97842  21479721.837    21479718.174
  21815078.918   -18077849.69143 -14071504.71642  21815078.696    21815076.372
 04  5 21  1  8 30.0000000  0  5G20G16G11G25G 1
  20804335.899   -25336763.18743 -19695971.23642  20804335.560    20804332.015
  23494215.685    -1995290.37843  -1283285.55542  23494215.972    23494215.131
  22811611.571   -13608526.76243 -10538881.78242  22811611.545    22811609.086
  21491244.017   -20636022.89743 -16063993.24442  21491243.861    21491240.218
  21805142.742   -18130064.40743 -14112191.47542  21805142.526    21805140.205
 04  5 21  1  9  0.0000000  0  5G20G16G11G25G 1
  20794641.141   -25387709.48743 -19735669.63842  20794640.794    20794637.233
  23476893.226    -2086320.08043  -1354217.64742  23476893.429    23476892.641
  22826245.731   -13531623.84243 -10478957.50042  22826245.742    22826243.258
  21502827.321   -20575152.22443 -16016561.57242  21502827.199    21502823.522
  21795238.780   -18182109.86043 -14152746.34242  21795238.569    21795236.255
 04  5 21  1  9 30.0000000  0  5G20G16G11G25G 1
  20785021.807   -25438259.34643 -19775059.12542  20785021.478    20785017.891
  23459600.689    -2177192.71543  -1425027.35042  23459600.816    23459600.031
  22840929.137   -13454462.20643 -10418831.61242  22840929.144    22840926.651
  21514471.981   -20513959.26343 -15968878.76542  21514471.840    21514468.187
  21785367.476   -18233983.71543 -14193167.50142  21785367.279    21785364.952
 04  5 21  1 10  0.0000000  0  5G20G16G11G25G 1
  20775478.400   -25488410.25943 -19814137.74542  20775478.065    20775474.467
  23442338.624    -2267904.70443  -1495711.86142  23442338.769    23442337.961
  22855661.361   -13377044.14243 -10358505.91442  22855661.351    22855658.863
  21526177.627   -20452445.72043 -15920946.15042  21526177.491    21526173.829
  21775528.907   -18285685.57343 -14233454.62842  21775528.708    21775526.408
 04  5 21  1 10 30.0000000  0  5G20G16G11G25G 1
  20766011.015   -25538161.72043 -19852905.10642  20766010.667    20766007.047
  23425107.402    -2358454.42043  -1566269.91842  23425107.571    23425106.855
  22870441.505   -13299374.18343 -10297983.93242  22870441.500    22870439.031
  21537943.636   -20390615.02643 -15872766.40942  21537943.488    21537939.838
  21765722.862   -18337216.73443 -14273608.75042  21765722.629    21765720.314
 04  5 21  1 11  0.0000000  0  5G20G16G11G25G 1
  20756619.743   -25587513.17543 -19891360.77142  20756619.373    20756615.743
  23407907.430    -2448840.36343  -1636700.37242  23407907.585    23407906.830
  22885268.836   -13221456.36643 -10237268.82542  22885268.800    22885266.316
  21549769.344   -20328470.78443 -15824342.34042  21549769.174    21549765.523
  21755948.990   -18388578.79743 -14313631.10842  21755948.740    21755946.410
 04  5 21  1 11 30.0000000  0  5G20G16G11G25G 1
  20747306.409   -25636455.08543 -19929497.31142  20747306.050    20747302.381
  23390740.673    -2539051.87043  -1706994.89442  23390740.763    23390740.057
  22900144.140   -13143286.24543 -10176357.10742  22900144.176    22900141.640
  21561655.731   -20266007.55043 -15775669.71342  21561655.559    21561651.891
  21746208.681   -18439764.39143 -14353515.96042  21746208.432    21746206.086
 04  5 21  1 12  0.0000000  0  5G20G16G11G25G 1
  20738069.897   -25684993.28843 -19967319.27242  20738069.522    20738065.852
  23373606.145    -2629093.83443  -1777157.31942  23373606.187    23373605.484
  22915065.494   -13064874.32443 -10115256.98242  22915065.525    22915063.006
  21573600.834   -20203235.58643 -15726756.50942  21573600.657    21573597.023
  21736500.433   -18490781.50443 -14393269.53142  21736500.179    21736497.835
 04  5 21  1 12 30.0000000  0  5G20G16G11G25G 1
  20728911.090   -25733123.09043 -20004823.00342  20728910.724    20728907.051
  23356504.918    -2718960.49543  -1847183.13242  23356505.023    23356504.301
  22930032.850   -12986220.70343 -10053968.51342  22930032.907    22930030.372
  21585604.760   -20140154.49643 -15677602.43242  21585604.605    21585600.956
  21726824.808   -18541627.05043 -14432889.41042  21726824.560    21726822.217
 04  5 21  1 13  0.0000000  0  5G20G16G11G25G 1
  20719830.292   -25780842.83843 -20042007.20942  20719829.939    20719826.276
  23339437.688    -2808648.90943  -1917070.05142  23339437.818    23339437.033
  22945045.494   -12907328.91843  -9992494.46042  22945045.549    22945043.076
  21597667.095   -20076766.44643 -15628209.16842  21597666.951    21597663.300
  21717181.788   -18592301.59143 -14472376.04142  21717181.490    21717179.141
 04  5 21  1 13 30.0000000  0  5G20G16G11G25G 1
  20710828.743   -25828146.28943 -20078867.02942  20710828.378    20710824.738
  23322405.707    -2898151.90243  -1986812.48842  23322405.796    23322405.008
  22960103.848   -12828197.27943  -9930833.51542  22960103.834    22960101.383
  21609788.225   -20013069.49443 -15578575.19642  21609788.105    21609784.452
  21707572.025   -18642800.96043 -14511726.17142  21707571.753    21707569.393
 04  5 21  1 14  0.0000000  0  5G20G16G11G25G 1
  20701905.049   -25875040.68443 -20115408.10442  20701904.684    20701901.033
  23305407.795    -2987475.78943  -2056415.36742  23305407.886    23305407.056
  22975205.448   -12748838.04943  -9868995.22742  22975205.447    22975203.047
  21621966.016   -19949074.84243 -15528709.25342  21621965.888    21621962.247
  21697993.843   -18693134.43843 -14550947.03742  21697993.564    21697991.233
 04  5 21  1 14 30.0000000  0  5G20G16G11G25G 1
  20693061.377   -25921514.34843 -20151621.33742  20693061.041    20693057.376
  23288446.423    -3076607.53143  -2125868.52542  23288446.522    23288445.679
  22990351.643   -12669244.55243  -9806974.38642  22990351.646    22990349.273
  21634201.877   -19884775.05343 -15478605.53542  21634201.752    21634198.101
  21688449.093   -18743292.22443 -14590030.99742  21688448.815    21688446.464
 04  5 21  1 15  0.0000000  0  5G20G16G11G25G 1
  20684297.223   -25967570.24843 -20187509.04142  20684296.870    20684293.229
  23271521.260    -3165549.11343  -2195173.50342  23271521.346    23271520.531
  23005540.985   -12589424.22843  -9744776.80442  23005541.013    23005538.661
  21646494.472   -19820177.18043 -15428269.54742  21646494.338    21646490.678
  21678936.863   -18793279.20843 -14628981.86942  21678936.593    21678934.205
 04  5 21  1 15 30.0000000  0  5G20G16G11G25G 1
  20675612.471   -26013208.90743 -20223071.62442  20675612.111    20675608.490
  23254632.355    -3254300.27543  -2264330.10442  23254632.366    23254631.572
  23020772.393   -12509382.82543  -9682406.94742  23020772.440    23020770.114
  21658842.890   -19755285.87143 -15377704.90842  21658842.732    21658839.102
  21669456.659   -18843098.11043 -14667801.76542  21669456.364    21669453.939
 04  5 21  1 16  0.0000000  0  5G20G16G11G25G 1
  20667008.763   -26058421.67843 -20258302.34842  20667008.408    20667004.771
  23237781.619    -3342850.79443  -2333330.36942  23237781.674    23237780.827
  23036046.646   -12429116.20143  -9619861.60342  23036046.708    23036044.404
  21671248.050   -19690096.37743 -15326907.91642  21671247.882    21671244.257
  21660009.676   -18892742.08443 -14706485.35142  21660009.431    21660006.982
 04  5 21  1 16 30.0000000  0  5G20G16G11G25G 1
  20658485.806   -26103210.03543 -20293202.36042  20658485.453    20658481.831
  23220969.056    -3431201.32443  -2402174.81242  23220969.063    23220968.178
  23051362.521   -12348630.82043  -9557145.79242  23051362.606    23051360.334
  21683708.795   -19624614.68843 -15275883.24142  21683708.633    21683705.042
  21650595.331   -18942214.55343 -14745035.29242  21650595.100    21650592.647
 04  5 21  1 17  0.0000000  0  5G20G16G11G25G 1
  20650044.206   -26147570.91543 -20327769.27442  20650043.826    20650040.220
  23204195.248    -3519347.93843  -2470860.35042  23204195.220    23204194.282
  23066719.702   -12267928.49143  -9494260.93042  23066719.768    23066717.552
  21696224.912   -19558842.09243 -15224631.88742  21696224.753    21696221.155
  21641213.779   -18991514.70643 -14783450.96142  21641213.552    21641211.124
 04  5 21  1 17 30.0000000  0  5G20G16G11G25G 1
  20641684.165   -26191503.25843 -20362002.25942  20641683.754    20641680.174
  23187460.697    -3607287.90643  -2539384.86042  23187460.682    23187459.705
  23082117.516   -12187012.74743  -9431209.78342  23082117.534    23082115.382
  21708795.927   -19492781.14743 -15173155.84442  21708795.733    21708792.149
  21631864.905   -19040643.15943 -14821732.84142  21631864.696    21631862.261
 04  5 21  1 18  0.0000000  0  5G20G16G11G25G 1
  20633405.740   -26235006.56143 -20395900.93042  20633405.336    20633401.772
  23170765.748    -3695020.04143  -2607747.44342  23170765.734    23170764.687
  23097554.959   -12105888.50643  -9367996.14942  23097555.010    23097552.895
  21721421.132   -19426435.35743 -15121457.84042  21721420.941    21721417.327
  21622548.377   -19089601.65343 -14859882.28142  21622548.172    21622545.757
 04  5 21  1 18 30.0000000  0  5G20G16G11G25G 1
  20625210.247   -26278074.20243 -20429460.12342  20625209.841    20625206.258
  23154111.836    -3782536.46243  -2675941.92642  23154111.815    23154110.724
  23113032.560   -12024553.51443  -9304618.30842  23113032.595    23113030.511
  21734101.054   -19359801.98343 -15069535.75142  21734100.886    21734097.245
  21613265.155   -19138385.17443 -14897895.38442  21613264.942    21613262.524
 04  5 21  1 19  0.0000000  0  5G20G16G11G25G 1
  20617096.561   -26320711.79343 -20462684.20942  20617096.156    20617092.565
  23137498.089    -3869841.58243  -2743971.76642  23137498.142    23137497.018
  23128548.296   -11943018.17543  -9241084.33842  23128548.350    23128546.276
  21746833.774   -19292891.10243 -15017397.42042  21746833.622    21746829.985
  21604013.762   -19187001.31343 -14935778.05342  21604013.575    21604011.129
 04  5 21  1 19 30.0000000  0  5G20G16G11G25G 1
  20609066.823   -26362908.35343 -20495564.63342  20609066.409    20609062.810
  23120926.948    -3956923.08243  -2811827.36142  23120927.020    23120925.825
  23144103.333   -11861276.27943  -9177389.42842  23144103.353    23144101.324
  21759620.653   -19225695.67943 -14965037.36742  21759620.508    21759616.877
  21594795.955   -19235441.03343 -14973523.25542  21594795.772    21594793.319
 04  5 21  1 20  0.0000000  0  5G20G16G11G25G 1
  20601120.187   -26404668.10443 -20528104.69342  20601119.778    20601116.175
  23104397.766    -4043784.44443  -2879511.42042  23104397.807    23104396.454
  23159695.937   -11779336.98243  -9113540.69742  23159695.935    23159693.950
  21772460.088   -19158224.13143 -14912462.15342  21772459.928    21772456.331
  21585610.571   -19283710.54543 -15011135.83242  21585610.372    21585607.894
 04  5 21  1 20 30.0000000  0  5G20G16G11G25G 1
  20593257.000   -26445989.37843 -20560303.07642  20593256.602    20593252.999
  23087911.020    -4130422.56043  -2947021.52242  23087911.009    23087909.672
  23175325.443   -11697203.39143  -9049540.55442  23175325.504    23175323.535
  21785351.616   -19090478.71843 -14859673.53742  21785351.460    21785347.886
  21576457.551   -19331809.92343 -15048615.83042  21576457.339    21576454.866
 04  5 21  1 21  0.0000000  0  5G20G16G11G25G 1
  20585478.617   -26486865.03743 -20592154.23142  20585478.222    20585474.618
  23071468.270    -4216829.32143  -3014351.35142  23071468.253    23071466.881
  23190992.481   -11614873.17643  -8985387.21642  23190992.468    23190990.483
  21798295.872   -19022456.39943 -14806669.15342  21798295.698    21798292.133
  21567337.865   -19379733.97943 -15085959.21742  21567337.656    21567335.172
 04  5 21  1 21 30.0000000  0  5G20G16G11G25G 1
  20577784.977   -26527295.33743 -20623658.35442  20577784.602    20577780.985
  23055069.682    -4303003.77743  -3081500.15842  23055069.701    23055068.317
  23206695.958   -11532351.38543  -8921084.58442  23206695.916    23206693.903
  21811292.008   -18954161.17743 -14753452.11842  21811291.846    21811288.318
  21558251.150   -19427484.72343 -15123167.55642  21558250.964    21558248.487
 04  5 21  1 22  0.0000000  0  5G20G16G11G25G 1
  20570175.377   -26567283.99643 -20654818.34242  20570175.000    20570171.380
  23038714.917    -4388948.30743  -3148469.81242  23038714.958    23038713.469
  23222434.277   -11449646.31643  -8856639.13842  23222434.223    23222432.265
  21824338.628   -18885600.76343 -14700028.44442  21824338.459    21824334.950
  21549196.441   -19475067.60643 -15160245.09942  21549196.219    21549193.707
 04  5 21  1 22 30.0000000  0  5G20G16G11G25G 1
  20562651.510   -26606822.24543 -20685627.35742  20562651.124    20562647.499
  23022405.729    -4474653.16743  -3215252.70242  23022405.805    23022404.250
  23238208.172   -11366754.09443  -8792047.87242  23238208.111    23238206.237
  21837436.574   -18816770.65743 -14646394.62042  21837436.390    21837432.888
  21540174.946   -19522475.93243 -15197186.62242  21540174.733    21540172.155
 04  5 21  1 23  0.0000000  0  5G20G16G11G25G 1
  20555213.232   -26645910.58443 -20716085.79442  20555212.869    20555209.217
  23006142.286    -4560117.49143  -3281848.16542  23006142.324    23006140.798
  23254016.688   -11283679.86943  -8727314.77442  23254016.632    23254014.844
  21850584.970   -18747675.42543 -14592554.20642  21850584.792    21850581.308
  21531186.198   -19569711.95943 -15233993.88842  21531185.996    21531183.410
 04  5 21  1 23 30.0000000  0  5G20G16G11G25G 1
  20547861.159   -26684545.97043 -20746191.28142  20547860.792    20547857.128
  22989925.401    -4645337.13843  -3348252.96942  22989925.387    22989923.926
  23269859.420   -11200425.73943  -8662441.49342  23269859.391    23269857.640
  21863783.693   -18678315.75343 -14538507.73442  21863783.513    21863780.036
  21522230.440   -19616774.61043 -15270666.05642  21522230.253    21522227.638
 04  5 21  1 24  0.0000000  0  5G20G16G11G25G 1
  20540594.909   -26722730.29743 -20775945.29142  20540594.554    20540590.874
  22973755.046    -4730312.50443  -3414467.43942  22973755.008    22973753.540
  23285735.261   -11116997.79743  -8597432.77842  23285735.277    23285733.479
  21877031.635   -18608697.44143 -14484259.72342  21877031.457    21877027.961
  21513307.075   -19663667.25743 -15307205.75742  21513306.856    21513304.215
 04  5 21  1 24 30.0000000  0  5G20G16G11G25G 1
  20533415.789   -26760456.77643 -20805342.53742  20533415.428    20533411.748
  22957632.644    -4815036.08843  -3480485.70942  22957632.569    22957631.044
  23301644.454   -11033394.53443  -8532287.45042  23301644.480    23301642.706
  21890329.274   -18538817.98843 -14429808.22642  21890329.108    21890325.610
  21504416.939   -19710385.13343 -15343609.26942  21504416.728    21504414.076
 04  5 21  1 25  0.0000000  0  5G20G16G11G25G 1
  20526323.721   -26797725.74243 -20834383.28342  20526323.359    20526319.681
  22941558.365    -4899506.77843  -3546306.92842  22941558.272    22941556.665
  23317586.222   -10949620.59443  -8467009.12642  23317586.156    23317584.445
  21903675.867   -18468681.30143 -14375156.29442  21903675.684    21903672.199
  21495559.676   -19756930.28543 -15379878.19742  21495559.474    21495556.800
 04  5 21  1 25 30.0000000  0  5G20G16G11G25G 1
  20519318.771   -26834536.95243 -20863067.33242  20519318.403    20519314.730
  22925532.459    -4983722.88043  -3611929.75942  22925532.368    22925530.789
  23333559.613   -10865680.46643  -8401601.31042  23333559.493    23333557.787
  21917070.650   -18398291.24343 -14320306.92842  21917070.471    21917066.986
  21486734.998   -19803304.17843 -15416013.67842  21486734.811    21486732.128
 04  5 21  1 26  0.0000000  0  5G20G16G11G25G 1
  20512401.800   -26870885.84343 -20891391.13742  20512401.425    20512397.743
  22909556.056    -5067679.03143  -3677350.03042  22909555.971    22909554.327
  23349564.536   -10781574.47843  -8336064.25442  23349564.420    23349562.644
  21930513.818   -18327647.08743 -14265259.56642  21930513.620    21930510.158
  21477943.493   -19849503.95543 -15452013.49042  21477943.277    21477940.589
 04  5 21  1 26 30.0000000  0  5G20G16G11G25G 1
  20505573.073   -26906771.15543 -20919353.70642  20505572.690    20505568.974
  22893629.655    -5151372.48743  -3742565.61142  22893629.566    22893627.875
  23365600.423   -10697305.75343  -8270400.38842  23365600.280    23365598.529
  21944004.810   -18256751.57743 -14210016.34142  21944004.599    21944001.141
  21469185.000   -19895530.06043 -15487877.96642  21469184.781    21469182.076
 04  5 21  1 27  0.0000000  0  5G20G16G11G25G 1
  20498832.345   -26942193.82843 -20946955.78042  20498831.985    20498828.237
  22877753.263    -5234802.97243  -3807576.27242  22877753.195    22877751.494
  23381666.122   -10612880.08943  -8204614.23742  23381666.045    23381664.226
  21957542.727   -18185609.51743 -14154581.00542  21957542.511    21957539.046
  21460459.032   -19941385.24643 -15523609.25542  21460458.822    21460456.110
 04  5 21  1 27 30.0000000  0  6G20G16G11G13G25G 1
  20492176.616   -26977169.94543 -20974209.89142  20492176.268    20492172.490
  22861924.079    -5317985.33443  -3872393.59742  22861923.981    22861922.328
  23397757.770   -10528318.21543  -8138721.94242  23397757.712    23397755.840
  24641950.914    -6026133.41953  -4661584.48252  24641951.600    24641951.073
  21971123.723   -18114241.04343 -14098969.24042  21971123.486    21971120.022
  21451762.202   -19987087.26443 -15559221.20242  21451761.992    21451759.281
 04  5 21  1 28  0.0000000  0  6G20G16G11G13G25G 1
  20485614.700   -27011653.08443 -21001079.86442  20485614.342    20485610.566
  22846151.201    -5400871.88043  -3936980.41142  22846151.087    22846149.477
  23413883.312   -10443578.53643  -8072691.09642  23413883.196    23413881.315
  24626286.287    -6108451.50143  -4725728.34842  24626287.019    24626286.278
  21984755.965   -18042603.28543 -14043147.64742  21984755.732    21984752.273
  21443103.067   -20032591.29643 -15594678.87442  21443102.850    21443100.153
 04  5 21  1 28 30.0000000  0  6G20G16G11G13G25G 1
  20479141.483   -27045670.03843 -21027586.57442  20479141.112    20479137.335
  22830429.764    -5483488.14143  -4001356.63142  22830429.635    22830427.999
  23430036.723   -10358692.10943  -8006545.91942  23430036.627    23430034.733
  24610629.287    -6190728.89443  -4789840.47742  24610629.885    24610629.243
  21998433.612   -17970726.83343 -13987140.05542  21998433.405    21998429.937
  21434476.162   -20077925.93843 -15630004.55042  21434475.929    21434473.240
 04  5 21  1 29  0.0000000  0  6G20G16G11G13G25G 1
  20472758.593   -27079212.45243 -21053723.51842  20472758.219    20472754.417
  22814761.512    -5565824.64843  -4065514.84942  22814761.421    22814759.804
  23446218.742   -10273655.37743  -7940283.61042  23446218.646    23446216.763
  24594981.203    -6272959.01043  -4853915.75042  24594981.874    24594981.205
  22012157.549   -17898607.31043 -13930943.06442  22012157.305    22012153.867
  21425882.758   -20123084.54243 -15665193.05542  21425882.518    21425879.819
 04  5 21  1 29 30.0000000  0  6G20G16G11G13G25G 1
  20466465.348   -27112283.72443 -21079493.33642  20466464.984    20466461.170
  22799146.141    -5647883.40443  -4129456.64242  22799146.067    22799144.415
  23462427.836   -10188476.32343  -7873910.40242  23462427.810    23462425.838
  24579341.210    -6355146.94943  -4917958.18042  24579341.880    24579341.158
  22025926.296   -17826252.18043 -13874562.47642  22025926.067    22025922.628
  21417321.878   -20168072.08343 -15700248.25942  21417321.643    21417318.950
 04  5 21  1 30  0.0000000  0  6G20G16G11G13G25G 1
  20460262.909   -27144877.83243 -21104891.34042  20460262.530    20460258.716
  22783585.005    -5729657.10343  -4193176.31942  22783584.936    22783583.300
  23478664.315   -10103153.49443  -7807425.16742  23478664.340    23478662.305
  24563710.157    -6437288.46043  -4981964.46542  24563710.794    24563709.872
  22039740.374   -17753658.94843 -13817996.35942  22039740.136    22039736.688
  21408794.423   -20212884.23243 -15735166.80242  21408794.160    21408791.456
 04  5 21  1 30 30.0000000  0  6G20G16G11G13G25G 1
  20454151.463   -27176993.68143 -21129916.67342  20454151.073    20454147.275
  22768078.668    -5811143.15943  -4256671.86142  22768078.552    22768076.900
  23494927.435   -10017690.70643  -7740830.86742  23494927.396    23494925.391
  24548087.871    -6519383.67543  -5045934.64242  24548088.554    24548087.528
  22053599.210   -17680830.30843 -13761246.80042  22053599.011    22053595.543
  21400300.259   -20257521.35243 -15769948.95142  21400300.001    21400297.284
 04  5 21  1 31  0.0000000  0  6G20G16G11G13G25G 1
  20448130.647   -27208633.24543 -21154570.87842  20448130.272    20448126.471
  22752626.824    -5892342.59843  -4319944.06842  22752626.732    22752625.045
  23511215.962    -9932094.20243  -7674132.38342  23511215.930    23511213.881
  24532473.623    -6601435.96643  -5109871.36842  24532474.493    24532473.554
  22067501.798   -17607771.84843 -13704318.16842  22067501.621    22067498.154
  21391838.710   -20301987.00043 -15804597.48642  21391838.457    21391835.750
 04  5 21  1 31 30.0000000  0  6G20G16G11G13G25G 1
  20442201.935   -27239788.81643 -21178847.94542  20442201.550    20442197.758
  22737231.327    -5973246.20543  -4382985.76642  22737231.241    22737229.518
  23527530.556    -9846360.85143  -7607327.26542  23527530.509    23527528.476
  24516868.784    -6683439.48143  -5173770.12142  24516869.545    24516868.698
  22081448.859   -17534479.78143 -13647207.50642  22081448.664    22081445.209
  21383410.934   -20346275.23043 -15839107.77542  21383410.672    21383407.972
 04  5 21  1 32  0.0000000  0  6G20G16G11G13G25G 1
  20436364.430   -27270465.12943 -21202751.56542  20436364.043    20436360.259
  22721891.493    -6053857.33643  -4445799.55842  22721891.444    22721889.624
  23543869.406    -9760499.96943  -7540422.76442  23543869.284    23543867.322
  24501272.047    -6765400.60443  -5237635.81842  24501272.912    24501271.973
  22095438.715   -17460962.79143 -13589921.57042  22095438.535    22095435.071
  21375015.689   -20390392.35043 -15873484.73042  21375015.459    21375012.734
 04  5 21  1 32 30.0000000  0  6G20G16G11G13G25G 1
  20430619.049   -27300657.31243 -21226277.94042  20430618.659    20430614.873
  22706608.496    -6134169.92443  -4508380.72042  22706608.433    22706606.526
  23560232.619    -9674511.24043  -7473418.65642  23560232.509    23560230.594
  24485684.011    -6847315.92743  -5301465.82942  24485684.788    24485684.008
  22109471.609   -17387219.69143 -13532459.44842  22109471.409    22109467.964
  21366653.687   -20434334.95943 -15907725.70542  21366653.442    21366650.725
 04  5 21  1 33  0.0000000  0  6G20G16G11G13G25G 1
  20424966.333   -27330362.42243 -21249424.77742  20424965.941    20424962.181
  22691383.107    -6214179.69843  -4570725.93742  22691383.054    22691381.070
  23576619.788    -9588396.36243  -7406316.23542  23576619.729    23576617.824
  24470104.985    -6929184.10843  -5365259.12442  24470105.786    24470104.742
  22123547.288   -17313251.62143 -13474822.02742  22123547.091    22123543.672
  21358325.106   -20478101.86943 -15941829.77242  21358324.866    21358322.139
 04  5 21  1 33 30.0000000  0  6G20G16G11G13G25G 1
  20419406.648   -27359578.81943 -21272190.80242  20419406.245    20419402.485
  22676215.926    -6293883.65643  -4632832.84542  22676215.831    22676213.850
  23593030.440    -9502158.07443  -7339117.67942  23593030.373    23593028.512
  24454534.868    -7011004.85543  -5429015.43442  24454535.698    24454534.666
  22137665.471   -17239060.12443 -13417010.49742  22137665.258    22137661.878
  21350030.044   -20521692.64843 -15975796.59342  21350029.805    21350027.071
 04  5 21  1 34  0.0000000  0  6G20G16G11G13G25G 1
  20413939.936   -27388306.54043 -21294576.04042  20413939.529    20413935.768
  22661107.244    -6373280.40043  -4694700.36142  22661107.136    22661105.085
  23609463.679    -9415800.93443  -7271826.48142  23609463.616    23609461.803
  24438973.563    -7092779.71543  -5492736.01942  24438974.313    24438973.246
  22151825.553   -17164648.63043 -13359027.54442  22151825.303    22151821.954
  21341768.200   -20565108.81843 -16009627.35942  21341767.955    21341765.225
 04  5 21  1 34 30.0000000  0  6G20G16G11G13G25G 1
  20408566.150   -27416545.97243 -21316580.79342  20408565.762    20408561.999
  22646057.215    -6452368.92743  -4756327.71242  22646057.081    22646055.006
  23625918.637    -9329329.66043  -7204446.38442  23625918.623    23625916.883
  24423420.641    -7174510.30443  -5556422.09542  24423421.367    24423420.339
  22166026.637   -17090021.45443 -13300876.52442  22166026.418    22166023.071
  21333539.224   -20608352.27243 -16043323.53542  21333538.999    21333536.249
 04  5 21  1 35  0.0000000  0  6G20G16G11G13G25G 1
  20403286.577   -27444290.31143 -21338199.76342  20403286.175    20403282.416
  22631067.270    -6531141.55343  -4817708.90242  22631067.096    22631064.988
  23642395.742    -9242742.16343  -7136975.69142  23642395.723    23642394.065
  24407877.157    -7256191.59043  -5620069.73742  24407877.857    24407876.840
  22180269.366   -17015175.50143 -13242555.03742  22180269.153    22180265.834
  21325344.087   -20651417.92643 -16076881.17042  21325343.864    21325341.074
 04  5 21  1 35 30.0000000  0  6G20G16G11G13G25G 1
  20398100.266   -27471544.47743 -21359436.77742  20398099.893    20398096.125
  22616136.789    -6609601.43943  -4878846.40142  22616136.629    22616134.488
  23658893.238    -9156047.75543  -7069421.70042  23658893.144    23658891.486
  24392341.859    -7337829.83843  -5683683.85642  24392342.471    24392341.609
  22194552.083   -16940119.31343 -13184069.73142  22194551.893    22194548.581
  21317181.578   -20694312.08443 -16110305.17242  21317181.358    21317178.575
 04  5 21  1 36  0.0000000  0  6G20G16G11G13G25G 1
  20393008.897   -27498299.94743 -21380285.19842  20393008.494    20393004.731
  22601267.776    -6687738.65643  -4939732.48342  22601267.555    22601265.346
  23675411.928    -9069242.07643  -7001781.00942  23675411.738    23675410.162
  24376816.101    -7419418.02743  -5747258.97042  24376816.746    24376815.823
  22208875.727   -16864848.02843 -13125416.81742  22208875.554    22208872.268
  21309053.078   -20737027.62543 -16143589.99742  21309052.843    21309050.056
 04  5 21  1 36 30.0000000  0  6G20G16G11G13G25G 1
  20388011.632   -27524560.84643 -21400748.23742  20388011.214    20388007.434
  22586459.576    -6765556.05243  -5000369.35042  22586459.332    22586457.137
  23691950.099    -8982333.86243  -6934060.42642  23691949.836    23691948.313
  24361298.806    -7500961.57643  -5810799.28342  24361299.432    24361298.653
  22223238.787   -16789369.68043 -13066602.55242  22223238.613    22223235.366
  21300957.516   -20779570.11143 -16176739.97242  21300957.300    21300954.475
 04  5 21  1 37  0.0000000  0  6G20G16G11G13G25G 1
  20383109.698   -27550320.60643 -21420820.78142  20383109.295    20383105.504
  22571713.751    -6843045.76043  -5060750.87242  22571713.494    22571711.266
  23708508.153    -8895320.90243  -6866258.20742  23708507.992    23708506.413
  24345790.952    -7582455.62743  -5874301.05842  24345791.687    24345790.641
  22237641.920   -16713680.99143 -13007624.38742  22237641.715    22237638.480
  21292895.887   -20821934.35643 -16209751.05942  21292895.636    21292892.808
 04  5 21  1 37 30.0000000  0  6G20G16G11G13G25G 1
  20378303.050   -27575579.70343 -21440503.20042  20378302.652    20378298.867
  22557030.461    -6920206.57643  -5120876.11842  22557030.247    22557027.993
  23725085.197    -8808208.29843  -6798378.35242  23725085.091    23725083.561
  24330292.195    -7663901.77843  -5937765.49442  24330292.871    24330291.917
  22252084.296   -16637785.90643 -12948485.39142  22252084.107    22252080.860
  21284867.779   -20864122.25943 -16242624.73842  21284867.538    21284864.713
 04  5 21  1 38  0.0000000  0  6G20G16G11G13G25G 1
  20373591.754   -27600337.80043 -21459795.23642  20373591.351    20373587.548
  22542410.078    -6997036.98143  -5180743.90442  22542409.856    22542407.573
  23741680.470    -8721000.00743  -6730423.93342  23741680.325    23741678.826
  24314802.390    -7745300.91143  -6001193.29242  24314803.040    24314802.080
  22266565.385   -16561687.59843 -12889188.04842  22266565.156    22266561.914
  21276873.105   -20906134.71943 -16275361.71142  21276872.835    21276869.990
 04  5 21  1 38 30.0000000  0  6G20G16G11G13G25G 1
  20368976.247   -27624592.49043 -21478694.99842  20368975.855    20368972.044
  22527853.266    -7073533.13743  -5240351.23142  22527853.036    22527850.770
  23758293.599    -8633697.64943  -6662396.22042  23758293.572    23758291.927
  24299321.769    -7826652.09243  -6064583.76742  24299322.435    24299321.314
  22281084.905   -16485387.23443 -12829733.24642  22281084.666    22281081.401
  21268912.006   -20947970.59743 -16307961.08442  21268911.721    21268908.862
 04  5 21  1 39  0.0000000  0  6G20G16G11G13G25G 1
  20364456.716   -27648342.95943 -21497201.86242  20364456.299    20364452.476
  22513360.486    -7149692.75243  -5299696.31542  22513360.239    22513358.007
  23774923.922    -8546305.09943  -6594298.23742  23774923.872    23774922.255
  24283850.063    -7907955.88743  -6127937.28142  24283850.777    24283849.556
  22295642.356   -16408887.42643 -12770123.04042  22295642.157    22295638.853
  21260984.382   -20989630.44643 -16340423.29042  21260984.093    21260981.224
 04  5 21  1 39 30.0000000  0  6G20G16G11G13G25G 1
  20360033.280   -27671588.34643 -21515315.15642  20360032.850    20360029.051
  22498932.142    -7225513.68443  -5358777.49142  22498931.901    22498929.711
  23791570.745    -8458825.80043  -6526132.65042  23791570.624    23791569.062
  24268387.403    -7989212.56943  -6191254.09442  24268388.006    24268386.959
  22310237.239   -16332190.94943 -12710359.58142  22310237.051    22310233.728
  21253090.168   -21031114.74143 -16372748.69642  21253089.870    21253087.031
 04  5 21  1 40  0.0000000  0  7G20G16G11G13G 4G25G 1
  20355707.110   -27694322.51043 -21533030.10042  20355706.707    20355702.906
  22484569.718    -7300988.31743  -5417588.83542  22484569.488    22484567.292
  23808234.479    -8371257.76343  -6457897.92342  23808234.359    23808232.897
  24252934.521    -8070417.40243  -6254530.48642  24252935.148    24252934.067
  24785852.832    -3605466.63353  -2778047.36052  24785853.292    24785851.845
  22324870.063   -16255295.07343 -12650440.75342  22324869.888    22324866.556
  21245230.258   -21072418.73343 -16404933.61242  21245229.984    21245227.127
 04  5 21  1 40 30.0000000  0  7G20G16G11G13G 4G25G 1
  20351476.623   -27716553.79543 -21550353.18442  20351476.246    20351472.443
  22470271.930    -7376123.43443  -5476135.62442  22470271.711    22470269.459
  23824912.778    -8283613.41843  -6389603.73842  23824912.589    23824911.164
  24237489.750    -8151580.09543  -6317774.07342  24237490.400    24237489.066
  24775135.863    -3661784.88243  -2821931.68542  24775136.315    24775134.786
  22339538.642   -16178211.32343 -12590375.52242  22339538.469    22339535.122
  21237402.850   -21113551.96043 -16436985.46042  21237402.568    21237399.713
 04  5 21  1 41  0.0000000  0  7G20G16G11G13G 4G25G 1
  20347344.475   -27738268.33343 -21567273.60942  20347344.090    20347340.309
  22456041.647    -7450903.94943  -5534406.10142  22456041.415    22456039.157
  23841607.385    -8195883.51843  -6321242.89842  23841607.105    23841605.787
  24222055.282    -8232688.09343  -6380975.01342  24222055.974    24222054.657
  24764506.400    -3717642.82343  -2865457.31442  24764506.774    24764505.445
  22354244.850   -16100929.81643 -12530156.19742  22354244.684    22354241.300
  21229610.325   -21154501.87843 -16468894.47342  21229610.050    21229607.195
 04  5 21  1 41 30.0000000  0  7G20G16G11G13G 4G25G 1
  20343309.680   -27759471.28043 -21583795.38742  20343309.308    20343305.531
  22441878.139    -7525333.61643  -5592403.18842  22441877.901    22441875.599
  23858316.419    -8108077.27943  -6252822.56442  23858316.184    23858314.796
  24206630.044    -8313747.90343  -6444138.42242  24206630.758    24206629.427
  24753963.461    -3773046.01243  -2908628.59442  24753963.952    24753962.507
  22368987.103   -16023458.88543 -12469789.27242  22368986.934    22368983.544
  21221851.457   -21195274.85143 -16500665.60642  21221851.195    21221848.332
 04  5 21  1 42  0.0000000  0  7G20G16G11G13G 4G25G 1
  20339372.204   -27780162.88943 -21599918.71942  20339371.802    20339368.057
  22427781.660    -7599411.05643  -5650125.81542  22427781.421    22427779.092
  23875039.154    -8020199.36743  -6184346.38242  23875038.831    23875037.487
  24191213.752    -8394760.69343  -6507265.18542  24191214.509    24191213.115
  24743507.164    -3827993.79443  -2951445.01342  24743507.613    24743506.281
  22383764.754   -15945801.92543 -12409277.39242  22383764.554    22383761.199
  21214125.997   -21235872.32743 -16532299.99042  21214125.751    21214122.883
 04  5 21  1 42 30.0000000  0  7G20G16G11G13G 4G25G 1
  20335532.804   -27800339.15143 -21615640.48542  20335532.389    20335528.642
  22413753.270    -7673130.71643  -5707569.64842  22413753.039    22413750.631
  23891775.519    -7932249.74043  -6115814.32042  23891775.166    23891773.913
  24175806.811    -8475723.68243  -6570353.11642  24175807.687    24175806.381
  24733138.417    -3882482.36643  -2993903.59742  24733138.780    24733137.428
  22398577.918   -15867958.37043 -12348620.11042  22398577.714    22398574.365
  21206434.466   -21276291.44543 -16563795.39542  21206434.234    21206431.347
 04  5 21  1 43  0.0000000  0  7G20G16G11G13G 4G25G 1
  20331791.922   -27819997.65043 -21630958.79642  20331791.519    20331787.753
  22399793.654    -7746488.84643  -5764731.77142  22399793.438    22399790.963
  23908525.121    -7844230.18443  -6047227.76242  23908524.757    23908523.646
  24160409.818    -8556635.62043  -6633401.29242  24160410.541    24160409.278
  24722857.517    -3936508.81743  -3036002.09642  24722857.861    24722856.452
  22413426.364   -15789929.36443 -12287818.31542  22413426.136    22413422.823
  21198777.122   -21316530.97643 -16595150.86042  21198776.873    21198774.007
 04  5 21  1 43 30.0000000  0  7G20G16G11G13G 4G25G 1
  20328149.959   -27839136.37343 -21645872.08942  20328149.551    20328145.778
  22385903.472    -7819481.91943  -5821609.43042  22385903.278    22385900.788
  23925287.694    -7756143.08343  -5978588.58042  23925287.265    23925286.163
  24145022.538    -8637495.88943  -6696409.18742  24145023.298    24145021.976
  24712664.957    -3990071.05743  -3077738.87742  24712665.318    24712663.881
  22428309.824   -15711716.28243 -12226873.08742  22428309.619    22428306.336
  21191154.097   -21356590.07043 -16626365.72742  21191153.886    21191150.994
 04  5 21  1 44  0.0000000  0  7G20G16G11G13G 4G25G 1
  20324606.395   -27857757.92443 -21660382.39142  20324605.973    20324602.232
  22372082.548    -7892111.16243  -5878203.59042  22372082.348    22372079.829
  23942061.754    -7667994.91243  -5909901.80642  23942061.384    23942060.288
  24129644.391    -8718307.99543  -6759379.54342  24129645.169    24129643.803
  24702560.221    -4043171.02543  -3119115.43442  24702560.614    24702559.386
  22443227.262   -15633324.77743 -12165788.83342  22443227.048    22443223.766
  21183564.701   -21396472.56443 -16657442.98542  21183564.474    21183561.582
 04  5 21  1 44 30.0000000  0  7G20G16G11G13G 4G25G 1
  20321162.076   -27875857.89343 -21674486.26542  20321161.660    20321157.923
  22358331.994    -7964370.61543  -5934509.59942  22358331.789    22358329.240
  23958847.460    -7579785.63943  -5841167.42942  23958847.088    23958846.038
  24114276.187    -8799068.70443  -6822309.86942  24114276.948    24114275.361
  24692544.454    -4095804.40843  -3160128.42542  24692544.885    24692543.639
  22458178.857   -15554753.73943 -12104564.67242  22458178.632    22458175.381
  21176009.556   -21436175.13743 -16688380.04142  21176009.324    21176006.438
 04  5 21  1 45  0.0000000  0  7G20G16G11G13G 4G25G 1
  20317816.919   -27893436.92443 -21688184.21642  20317816.481    20317812.744
  22344652.001    -8036259.36243  -5990526.74442  22344651.788    22344649.210
  23975643.948    -7491520.00243  -5772389.13042  23975643.568    23975642.559
  24098917.242    -8879779.98843  -6885201.66342  24098918.063    24098916.411
  24682617.313    -4147971.70543  -3200778.23642  24682617.698    24682616.306
  22473163.880   -15476007.03043 -12043203.63342  22473163.676    22473160.399
  21168488.356   -21475699.40943 -16719178.16442  21168488.097    21168485.232
 04  5 21  1 45 30.0000000  0  7G20G16G11G13G 4G25G 1
  20314570.981   -27910494.44343 -21701475.79442  20314570.528    20314566.804
  22331042.926    -8107775.22443  -6046253.33642  22331042.762    22331040.136
  23992450.454    -7403201.15543  -5703569.37142  23992450.202    23992449.211
  24083567.788    -8960441.99143  -6948055.08942  24083568.534    24083566.854
  24672779.021    -4199671.77443  -3241063.97642  24672779.371    24672778.155
  22488181.870   -15397087.22643 -11981707.72042  22488181.626    22488178.382
  21161000.999   -21515045.78043 -16749837.66142  21161000.721    21160997.848
 04  5 21  1 46  0.0000000  0  7G20G16G11G13G 4G25G 1
  20311425.242   -27927025.51143 -21714357.14942  20311424.772    20311421.034
  22317505.990    -8178912.05343  -6101684.56642  22317505.796    22317503.190
  24009267.351    -7314828.50243  -5634707.68442  24009267.013    24009266.084
  24068228.299    -9041051.31143  -7010867.43242  24068228.995    24068227.297
  24663030.543    -4250899.71343  -3280981.81442  24663031.019    24663029.633
  22503233.055   -15317992.76243 -11920075.69842  22503232.840    22503229.587
  21153548.150   -21554210.77343 -16780355.82742  21153547.851    21153545.002
 04  5 21  1 46 30.0000000  0  7G20G16G11G13G 4G25G 1
  20308379.763   -27943029.58443 -21726827.85742  20308379.321    20308375.557
  22304041.627    -8249667.60743  -6156818.70342  22304041.417    22304038.827
  24026093.734    -7226405.70243  -5565806.93642  24026093.406    24026092.540
  24052898.823    -9121608.18043  -7073638.93742  24052899.498    24052897.669
  24653372.241    -4301654.74543  -3320531.14542  24653372.621    24653371.163
  22518316.909   -15238726.43243 -11858309.75142  22518316.745    22518313.489
  21146129.742   -21593194.66043 -16810732.86842  21146129.460    21146126.617
 04  5 21  1 47  0.0000000  0  7G20G16G11G13G 4G25G 1
  20305434.252   -27958508.44943 -21738889.31742  20305433.784    20305430.028
  22290649.747    -8320042.19743  -6211655.98542  22290649.562    22290646.921
  24042928.528    -7137938.31443  -5496871.42242  24042928.174    24042927.437
  24037578.731    -9202115.28343  -7136371.64842  24037579.401    24037577.639
  24643803.590    -4351938.06043  -3359712.91942  24643804.023    24643802.351
  22533432.556   -15159293.12143 -11796413.70642  22533432.414    22533429.191
  21138745.283   -21632000.10543 -16840970.86742  21138745.003    21138742.173
 04  5 21  1 47 30.0000000  0  7G20G16G11G13G 4G25G 1
  20302589.139   -27973459.71643 -21750539.65742  20302588.661    20302584.915
  22277331.063    -8390031.94543  -6266193.38642  22277330.919    22277328.237
  24059771.507    -7049428.12643  -5427902.56842  24059771.215    24059770.505
  24022268.392    -9282571.35943  -7199064.59542  24022269.048    24022267.264
  24634325.241    -4401747.23143  -3398525.22742  24634325.689    24634323.899
  22548579.862   -15079693.68643 -11734388.19842  22548579.700    22548576.486
  21131395.026   -21670625.86543 -16871068.84642  21131394.719    21131391.948
 04  5 21  1 48  0.0000000  0  7G20G16G11G13G 4G25G 1
  20299844.883   -27987880.86543 -21761776.92442  20299844.422    20299840.649
  22264086.377    -8459632.80743  -6320427.76442  22264086.251    22264083.561
  24076622.437    -6960876.46443  -5358901.40142  24076622.119    24076621.489
  24006968.029    -9362975.01243  -7261716.70442  24006968.654    24006966.912
  24624937.541    -4451079.54243  -3436965.95542  24624938.011    24624936.305
  22563758.789   -14999928.20643 -11672233.32242  22563758.594    22563755.399
  21124079.258   -21709070.32643 -16901025.55442  21124078.949    21124076.189
 04  5 21  1 48 30.0000000  0  7G20G16G11G13G 4G25G 1
  20297202.277   -28001767.86543 -21772597.96942  20297201.808    20297198.037
  22250916.796    -8528839.29643  -6374354.83642  22250916.679    22250913.967
  24093481.220    -6872283.44143  -5289868.00442  24093480.827    24093480.328
  23991678.159    -9443323.16843  -7324325.55742  23991678.840    23991677.060
  24615641.462    -4499930.91043  -3475031.91942  24615641.983    24615640.140
  22578969.327   -14919996.39143 -11609948.83042  22578969.143    22578965.931
  21116798.564   -21747330.54243 -16930838.69642  21116798.252    21116795.498
 04  5 21  1 49  0.0000000  0  7G20G16G11G13G 4G25G 1
  20294659.840   -28015128.39743 -21783008.77442  20294659.395    20294655.626
  22237821.094    -8597657.32943  -6427979.21142  22237820.969    22237818.269
  24110345.687    -6783660.46543  -5220811.26842  24110345.307    24110344.860
  23976397.343    -9523624.18743  -7386897.69342  23976397.959    23976396.207
  24606435.598    -4548308.28143  -3512728.53542  24606436.112    24606434.325
  22594209.542   -14839908.61843 -11547542.81142  22594209.343    22594206.141
  21109551.300   -21785415.00643 -16960514.88242  21109550.999    21109548.240
 04  5 21  1 49 30.0000000  0  7G20G16G11G13G 4G25G 1
  20292219.083   -28027954.60943 -21793003.23442  20292218.635    20292214.860
  22224801.090    -8666077.43943  -6481293.52742  22224800.994    22224798.279
  24127216.588    -6695003.63043  -5151728.15042  24127216.201    24127215.756
  23961126.721    -9603871.21243  -7449427.73042  23961127.392    23961125.673
  24597321.220    -4596204.02843  -3550049.84542  24597321.693    24597320.087
  22609480.352   -14759660.26743 -11485011.66842  22609480.130    22609476.917
  21102338.812   -21823316.67843 -16990048.63442  21102338.506    21102335.772
 04  5 21  1 50  0.0000000  0  7G20G16G11G13G 4G25G 1
  20289880.274   -28040245.10343 -21802580.24842  20289879.844    20289876.062
  22211857.386    -8734096.84543  -6534295.60942  22211857.264    22211854.519
  24144093.479    -6606315.41243  -5082620.58342  24144093.125    24144092.657
  23945866.497    -9684063.98843  -7511915.53642  23945867.056    23945865.272
  24588298.978    -4643616.27043  -3586994.42342  24588299.295    24588297.707
  22624781.460   -14679252.62343 -11422356.39742  22624781.194    22624777.987
  21095161.217   -21861035.08643 -17019439.58742  21095160.910    21095158.195
 04  5 21  1 50 30.0000000  0  7G20G16G11G13G 4G25G 1
  20287643.749   -28051998.06043 -21811738.40242  20287643.330    20287639.551
  22198990.587    -8801712.05143  -6586982.72442  22198990.448    22198987.673
  24160975.964    -6517598.08843  -5013490.33242  24160975.661    24160975.129
  23930616.677    -9764201.68143  -7574360.37842  23930617.325    23930615.557
  24579369.162    -4690542.99543  -3623560.66642  24579369.374    24579367.857
  22640112.552   -14598687.23043 -11359578.19742  22640112.317    22640109.118
  21088018.723   -21898569.17843 -17048686.91342  21088018.403    21088015.666
 04  5 21  1 51  0.0000000  0  7G20G16G11G13G 4G25G 1
  20285508.493   -28063218.85943 -21820481.89242  20285508.094    20285504.308
  22186199.914    -8868926.98343  -6639357.93742  22186199.786    22186197.026
  24177862.200    -6428860.65443  -4944344.41542  24177861.892    24177861.417
  23915376.345    -9844290.20843  -7636766.95342  23915376.910    23915375.063
  24570530.724    -4736989.36443  -3659752.61442  24570530.959    24570529.364
  22655472.101   -14517972.41643 -11296683.57242  22655471.818    22655468.648
  21080910.079   -21935925.19343 -17077795.47842  21080909.802    21080907.032
 04  5 21  1 51 30.0000000  0  7G20G16G11G13G 4G25G 1
  20283475.969   -28073899.83543 -21828804.73642  20283475.555    20283471.768
  22173487.199    -8935732.41743  -6691414.06542  22173487.072    22173484.324
  24194752.896    -6340099.67643  -4875180.15442  24194752.680    24194752.242
  23900146.509    -9924322.89043  -7699129.97142  23900147.144    23900145.284
  24561785.118    -4782947.54043  -3695564.13742  24561785.256    24561783.827
  22670860.897   -14437103.85643 -11233669.14942  22670860.630    22670857.501
  21073836.623   -21973096.43643 -17106760.06642  21073836.350    21073833.551
 04  5 21  1 52  0.0000000  0  7G20G16G11G13G 4G25G 1
  20281545.837   -28084042.77443 -21836708.33342  20281545.418    20281541.626
  22160852.373    -9002128.53843  -6743151.23842  22160852.237    22160849.505
  24211647.111    -6251320.42243  -4806001.66142  24211646.826    24211646.467
  23884926.952   -10004302.30043  -7761451.50042  23884927.494    23884925.635
  24553132.229    -4828418.87043  -3730996.30842  24553132.427    24553130.882
  22686278.236   -14356085.51543 -11170538.01742  22686277.942    22686274.813
  21066797.883   -22010085.30443 -17135582.54242  21066797.613    21066794.775
 04  5 21  1 52 30.0000000  0  7G20G16G11G13G 4G25G 1
  20279718.271   -28093646.65643 -21844191.88142  20279717.859    20279714.081
  22148295.967    -9068112.64343  -6794567.35242  22148295.820    22148293.116
  24228544.314    -6162525.57643  -4736811.00942  24228544.092    24228543.621
  23869717.530   -10084228.08343  -7823731.24842  23869718.092    23869716.228
  24544572.098    -4873402.17143  -3766048.20642  24544572.349    24544570.839
  22701723.635   -14274919.44343 -11107291.76442  22701723.384    22701720.270
  21059793.868   -22046891.55343 -17164262.71442  21059793.609    21059790.761
 04  5 21  1 53  0.0000000  0  7G20G16G11G13G 4G25G 1
  20277994.091   -28102707.38543 -21851252.19642  20277993.675    20277989.883
  22135819.064    -9133678.98943  -6845657.95242  22135818.893    22135816.157
  24245444.636    -6073714.80143  -4667607.94842  24245444.296    24245443.917
  23854518.910   -10164096.89143  -7885966.58642  23854519.456    23854517.587
  24536105.752    -4917893.01343  -3800716.36242  24536105.974    24536104.446
  22717197.360   -14193604.53243 -11043929.53342  22717197.145    22717194.019
  21052825.230   -22083511.89443 -17192798.02742  21052824.990    21052822.128
 04  5 21  1 53 30.0000000  0  7G20G16G11G13G 4G25G 1
  20276372.502   -28111229.05243 -21857892.46742  20276372.060    20276368.259
  22123421.180    -9198830.18143  -6896425.05542  22123421.003    22123418.248
  24262346.418    -5984896.10843  -4598398.71242  24262346.126    24262345.650
  23839330.205   -10243913.62843  -7948161.35942  23839330.755    23839328.849
  24527732.306    -4961895.44243  -3835003.95242  24527732.503    24527730.967
  22732698.119   -14112147.54643 -10980456.59642  22732697.930    22732694.796
  21045891.071   -22119951.02843 -17221192.14042  21045890.824    21045887.984
 04  5 21  1 54  0.0000000  0  7G20G16G11G13G 4G25G 1
  20274854.482   -28119206.29443 -21864108.50342  20274854.050    20274850.259
  22111103.577    -9263559.45343  -6946863.37842  22111103.364    22111100.621
  24279250.008    -5896067.73043  -4529181.92942  24279249.689    24279249.251
  23824152.201   -10323674.06543  -8010312.24742  23824152.759    23824150.858
  24519452.985    -5005403.63043  -3868906.42342  24519453.194    24519451.519
  22748226.336   -14030546.33343 -10916871.27242  22748226.112    22748223.036
  21038992.242   -22156204.53843 -17249441.60842  21038991.968    21038989.142
 04  5 21  1 54 30.0000000  0  7G20G16G11G13G 4G25G 1
  20273439.953   -28126639.67543 -21869900.75442  20273439.506    20273435.739
  22098866.472    -9327865.57043  -6996971.96842  22098866.260    22098863.514
  24296154.595    -5807234.09643  -4459961.05242  24296154.287    24296153.908
  23808984.708   -10403379.36743  -8072420.18942  23808985.353    23808983.271
  24511267.509    -5048418.14443  -3902424.21242  24511267.790    24511266.142
  22763781.389   -13948804.03843 -10853176.02342  22763781.175    22763778.120
  21032128.515   -22192273.55143 -17277547.31342  21032128.239    21032125.413
 04  5 21  1 55  0.0000000  0  7G20G16G11G13G 4G25G 1
  20272128.535   -28133531.17643 -21875270.76242  20272128.076    20272124.337
  22086709.904    -9391748.63743  -7046750.92442  22086709.652    22086706.899
  24313059.172    -5718400.46343  -4390740.17642  24313058.994    24313058.531
  23793827.313   -10483031.62943  -8134486.77442  23793827.960    23793825.950
  24503175.977    -5090940.47543  -3935558.48442  24503176.132    24503174.371
  22779362.380   -13866925.51943 -10789374.62142  22779362.164    22779359.116
  21025299.510   -22228160.27643 -17305510.97642  21025299.221    21025296.372
 04  5 21  1 55 30.0000000  0  7G20G16G11G13G 4G25G 1
  20270922.112   -28139870.96543 -21880210.86442  20270921.651    20270917.941
  22074635.913    -9455197.47443  -7096191.51642  22074635.682    22074632.906
  24329964.860    -5629560.93743  -4321514.70842  24329964.583    24329964.344
  23778681.649   -10562622.07243  -8196505.20942  23778682.302    23778680.276
  24495179.750    -5132960.55143  -3968301.36042  24495180.001    24495178.206
  22794970.596   -13784904.01543 -10725461.79842  22794970.347    22794967.351
  21018506.818   -22263855.99943 -17333325.80342  21018506.540    21018503.688
 04  5 21  1 56  0.0000000  0  7G20G16G11G13G 4G25G 1
  20269819.097   -28145667.32343 -21884727.51442  20269818.646    20269814.939
  22062643.275    -9518218.83343  -7145299.00542  22062643.076    22062640.319
  24346869.392    -5540727.59443  -4252294.05942  24346869.110    24346868.938
  23763546.124   -10642159.82943  -8258482.59042  23763546.705    23763544.645
  24487277.535    -5174486.91143  -4000659.55542  24487277.728    24487276.015
  22810603.982   -13702750.25143 -10661445.91842  22810603.716    22810600.744
  21011748.814   -22299369.55543 -17360998.68342  21011748.525    21011745.668
 04  5 21  1 56 30.0000000  0  7G20G16G11G13G 4G25G 1
  20268820.271   -28150916.27743 -21888817.61942  20268819.817    20268816.123
  22050733.138    -9580806.85043  -7194068.83142  22050732.939    22050730.169
  24363772.886    -5451899.86843  -4183077.79442  24363772.518    24363772.379
  23748421.176   -10721641.28743  -8320416.09842  23748421.823    23748419.767
  24479470.121    -5215514.57243  -4032629.14142  24479470.338    24479468.733
  22826262.779   -13620462.75643 -10597325.83542  22826262.535    22826259.563
  21005026.125   -22334697.47243 -17388526.91542  21005025.839    21005022.959
 04  5 21  1 57  0.0000000  0  7G20G16G11G13G 4G25G 1
  20267925.871   -28155616.29843 -21892479.97742  20267925.440    20267921.744
  22038906.016    -9642958.40143  -7242498.55042  22038905.840    22038903.072
  24380674.883    -5363079.67843  -4113867.39142  24380674.598    24380674.389
  23733307.170   -10801065.64143  -8382305.10742  23733307.737    23733305.735
  24471758.011    -5256042.39343  -4064209.24142  24471758.211    24471756.512
  22841946.791   -13538042.66843 -10533102.42542  22841946.551    22841943.627
  20998338.923   -22369838.88543 -17415909.81342  20998338.636    20998335.747
 04  5 21  1 57 30.0000000  0  7G20G16G11G13G 4G25G 1
  20267136.164   -28159766.34443 -21895713.78842  20267135.731    20267132.018
  22027162.500    -9704670.77743  -7290586.06842  22027162.321    22027159.536
  24397574.987    -5274269.59643  -4044664.86842  24397574.697    24397574.477
  23718204.162   -10880432.13443  -8444149.03842  23718204.745    23718202.637
  24464141.256    -5296068.80043  -4095398.62542  24464141.471    24464139.783
  22857655.751   -13455491.58743 -10468776.94442  22857655.500    22857652.644
  20991687.383   -22404792.86243 -17443146.65542  20991687.107    20991684.200
 04  5 21  1 58  0.0000000  0  7G20G16G11G13G 4G25G 1
  20266451.212   -28163365.86443 -21898518.61242  20266450.763    20266447.058
  22015503.025    -9765941.78843  -7338329.66242  22015502.804    22015500.023
  24414472.612    -5185472.53543  -3975472.47942  24414472.389    24414472.142
  23703112.091   -10959740.99543  -8505948.05942  23703112.750    23703110.537
  24456620.091    -5335592.88943  -4126196.59542  24456620.284    24456618.493
  22873389.190   -13372811.81743 -10404351.19242  22873388.966    22873386.123
  20985071.466   -22439559.60543 -17470237.60142  20985071.188    20985068.295
 04  5 21  1 58 30.0000000  0  7G20G16G11G13G 4G25G 1
  20265870.983   -28166414.98243 -21900894.55242  20265870.548    20265866.857
  22003927.753    -9826770.22543  -7385728.39342  22003927.527    22003924.683
  24431367.031    -5096692.33143  -3906293.23542  24431366.809    24431366.619
  23688030.831   -11038992.89543  -8567702.69142  23688031.517    23688029.267
  24449194.416    -5374614.91943  -4156603.34142  24449194.596    24449192.791
  22889146.599   -13290006.11743 -10339827.31242  22889146.347    22889143.573
  20978490.995   -22474139.99043 -17497183.33342  20978490.737    20978487.840
 04  5 21  1 59  0.0000000  0  7G20G16G11G13G 4G25G 1
  20265395.605   -28168913.20643 -21902841.22842  20265395.155    20265391.468
  21992437.137    -9887153.52943  -7432780.26442  21992436.935    21992434.070
  24448257.781    -5007931.72843  -3837129.27442  24448257.457    24448257.288
  23672960.499   -11118187.67943  -8629412.82342  23672961.143    23672958.904
  24441864.472    -5413133.64743  -4186617.90242  24441864.679    24441862.915
  22904927.660   -13207076.21743 -10275206.64942  22904927.394    22904924.638
  20971946.039   -22508533.74043 -17523983.63642  20971945.785    20971942.926
 04  5 21  1 59 30.0000000  0  7G20G16G11G13G 4G25G 1
  20265025.313   -28170859.08143 -21904357.50242  20265024.881    20265021.179
  21981031.772    -9947088.94843  -7479483.12042  21981031.556    21981028.684
  24465144.268    -4919192.86543  -3767982.23242  24465143.982    24465143.902
  23657901.094   -11197324.68543  -8691077.92442  23657901.713    23657899.507
  24434630.655    -5451147.70543  -4216239.22742  24434630.894    24434629.103
  22920732.106   -13124023.33643 -10210490.16142  22920731.873    22920729.091
  20965436.768   -22542740.00443 -17550637.84642  20965436.513    20965433.683
 04  5 21  2  0  0.0000000  0  7G20G16G11G13G 4G25G 1
  20264760.507   -28172250.75343 -21905441.93242  20264760.064    20264756.351
  21969712.394   -10006572.55543  -7525833.91942  21969712.167    21969709.288
  24482026.348    -4830477.47343  -3698853.50842  24482026.043    24482026.116
  23642853.133   -11276402.10743  -8752696.60542  23642853.766    23642851.480
  24427493.275    -5488654.77743  -4245465.49642  24427493.526    24427491.792
  22936559.788   -13040848.44443 -10145678.59942  22936559.550    22936556.785
  20958963.523   -22576757.07843 -17577144.63742  20958963.231    20958960.439
 04  5 21  2  0 30.0000000  0  7G20G16G11G13G 4G25G 1
  20264601.788   -28173084.91143 -21906091.93242  20264601.315    20264597.619
  21958479.842   -10065599.60943  -7571828.96442  21958479.653    21958476.730
  24498903.998    -4741785.29843  -3629742.87742  24498903.795    24498903.782
  23627816.949   -11355417.29743  -8814266.77142  23627817.607    23627815.316
  24420452.892    -5525651.71643  -4274294.25142  24420453.179    24420451.467
  22952410.791   -12957550.99643 -10080771.53542  22952410.572    22952407.821
  20952526.811   -22610582.18943 -17603501.85242  20952526.529    20952523.708
 04  5 21  2  1  0.0000000  0  7G20G16G11G13G 4G25G 1
  20264548.378   -28173365.50943 -21906310.58742  20264547.907    20264544.234
  21947333.805   -10124172.22543  -7617469.90542  21947333.596    21947330.666
  24515775.997    -4653123.48243  -3560655.89342  24515775.771    24515775.672
  23612791.856   -11434374.47043  -8875791.76942  23612792.486    23612790.174
  24413509.039    -5562141.97943  -4302728.20542  24413509.324    24413507.447
  22968283.971   -12874136.96343 -10015773.63242  22968283.788    22968281.022
  20946125.876   -22644219.34643 -17629712.60942  20946125.584    20946122.747
 04  5 21  2  1 30.0000000  0  7G20G16G11G13G 4G25G 1
  20264600.482   -28173091.76343 -21906097.28742  20264600.005    20264596.337
  21936274.717   -10182288.00343  -7662754.87442  21936274.461    21936271.533
  24532641.583    -4564494.72443  -3491594.66442  24532641.367    24532641.356
  23597777.781   -11513273.31243  -8937271.27342  23597778.395    23597776.123
  24406661.769    -5598124.61843  -4330766.61642  24406662.064    24406660.181
  22984179.030   -12790608.04043  -9950686.19442  22984178.821    22984176.095
  20939760.720   -22677668.34643 -17655776.75142  20939760.443    20939757.587
 04  5 21  2  2  0.0000000  0  7G20G16G11G13G 4G25G 1
  20264758.485   -28172261.39343 -21905450.24942  20264758.009    20264754.363
  21925303.301   -10239943.03443  -7707680.82042  21925303.031    21925300.074
  24549500.616    -4475900.11343  -3422560.04542  24549500.486    24549500.507
  23582775.261   -11592112.00643  -8998703.96042  23582775.889    23582773.453
  24399911.523    -5633597.00443  -4358407.41742  24399911.763    24399909.996
  23000096.005   -12706964.18543  -9885509.21442  23000095.764    23000093.045
  20933431.786   -22710927.11043 -17681692.65542  20933431.492    20933428.623
 04  5 21  2  2 30.0000000  0  7G20G16G11G13G 4G25G 1
  20265022.685   -28170873.06243 -21904368.44342  20265022.210    20265018.568
  21914420.137   -10297134.24643  -7752245.35742  21914419.881    21914416.879
  24566352.744    -4387342.08043  -3353553.92442  24566352.555    24566352.717
  23567784.352   -11670889.43843  -9060088.86242  23567784.992    23567782.587
  24393258.774    -5668557.55943  -4385649.38842  24393259.087    24393257.299
  23016034.648   -12623206.51243  -9820243.53842  23016034.374    23016031.612
  20927139.196   -22743994.83243 -17707459.70342  20927138.910    20927136.011
 04  5 21  2  3  0.0000000  0  7G20G16G11G13G 4G25G 1
  20265392.836   -28168927.92643 -21902852.75642  20265392.385    20265388.729
  21903625.330   -10353860.95543  -7796447.92742  21903625.090    21903622.086
  24583197.187    -4298824.10543  -3284579.02242  24583196.984    24583197.235
  23552804.885   -11749606.59943  -9121426.80542  23552805.544    23552803.138
  24386703.358    -5703007.20643  -4412493.25642  24386703.469    24386701.740
  23031994.271   -12539338.41343  -9754891.80942  23031993.974    23031991.193
  20920882.735   -22776872.75543 -17733078.84742  20920882.449    20920879.532
 04  5 21  2  3 30.0000000  0  7G20G16G11G13G 4G25G 1
  20265869.059   -28166425.55143 -21900902.86342  20265868.585    20265864.926
  21892919.283   -10410121.19043  -7840287.01142  21892919.084    21892916.068
  24600033.419    -4210349.65143  -3215638.03942  24600033.316    24600033.565
  23537836.805   -11828264.19243  -9182718.34442  23537837.431    23537834.931
  24380245.004    -5736945.29343  -4438938.50042  24380245.171    24380243.627
  23047974.428   -12455362.14643  -9689455.79442  23047974.220    23047971.380
  20914662.405   -22809560.78843 -17758550.03042  20914662.114    20914659.182
 04  5 21  2  4  0.0000000  0  7G20G16G11G13G 4G25G 1
  20266452.639   -28163358.79743 -21898513.19342  20266452.182    20266448.511
  21882303.808   -10465905.85143  -7883755.52742  21882303.570    21882300.543
  24616862.170    -4121914.55743  -3146727.71442  24616861.954    24616862.172
  23522881.443   -11906854.64843  -9243957.54742  23522882.079    23522879.693
  24373885.496    -5770364.28743  -4464979.26042  24373885.663    24373884.151
  23063976.258   -12371272.31543  -9623931.29142  23063976.037    23063973.143
  20908479.556   -22842051.79943 -17783867.69042  20908479.280    20908476.327
 04  5 21  2  4 30.0000000  0  7G20G16G11G13G 4G25G 1
  20267141.628   -28159738.11743 -21895691.88742  20267141.171    20267137.521
  21871777.069   -10521224.00243  -7926860.53042  21871776.827    21871773.807
  24633680.805    -4033532.61043  -3077858.82242  24633680.608    24633680.843
  23507936.772   -11985389.13343  -9305153.16242  23507937.372    23507934.953
  24367622.774    -5803274.74243  -4490623.74642  24367622.983    24367621.463
  23079997.167   -12287082.11943  -9558328.58642  23079996.956    23079994.005
  20902332.158   -22874356.59043 -17809040.24242  20902331.860    20902328.908
 04  5 21  2  5  0.0000000  0  7G20G16G11G13G 4G25G 1
  20267937.614   -28155555.19843 -21892432.47542  20267937.146    20267933.511
  21861341.077   -10576065.32343  -7969593.97342  21861340.815    21861337.803
  24650490.373    -3945198.40443  -3009027.10142  24650490.197    24650490.586
  23493004.274   -12063859.17143  -9366298.55742  23493004.927    23493002.530
  24361458.656    -5835667.55343  -4515864.89242  24361458.878    24361457.268
  23096038.293   -12202785.52043  -9492642.96942  23096038.110    23096035.177
  20896221.802   -22906466.69343 -17834061.09342  20896221.498    20896218.540
 04  5 21  2  5 30.0000000  0  7G20G16G11G13G 4G25G 1
  20268839.905   -28150813.47643 -21888737.63242  20268839.455    20268835.836
  21850995.427   -10630431.78243  -8011957.39742  21850995.173    21850992.166
  24667289.505    -3856918.82943  -2940237.96642  24667289.379    24667289.752
  23478083.399   -12142268.48343  -9427396.62042  23478084.097    23478081.656
  24355392.308    -5867546.43343  -4540705.55042  24355392.506    24355390.802
  23112098.589   -12118388.22543  -9426878.87742  23112098.398    23112095.502
  20890147.797   -22938385.85043 -17858933.15642  20890147.468    20890144.516
 04  5 21  2  6  0.0000000  0  7G20G16G11G13G 4G25G 1
  20269849.184   -28145509.82843 -21884604.92942  20269848.694    20269845.080
  21840741.137   -10684318.42543  -8053946.93842  21840740.862    21840737.830
  24684078.370    -3768693.84243  -2871491.35342  24684078.215    24684078.603
  23463174.575   -12220614.28343  -9488445.20142  23463175.282    23463172.832
  24349424.417    -5898908.10043  -4565143.19842  24349424.580    24349422.844
  23128178.291   -12033889.11743  -9361035.46242  23128178.055    23128175.187
  20884110.663   -22970111.06143 -17883654.09042  20884110.353    20884107.412
 04  5 21  2  6 30.0000000  0  7G20G16G11G13G 4G25G 1
  20270965.879   -28139641.62943 -21880032.31442  20270965.410    20270961.773
  21830578.983   -10737720.67343  -8095559.02842  21830578.725    21830575.663
  24700856.793    -3680523.08543  -2802787.01742  24700856.757    24700856.912
  23448278.474   -12298893.85543  -9549442.18442  23448279.084    23448276.579
  24343555.512    -5929749.05243  -4589175.07742  24343555.735    24343554.039
  23144277.506   -11949287.36243  -9295112.05042  23144277.260    23144274.402
  20878111.004   -23001639.56243 -17908221.74542  20878110.672    20878107.715
 04  5 21  2  7  0.0000000  0  7G20G16G11G13G 4G25G 1
  20272189.256   -28133212.64043 -21875022.72142  20272188.810    20272185.178
  21820508.560   -10790640.75143  -8136795.40442  21820508.325    21820505.242
  24717623.551    -3592414.13243  -2734130.83442  24717623.529    24717623.620
  23433394.183   -12377111.03443  -9610390.53242  23433394.780    23433392.297
  24337785.063    -5960073.00743  -4612804.10542  24337785.294    24337783.668
  23160395.075   -11864589.02143  -9229113.37642  23160394.831    23160391.939
  20872147.982   -23032975.46843 -17932639.33042  20872147.651    20872144.662
 04  5 21  2  7 30.0000000  0  7G20G16G11G13G 4G25G 1
  20273519.466   -28126222.33343 -21869575.73542  20273519.033    20273515.389
  21810530.357   -10843076.42943  -8177654.32642  21810530.109    21810527.001
  24734378.072    -3504369.31143  -2665524.64742  24734377.954    24734377.900
  23418521.773   -12455265.56643  -9671290.07242  23418522.423    23418519.858
  24332113.000    -5989879.67743  -4636030.06342  24332113.242    24332111.629
  23176530.685   -11779795.94043  -9163040.87242  23176530.407    23176527.581
  20866221.702   -23064118.24343 -17956906.42142  20866221.382    20866218.368
 04  5 21  2  8  0.0000000  0  6G20G16G13G 4G25G 1
  20274960.615   -28118649.08743 -21863674.51042  20274960.194    20274956.514
  21800648.752   -10895004.19643  -8218117.47342  21800648.519    21800645.425
  23403665.470   -12533335.54643  -9732123.73642  23403666.115    23403663.488
  24326543.639    -6019146.55443  -4658835.39842  24326543.812    24326542.282
  23192688.046   -11694888.43743  -9096879.22142  23192687.775    23192684.974
  20860336.351   -23095046.00343 -17981005.96342  20860336.003    20860332.999
 04  5 21  2  8 30.0000000  0  6G20G16G13G 4G25G 1
  20276505.924   -28110528.46443 -21857346.75742  20276505.501    20276501.814
  21790857.336   -10946458.25843  -8258211.50442  21790857.101    21790853.995
  23388818.426   -12611356.90343  -9792919.50742  23388819.093    23388816.427
  24321070.256    -6047909.54443  -4681248.10242  24321070.370    24321068.867
  23208859.994   -11609904.43743  -9030657.95842  23208859.726    23208856.956
  20854485.083   -23125794.66343 -18004965.94542  20854484.746    20854481.722
 04  5 21  2  9  0.0000000  0  6G20G16G13G 4G25G 1
  20278158.043   -28101846.45743 -21850581.56042  20278157.650    20278153.941
  21781159.122   -10997422.40843  -8297923.78342  21781158.912    21781155.780
  23373983.308   -12689315.40643  -9853666.29442  23373983.987    23373981.334
  24315695.456    -6076153.93843  -4703256.71242  24315695.624    24315694.070
  23225048.929   -11524831.21743  -8964367.16442  23225048.663    23225045.926
  20848670.663   -23156349.74943 -18028775.09242  20848670.291    20848667.260
 04  5 21  2  9 30.0000000  0  6G20G16G13G 4G25G 1
  20279918.684   -28092594.28243 -21843372.08042  20279918.280    20279914.580
  21771556.137   -11047886.23743  -8337246.20042  21771555.941    21771552.781
  23359161.857   -12767202.22043  -9914357.23642  23359162.479    23359159.915
  24310421.229    -6103870.85443  -4724854.28442  24310421.403    24310419.742
  23241256.044   -11439662.34043  -8898001.83742  23241255.790    23241253.090
  20842894.643   -23186702.72543 -18052426.75242  20842894.293    20842891.277
 04  5 21  2 10  0.0000000  0  6G20G16G13G 4G25G 1
  20281785.996   -28082781.51743 -21835725.77542  20281785.564    20281781.900
  21762046.922   -11097857.34743  -8376184.68542  21762046.725    21762043.541
  23344352.241   -12845026.92743  -9974999.78342  23344352.825    23344350.252
  24305245.561    -6131069.69643  -4746048.16642  24305245.705    24305243.859
  23257479.198   -11354409.38043  -8831570.99842  23257478.932    23257476.219
  20837155.330   -23216862.81943 -18075928.10842  20837154.992    20837151.997
 04  5 21  2 10 30.0000000  0  6G20G16G13G 4G25G 1
  20283760.583   -28072404.92343 -21827640.13142  20283760.161    20283756.517
  21752632.396   -11147330.98843  -8414735.53042  21752632.186    21752628.954
  23329555.091   -12922786.07343 -10035591.25242  23329555.653    23329552.980
  24300168.879    -6157747.19843  -4766835.79942  24300169.033    24300167.352
  23273718.522   -11269071.33643  -8765073.85842  23273718.277    23273715.541
  20831453.350   -23246826.84843 -18099276.68942  20831453.008    20831450.034
 04  5 21  2 11  0.0000000  0  6G20G16G13G 4G25G 1
  20285842.675   -28061463.40143 -21819114.28042  20285842.240    20285838.612
  21743313.049   -11196304.34743  -8452896.54542  21743312.829    21743309.569
  23314770.621   -13000478.66443 -10096130.86542  23314771.161    23314768.529
  24295191.691    -6183901.55243  -4787215.81042  24295191.956    24295190.423
  23289973.951   -11183648.66243  -8698510.76742  23289973.695    23289970.982
  20825788.882   -23276593.67343 -18122471.60142  20825788.534    20825785.579
 04  5 21  2 11 30.0000000  0  6G20G16G13G 4G25G 1
  20288032.714   -28049954.74443 -21810146.50642  20288032.271    20288028.651
  21734089.709   -11244773.09443  -8490664.34542  21734089.494    21734086.235
  23299999.276   -13078102.23443 -10156616.69042  23299999.810    23299997.194
  24290314.653    -6209530.32243  -4807186.26142  24290314.864    24290313.462
  23306245.603   -11098140.59143  -8631881.13642  23306245.384    23306242.672
  20820162.495   -23306160.45343 -18145510.63542  20820162.144    20820159.184
 04  5 21  2 12  0.0000000  0  6G20G16G13G 4G25G 1
  20290330.271   -28037881.03143 -21800738.42942  20290329.822    20290326.192
  21724962.257   -11292738.07643  -8528039.61142  21724962.026    21724958.757
  23285240.737   -13155658.76643 -10217050.30142  23285241.240    23285238.581
  24285537.116    -6234635.56043  -4826748.78042  24285537.389    24285536.097
  23322532.692   -11012551.68943  -8565188.52342  23322532.432    23322529.721
  20814573.753   -23335529.41943 -18168395.53342  20814573.411    20814570.441
 04  5 21  2 12 30.0000000  0  6G20G16G13G 4G25G 1
  20292735.557   -28025241.17943 -21790889.20142  20292735.109    20292731.486
  21715931.257   -11340196.29643  -8565019.99042  21715930.994    21715927.730
  23270495.203   -13233146.99643 -10277430.68342  23270495.715    23270492.935
  24280859.743    -6259216.02243  -4845902.37442  24280860.032    24280858.598
  23338835.029   -10926882.65743  -8498433.47342  23338834.751    23338831.993
  20809022.954   -23364699.01343 -18191125.07342  20809022.615    20809019.629
 04  5 21  2 13  0.0000000  0  6G20G16G13G 4G25G 1
  20295248.453   -28012035.73543 -21780599.25142  20295248.021    20295244.394
  21706996.972   -11387146.19743  -8601604.28042  21706996.684    21706993.396
  23255762.560   -13310567.30343 -10337758.12442  23255763.044    23255760.296
  24276282.099    -6283271.88443  -4864647.18642  24276282.377    24276280.916
  23355152.202   -10841135.50243  -8431617.54042  23355151.963    23355149.194
  20803510.029   -23393669.56043 -18213699.51442  20803509.710    20803506.712
 04  5 21  2 13 30.0000000  0  6G20G16G13G 4G25G 1
  20297869.531   -27998261.99543 -21769866.47742  20297869.086    20297865.454
  21698160.187   -11433583.46543  -8637789.12042  21698159.906    21698156.634
  23241043.551   -13387916.37343 -10398030.07642  23241044.012    23241041.226
  24271804.769    -6306800.19343  -4882980.92142  24271805.134    24271803.538
  23371484.444   -10755309.35943  -8364740.07342  23371484.183    23371481.406
  20798035.572   -23422437.99843 -18236116.46942  20798035.263    20798032.248
 04  5 21  2 14  0.0000000  0  6G20G16G13G 4G25G 1
  20300598.663   -27983920.32443 -21758691.16242  20300598.227    20300594.584
  21689421.255   -11479506.76543  -8673573.47042  21689420.962    21689417.674
  23226337.978   -13465194.61743 -10458246.84142  23226338.437    23226335.573
  24267427.801    -6329801.19743  -4900903.77542  24267428.158    24267426.510
  23387831.245   -10669406.57343  -8297802.89042  23387830.944    23387828.227
  20792599.520   -23451004.59743 -18258376.14142  20792599.196    20792596.206
 04  5 21  2 14 30.0000000  0  6G20G16G13G 4G25G 1
  20303435.306   -27969013.55743 -21747075.51142  20303434.893    20303431.255
  21680779.998   -11524916.84343  -8708957.90942  21680779.709    21680776.378
  23211645.394   -13542404.47643 -10518410.30842  23211645.869    23211642.932
  24263150.686    -6352277.29643  -4918417.61842  24263151.089    24263149.444
  23404191.817   -10583431.29143  -8230809.20642  23404191.528    23404188.813
  20787201.471   -23479371.56843 -18280480.26542  20787201.138    20787198.141
 04  5 21  2 15  0.0000000  0  6G20G16G13G 4G25G 1
  20306380.374   -27953537.22643 -21735016.04242  20306379.937    20306376.312
  21672237.488   -11569807.89843  -8743937.92042  21672237.201    21672233.850
  23196966.706   -13619541.08643 -10578516.71642  23196967.230    23196964.279
  24258974.639    -6374223.76943  -4935518.76342  24258974.940    24258973.056
  23420566.674   -10497381.01843  -8163757.10842  23420566.377    23420563.661
  20781842.283   -23507534.22844 -18302425.18342  20781841.961    20781838.953
 04  5 21  2 15 30.0000000  0  6G20G16G13G 4G25G 1
  20309432.603   -27937497.78443 -21722517.79042  20309432.149    20309428.530
  21663792.929   -11614184.21343  -8778516.83342  21663792.638    21663789.292
  23182300.848   -13696610.38243 -10638570.65642  23182301.364    23182298.443
  24254897.707    -6395646.72443  -4952211.96142  24254898.191    24254896.467
  23436954.311   -10411263.57243  -8096652.64442  23436953.979    23436951.296
  20776520.891   -23535498.35643 -18324215.40542  20776520.562    20776517.539
 04  5 21  2 16  0.0000000  0  6G20G16G13G 4G25G 1
  20312593.968   -27920884.89843 -21709572.69542  20312593.490    20312589.866
  21655448.627   -11658033.65643  -8812685.19542  21655448.353    21655444.985
  23167649.856   -13773601.65543 -10698563.81042  23167650.358    23167647.421
  24250922.566    -6416535.78243  -4968489.16042  24250923.054    24250921.405
  23453356.362   -10325070.27743  -8029489.09142  23453356.066    23453353.404
  20771239.293   -23563253.41544 -18345842.71242  20771238.946    20771235.922
 04  5 21  2 16 30.0000000  0  6G20G16G13G 4G25G 1
  20315862.639   -27903708.06643 -21696188.16142  20315862.128    20315858.544
  21647203.068   -11701364.22443  -8846449.23842  21647202.781    21647199.430
  23153011.914   -13850524.28443 -10758503.44842  23153012.434    23153009.476
  24247047.281    -6436900.46443  -4984357.73942  24247047.682    24247046.169
  23469770.750   -10238812.16843  -7962275.04142  23469770.461    23469767.820
  20765995.708   -23590808.61543 -18367314.28742  20765995.369    20765992.326
 04  5 21  2 17  0.0000000  0  6G20G16G13G 4G25G 1
  20319239.028   -27885965.07843 -21682362.46842  20319238.532    20319234.948
  21639056.994   -11744171.92943  -8879805.85542  21639056.711    21639053.357
  23138387.533   -13927375.65143 -10818387.57042  23138388.056    23138385.089
  24243272.444    -6456737.95843  -4999815.53442  24243272.715    24243271.233
  23486197.510   -10152488.88643  -7895010.18942  23486197.221    23486194.647
  20760790.680   -23618161.08943 -18388627.89342  20760790.355    20760787.297
 04  5 21  2 17 30.0000000  0  6G20G16G13G 4G25G 1
  20322724.220   -27867650.29043 -21668091.21442  20322723.707    20322720.134
  21631011.894   -11786449.12443  -8912749.09042  21631011.586    21631008.229
  23123777.937   -14004149.30343 -10878211.13742  23123778.452    23123775.499
  24239598.775    -6476042.32143  -5014857.89342  24239599.181    24239597.734
  23502637.569   -10066095.95643  -7827691.06942  23502637.263    23502634.685
  20755625.430   -23645304.59244 -18409778.66342  20755625.104    20755622.047
 04  5 21  2 18  0.0000000  0  6G20G16G13G 4G25G 1
  20326316.977   -27848770.35643 -21653379.59242  20326316.451    20326312.881
  21623066.808   -11828200.61643  -8945282.68242  21623066.488    21623063.138
  23109181.980   -14080851.44343 -10937978.98042  23109182.477    23109179.483
  24236025.334    -6494820.05743  -5029489.88942  24236025.681    24236024.446
  23519089.316    -9979641.41943  -7760323.95742  23519089.008    23519086.450
  20750498.824   -23672245.14043 -18430771.28742  20750498.484    20750495.437
 04  5 21  2 18 30.0000000  0  6G20G16G13G 4G25G 1
  20330017.636   -27829323.30143 -21638226.05542  20330017.122    20330013.557
  21615222.466   -11869422.66743  -8977403.72642  21615222.169    21615218.814
  23094600.008   -14157479.78243 -10997689.31942  23094600.514    23094597.543
  24232552.927    -6513068.94243  -5043709.79742  24232553.118    24232551.919
  23535552.796    -9893125.07043  -7692908.67042  23535552.459    23535550.000
  20745411.253   -23698980.50844 -18451604.02542  20745410.896    20745407.844
 04  5 21  2 19  0.0000000  0  6G20G16G13G 4G25G 1
  20333826.362   -27809308.42643 -21622630.06142  20333825.829    20333822.283
  21607479.305   -11910112.98543  -9009110.43742  21607479.003    21607475.646
  23080032.346   -14234033.12443 -11057341.20442  23080032.884    23080029.870
  24229181.031    -6530788.12843  -5057516.95042  24229181.230    24229180.134
  23552028.012    -9806547.41443  -7625445.62242  23552027.622    23552025.219
  20740362.971   -23725509.33344 -18472275.82842  20740362.626    20740359.566
 04  5 21  2 19 30.0000000  0  6G20G16G13G 4G25G 1
  20337742.966   -27788726.35843 -21606592.10242  20337742.467    20337738.927
  21599837.620   -11950270.28443  -9040401.80542  21599837.293    21599833.940
  23065478.994   -14310511.18743 -11116934.44142  23065479.587    23065476.550
  24225910.103    -6547978.12743  -5070911.73742  24225910.201    24225908.932
  23568514.492    -9719910.58243  -7557936.45642  23568514.081    23568511.702
  20735354.010   -23751831.54544 -18492786.62642  20735353.674    20735350.595
 04  5 21  2 20  0.0000000  0  6G20G16G13G 4G25G 1
  20341767.771   -27767575.76643 -21590111.13442  20341767.302    20341763.753
  21592297.935   -11989891.32843  -9071275.30842  21592297.621    21592294.282
  23050940.335   -14386912.21643 -11176467.65242  23050940.892    23050937.862
  24222739.764    -6564637.06143  -5083892.70442  24222740.077    24222738.869
  23585012.315    -9633214.35243  -7490381.00942  23585011.866    23585009.504
  20730384.743   -23777945.14544 -18513134.87542  20730384.403    20730381.328
 04  5 21  2 20 30.0000000  0  6G20G16G13G 4G25G 1
  20345900.073   -27745860.48143 -21573190.14742  20345899.598    20345896.054
  21584859.939   -12028978.02243  -9101732.44142  21584859.626    21584856.305
  23036415.677   -14463239.49443 -11235943.37242  23036416.220    23036413.167
  24219670.073    -6580768.59143  -5096462.70442  24219670.216    24219669.067
  23601520.424    -9546463.98243  -7422783.37642  23601519.965    23601517.585
  20725454.537   -23803853.43643 -18533323.14242  20725454.206    20725451.126
 04  5 21  2 21  0.0000000  0  6G20G16G13G 4G25G 1
  20350140.576   -27723576.48743 -21555826.00842  20350140.114    20350136.558
  21577524.725   -12067524.74143  -9131768.81042  21577524.392    21577521.040
  23021905.966   -14539488.14843 -11295357.83142  23021906.505    23021903.478
  24216701.627    -6596368.28543  -5108618.29442  24216701.619    24216700.465
  23618039.319    -9459656.78043  -7355141.45842  23618038.875    23618036.518
  20720564.318   -23829551.60443 -18553347.68142  20720563.966    20720560.909
 04  5 21  2 21 30.0000000  0  7G20G16G27G13G 4G25G 1
  20354487.710   -27700732.28943 -21538025.34942  20354487.229    20354483.655
  21570290.998   -12105537.99343  -9161389.49242  21570290.660    21570287.309
  24842641.128    -1048682.31653   -775503.19652  24842641.392    24842642.389
  23007409.684   -14615666.08043 -11354717.16542  23007410.250    23007407.247
  24213832.620    -6611444.62443  -5120366.07342  24213832.644    24213831.505
  23634567.214    -9372802.34543  -7287462.74342  23634566.810    23634564.454
  20715712.614   -23855047.38443 -18573214.51842  20715712.251    20715709.212
 04  5 21  2 22  0.0000000  0  7G20G16G27G13G 4G25G 1
  20358941.441   -27677327.82843 -21519788.12542  20358940.968    20358937.387
  21563159.132   -12143015.93643  -9190593.04942  21563158.824    21563155.426
  24826482.319    -1133597.47543   -841670.67842  24826482.599    24826483.499
  22992927.155   -14691771.95243 -11414020.36942  22992927.724    22992924.713
  24211063.375    -6625997.18143  -5131705.70042  24211063.410    24211062.272
  23651103.850    -9285902.09043  -7219748.30542  23651103.432    23651101.075
  20710899.591   -23880339.95943 -18592923.01342  20710899.235    20710896.195
 04  5 21  2 22 30.0000000  0  7G20G16G27G13G 4G25G 1
  20363505.025   -27653346.20743 -21501101.16542  20363504.536    20363500.943
  21556132.709   -12179939.97143  -9219364.99342  21556132.396    21556128.980
  24810350.644    -1218369.04343   -907726.27442  24810350.835    24810351.842
  22978461.565   -14767788.78143 -11473254.17342  22978462.129    22978459.148
  24208396.978    -6640009.06743  -5142624.02842  24208397.153    24208395.907
  23667652.243    -9198940.15843  -7151985.82642  23667651.861    23667649.425
  20706128.596   -23905411.67644 -18612459.41342  20706128.236    20706125.183
 04  5 21  2 23  0.0000000  0  7G20G16G27G13G 4G25G 1
  20368176.938   -27628795.12043 -21481970.46542  20368176.460    20368172.860
  21549210.571   -12216315.88943  -9247709.83142  21549210.262    21549206.828
  24794245.154    -1303003.58143   -973675.11842  24794245.125    24794246.384
  22964011.669   -14843723.34743 -11532423.88742  22964012.196    22964009.197
  24205832.064    -6653487.30343  -5153126.54042  24205832.313    24205831.044
  23684210.596    -9111925.44943  -7084182.20542  23684210.221    23684207.818
  20701398.349   -23930269.28144 -18631828.97142  20701397.996    20701394.932
 04  5 21  2 23 30.0000000  0  7G20G16G27G13G 4G25G 1
  20372956.587   -27603677.87743 -21462398.60442  20372956.114    20372952.530
  21542392.437   -12252145.33043  -9275628.83942  21542392.101    21542388.673
  24778165.218    -1387503.71943  -1039519.21242  24778165.234    24778166.440
  22949576.920   -14919578.17843 -11591531.48042  22949577.464    22949574.392
  24203368.107    -6666435.36143  -5163215.91542  24203368.400    24203367.044
  23700778.172    -9024862.47643  -7016340.98042  23700777.814    23700775.445
  20696708.367   -23954915.33144 -18651033.68242  20696708.002    20696704.944
 04  5 21  2 24  0.0000000  0  7G20G16G27G13G 4G25G 1
  20377843.729   -27577995.74643 -21442386.56742  20377843.265    20377839.683
  21535678.344   -12287427.92543  -9303121.73342  21535677.997    21535674.584
  24762110.737    -1471869.85343  -1105258.88342  24762110.831    24762111.937
  22935157.309   -14995353.54343 -11650577.14742  22935157.907    22935154.792
  24201004.857    -6678854.45243  -5172893.11142  24201005.173    24201003.867
  23717354.422    -8937753.71043  -6948464.07242  23717354.138    23717351.777
  20692058.545   -23979350.33344 -18670073.94242  20692058.179    20692055.128
 04  5 21  2 24 30.0000000  0  7G20G16G27G13G 4G25G 1
  20382839.103   -27551745.06243 -21421931.50742  20382838.605    20382835.032
  21529069.430   -12322157.81143  -9330183.94842  21529069.076    21529065.674
  24746082.687    -1556097.08143  -1170890.33542  24746082.661    24746083.956
  22920753.666   -15071044.91643 -11709557.36942  22920754.293    22920751.085
  24198743.063    -6690740.10343  -5182154.64842  24198743.441    24198741.988
  23733939.935    -8850596.44443  -6880549.37142  23733939.648    23733937.299
  20687449.803   -24003569.57444 -18688946.07942  20687449.416    20687446.359
 04  5 21  2 25  0.0000000  0  7G20G16G27G13G 4G25G 1
  20387941.379   -27524932.44443 -21401038.57442  20387940.893    20387937.319
  21522564.749   -12356340.03443  -9356819.41442  21522564.385    21522560.977
  24730080.033    -1640191.14443  -1236418.02142  24730080.017    24730081.408
  22906364.896   -15146658.02943 -11768476.60542  22906365.495    22906362.299
  24196581.417    -6702099.14043  -5191005.82842  24196581.705    24196580.350
  23750533.226    -8763398.41543  -6812602.90842  23750532.949    23750530.597
  20682880.985   -24027578.90544 -18707654.64642  20682880.590    20682877.545
 04  5 21  2 25 30.0000000  0  7G20G16G27G13G 4G25G 1
  20393151.093   -27497555.28543 -21379705.74042  20393150.590    20393147.025
  21516165.134   -12389970.07143  -9383024.60342  21516164.791    21516161.373
  24714103.349    -1724148.35843  -1301839.07342  24714103.389    24714104.635
  22891991.727   -15222189.49743 -11827332.21642  22891992.285    22891989.100
  24194520.574    -6712928.67943  -5199444.42442  24194520.875    24194519.440
  23767134.655    -8676157.77543  -6744623.21142  23767134.322    23767131.970
  20678352.799   -24051374.64644 -18726196.78542  20678352.418    20678349.344
 04  5 21  2 26  0.0000000  0  7G20G16G27G13G 4G25G 1
  20398468.824   -27469610.45843 -21357930.57342  20398468.328    20398464.755
  21509871.535   -12423043.07743  -9408795.73942  21509871.205    21509867.782
  24698153.607    -1807964.48443  -1367150.18642  24698153.533    24698154.814
  22877634.793   -15297635.43343 -11886121.19042  22877635.311    22877632.109
  24192561.249    -6723224.88043  -5207467.43942  24192561.505    24192560.122
  23783744.572    -8588872.44043  -6676608.71642  23783744.194    23783741.860
  20673866.039   -24074952.66543 -18744569.26442  20673865.664    20673862.601
 04  5 21  2 26 30.0000000  0  7G20G16G27G13G 4G25G 1
  20403893.216   -27441105.02243 -21335718.55942  20403892.726    20403889.183
  21503682.911   -12455564.45043  -9434137.02842  21503682.577    21503679.151
  24682229.535    -1891645.63943  -1432356.12842  24682229.401    24682230.641
  22863293.046   -15373001.24443 -11944847.72842  22863293.574    22863290.367
  24190702.218    -6732994.83843  -5215080.39942  24190702.373    24190700.967
  23800361.412    -8501550.67143  -6608565.82542  23800361.036    23800358.652
  20669419.553   -24098319.10744 -18762776.87942  20669419.154    20669416.106
 04  5 21  2 27  0.0000000  0  7G20G16G27G13G 4G25G 1
  20409425.636   -27412031.95443 -21313064.24142  20409425.134    20409421.616
  21497600.891   -12487525.49443  -9459041.70042  21497600.576    21497597.112
  24666332.631    -1975183.80243  -1497450.66042  24666332.418    24666333.767
  22848968.033   -15448279.24043 -12003505.83742  22848968.590    22848965.390
  24188944.704    -6742231.60143  -5222277.87542  24188944.734    24188943.252
  23816986.247    -8414186.46043  -6540489.85342  23816985.881    23816983.527
  20665014.822   -24121466.02043 -18780813.43342  20665014.439    20665011.374
 04  5 21  2 27 30.0000000  0  7G20G16G27G13G 4G25G 1
  20415065.133   -27382396.20943 -21289971.46742  20415064.632    20415061.147
  21491624.920   -12518929.27143  -9483512.13442  21491624.627    21491621.123
  24650462.209    -2058582.73743  -1562436.72142  24650461.982    24650463.299
  22834659.076   -15523473.42143 -12062098.64542  22834659.560    22834656.350
  24187287.551    -6750939.38043  -5229063.16542  24187287.730    24187286.277
  23833618.156    -8326785.29243  -6472385.08042  23833617.737    23833615.505
  20660651.170   -24144397.11144 -18798681.81142  20660650.792    20660647.737
 04  5 21  2 28  0.0000000  0  7G20G16G27G13G 4G25G 1
  20420811.583   -27352198.56143 -21266440.84842  20420811.062    20420807.591
  21485755.179   -12549774.80443  -9507547.57442  21485754.895    21485751.381
  24634618.359    -2141842.09943  -1627314.02342  24634618.178    24634619.457
  22820366.120   -15598583.31043 -12120625.77842  22820366.595    22820363.367
  24185731.194    -6759118.89043  -5235436.81742  24185731.246    24185729.664
  23850256.736    -8239348.85943  -6404252.84242  23850256.353    23850254.138
  20656328.666   -24167112.12344 -18816381.81642  20656328.278    20656325.210
 04  5 21  2 28 30.0000000  0  7G20G16G27G13G 4G25G 1
  20426665.155   -27321437.86743 -21242471.49242  20426664.625    20426661.183
  21479992.201   -12580059.19443  -9531145.75942  21479991.938    21479988.427
  24618801.536    -2224959.58843  -1692080.78342  24618801.364    24618802.569
  22806089.561   -15673606.87643 -12179085.64642  22806090.043    22806086.780
  24184275.477    -6766768.92143  -5241397.87342  24184275.474    24184273.878
  23866902.123    -8151876.99243  -6336092.97242  23866901.709    23866899.558
  20652047.701   -24189608.89044 -18833911.76142  20652047.289    20652044.219
 04  5 21  2 29  0.0000000  0  7G20G16G27G13G 4G25G 1
  20432625.558   -27290115.80843 -21218064.71442  20432625.024    20432621.585
  21474336.052   -12609782.21343  -9554306.51842  21474335.807    21474332.274
  24603011.572    -2307935.80243  -1756737.45642  24603011.410    24603012.554
  22791829.320   -15748544.53143 -12237478.56842  22791829.853    22791826.598
  24182920.270    -6773890.69443  -5246947.32342  24182920.382    24182918.763
  23883553.816    -8064372.21743  -6267907.47442  23883553.381    23883551.169
  20647808.194   -24211887.69244 -18851271.86042  20647807.787    20647804.714
 04  5 21  2 29 30.0000000  0  7G20G16G27G13G 4G25G 1
  20438692.719   -27258232.85243 -21193220.87142  20438692.167    20438688.722
  21468787.007   -12638942.54143  -9577028.81242  21468786.764    21468783.221
  24587248.649    -2390770.10143  -1821283.54442  24587248.447    24587249.583
  22777585.652   -15823395.41243 -12295803.88642  22777586.141    22777582.912
  24181665.490    -6780484.44343  -5252085.30242  24181665.627    24181663.952
  23900211.572    -7976835.23843  -6199696.87842  23900211.122    23900208.943
  20643610.266   -24233947.99044 -18868461.69342  20643609.864    20643606.773
 04  5 21  2 30  0.0000000  0  7G20G16G27G13G 4G25G 1
  20444866.601   -27225789.08543 -21167940.03442  20444866.022    20444862.568
  21463345.368   -12667538.34643  -9599311.21542  21463345.132    21463341.596
  24571512.912    -2473461.37143  -1885718.17842  24571512.665    24571513.743
  22763358.644   -15898158.69943 -12354060.95442  22763359.119    22763355.840
  24180511.254    -6786550.06343  -5256811.76842  24180511.417    24180509.667
  23916875.205    -7889267.28743  -6131462.15842  23916874.814    23916872.570
  20639454.089   -24255788.75044 -18885480.45842  20639453.695    20639450.606
 04  5 21  2 30 30.0000000  0  7G20G16G27G13G 4G25G 1
  20451147.611   -27192782.18143 -21142220.38942  20451147.034    20451143.599
  21458011.927   -12695565.69343  -9621150.67142  21458011.692    21458008.172
  24555805.139    -2556006.09443  -1950038.60242  24555804.827    24555805.897
  22749148.952   -15972830.76443 -12412246.92942  22749149.472    22749146.160
  24179458.114    -6792084.96243  -5261124.68342  24179458.218    24179456.391
  23933544.959    -7801666.86943  -6063202.12342  23933544.590    23933542.439
  20635340.355   -24277406.35044 -18902325.32942  20635340.011    20635336.917
 04  5 21  2 31  0.0000000  0  7G20G16G27G13G 4G25G 1
  20457534.874   -27159216.90543 -21116065.64942  20457534.303    20457530.866
  21452786.094   -12723027.57843  -9642549.50242  21452785.850    21452782.324
  24540124.529    -2638407.86843  -2014247.64142  24540124.181    24540125.214
  22734956.079   -16047414.93243 -12470364.42842  22734956.524    22734953.213
  24178504.940    -6797093.83243  -5265027.70742  24178505.090    24178503.175
  23950219.950    -7714039.40243  -5994921.01842  23950219.538    23950217.441
  20631268.435   -24298804.41743 -18918999.13642  20631268.072    20631264.979
 04  5 21  2 31 30.0000000  0  7G20G16G27G13G 4G25G 1
  20464028.435   -27125093.07143 -21089475.67042  20464027.852    20464024.425
  21447668.283   -12749921.86743  -9663506.05142  21447668.024    21447664.489
  24524471.337    -2720665.16143  -2078344.08642  24524470.993    24524472.033
  22720780.115   -16121910.05443 -12528412.52442  22720780.523    22720777.234
  24177651.918    -6801576.19743  -5268520.46342  24177652.140    24177650.305
  23966899.933    -7626385.40343  -5926619.24742  23966899.584    23966897.477
  20627238.555   -24319981.49944 -18935500.74542  20627238.197    20627235.109
 04  5 21  2 32  0.0000000  0  7G20G16G27G13G 4G25G 1
  20470628.462   -27090409.76343 -21062449.73642  20470627.897    20470624.469
  21442658.996   -12776245.76043  -9684018.14342  21442658.716    21442655.184
  24508846.054    -2802775.90743  -2142326.33842  24508845.769    24508846.743
  22706621.531   -16196313.65543 -12586389.30742  22706621.921    22706618.623
  24176899.412    -6805530.52843  -5271601.76742  24176899.608    24176897.836
  23983585.177    -7538704.13043  -5858296.23242  23983584.840    23983582.724
  20623251.182   -24340935.18644 -18951828.28242  20623250.820    20623247.745
 04  5 21  2 32 30.0000000  0  7G20G16G27G13G 4G25G 1
  20477334.644   -27055168.63343 -21034989.13342  20477334.074    20477330.645
  21437758.262   -12801999.15943  -9704085.69542  21437757.982    21437754.428
  24493248.510    -2884740.58343  -2206194.76342  24493248.312    24493249.291
  22692480.288   -16270626.19843 -12644295.14342  22692480.649    22692477.339
  24176247.044    -6808958.61943  -5274273.01742  24176247.316    24176245.474
  24000275.101    -7450997.96843  -5789953.81042  24000274.795    24000272.644
  20619306.235   -24361665.99444 -18967982.14442  20619305.868    20619302.786
 04  5 21  2 33  0.0000000  0  7G20G16G27G13G 4G25G 1
  20484146.420   -27019372.56343 -21007096.11142  20484145.882    20484142.429
  21432965.829   -12827183.28343  -9723709.65042  21432965.559    21432962.019
  24477678.531    -2966560.83343  -2269950.65242  24477678.329    24477679.269
  22678356.047   -16344849.24943 -12702131.24242  22678356.415    22678353.066
  24175694.228    -6811863.08943  -5276536.23942  24175694.462    24175692.793
  24016969.115    -7363270.54843  -5721594.82442  24016968.795    24016966.684
  20615403.396   -24382175.52044 -18983963.57842  20615403.028    20615399.932
 04  5 21  2 33 30.0000000  0  7G20G16G27G13G 4G25G 1
  20491064.533   -26983017.57343 -20978767.56842  20491064.017    20491060.580
  21428282.837   -12851792.33143  -9742885.49942  21428282.572    21428279.052
  24462136.952    -3048231.39643  -2333589.89042  24462136.872    24462137.811
  22664249.856   -16418977.54743 -12759893.50342  22664250.256    22664246.861
  24175241.872    -6814239.84143  -5278388.25842  24175242.131    24175240.562
  24033667.843    -7275518.49043  -5653216.64242  24033667.454    24033665.385
  20611543.675   -24402458.40343 -18999768.40942  20611543.321    20611540.229
 04  5 21  2 34  0.0000000  0  7G20G16G27G13G 4G25G 1
  20498088.311   -26946107.51743 -20950006.50742  20498087.779    20498084.342
  21423708.930   -12875828.24443  -9761614.74642  21423708.633    21423705.128
  24446623.443    -3129754.64243  -2397114.34642  24446623.373    24446624.289
  22650161.294   -16493013.06943 -12817583.47242  22650161.730    22650158.314
  24174889.362    -6816092.18143  -5279831.62342  24174889.568    24174888.024
  24050370.388    -7187745.96943  -5584822.53542  24050370.100    24050367.969
  20607726.641   -24422516.98844 -19015398.46442  20607726.267    20607723.175
 04  5 21  2 34 30.0000000  0  7G20G16G27G13G 4G25G 1
  20505217.936   -26908641.08443 -20920811.90542  20505217.421    20505213.999
  21419244.634   -12899288.06743  -9779895.09342  21419244.323    21419240.856
  24431138.482    -3211128.23343  -2460522.17142  24431138.326    24431139.349
  22636090.827   -16566953.50743 -12875199.34842  22636091.273    22636087.843
  24174637.005    -6817418.74243  -5280865.33342  24174637.102    24174635.539
  24067077.034    -7099952.12243  -5516411.79242  24067076.776    24067074.683
  20603952.801   -24442348.62744 -19030851.67842  20603952.432    20603949.333
 04  5 21  2 35  0.0000000  0  7G20G16G27G13G 4G25G 1
  20512452.837   -26870621.48643 -20891186.26942  20512452.315    20512448.929
  21414889.706   -12922173.17343  -9797727.61142  21414889.386    21414885.919
  24415681.690    -3292353.88243  -2523814.73842  24415681.586    24415682.443
  22622038.159   -16640800.45843 -12932742.37442  22622038.577    22622035.174
  24174483.938    -6818222.51243  -5281491.64142  24174484.059    24174482.459
  24083787.015    -7012140.64543  -5447987.32642  24083786.785    24083784.666
  20600221.806   -24461955.12144 -19046129.45642  20600221.428    20600218.320
 04  5 21  2 35 30.0000000  0  7G20G16G27G13G 4G25G 1
  20519793.452   -26832046.39943 -20861127.78242  20519792.922    20519789.548
  21410644.888   -12944479.68543  -9815109.27642  21410644.554    21410641.100
  24400253.718    -3373428.16143  -2586989.35842  24400253.629    24400254.279
  22608004.034   -16714550.07743 -12990209.55542  22608004.459    22608001.039
  24174431.080    -6818501.03343  -5281708.67942  24174431.019    24174429.399
  24100500.748    -6924309.74843  -5379547.73242  24100500.508    24100498.391
  20596534.354   -24481332.75944 -19061228.90642  20596533.973    20596530.873
 04  5 21  2 36  0.0000000  0  7G20G16G27G13G 4G25G 1
  20527238.556   -26792922.18943 -20830641.41142  20527238.034    20527234.662
  21406509.375   -12966211.82443  -9832043.37642  21406509.025    21406505.564
  24384853.671    -3454355.72343  -2650049.65942  24384853.544    24384854.078
  22593987.578   -16788206.89343 -13047604.41942  22593988.012    22593984.572
  24174476.730    -6818260.06643  -5281520.90842  24174476.881    24174475.338
  24117216.999    -6836465.71143  -5311097.89742  24117216.719    24117214.647
  20592889.614   -24500485.97744 -19076153.48142  20592889.224    20592886.119
 04  5 21  2 36 30.0000000  0  7G20G16G27G13G 4G25G 1
  20534789.347   -26753242.76043 -20799722.39942  20534788.789    20534785.424
  21402484.628   -12987361.93143  -9848523.94842  21402484.274    21402480.787
  24369482.836    -3535129.51743  -2712990.14942  24369482.761    24369483.230
  22579990.142   -16861763.81243 -13104921.44642  22579990.607    22579987.135
  24174622.596    -6817493.76243  -5280923.80842  24174622.615    24174621.063
  24133936.720    -6748603.34943  -5242633.77342  24133936.401    24133934.337
  20589288.950   -24519407.53544 -19090897.54642  20589288.549    20589285.439
 04  5 21  2 37  0.0000000  0  7G20G16G27G13G 4G25G 1
  20542444.690   -26713013.72643 -20768375.12442  20542444.136    20542440.781
  21398569.920   -13007933.61443  -9864553.80142  21398569.580    21398566.083
  24354140.567    -3615753.31843  -2775813.75142  24354140.434    24354140.881
  22566010.992   -16935224.46343 -13162163.45442  22566011.456    22566007.961
  24174867.419    -6816207.12243  -5279921.23742  24174867.539    24174865.867
  24150658.790    -6660728.24043  -5174159.72842  24150658.498    24150656.434
  20585731.654   -24538101.16344 -19105464.00342  20585731.252    20585728.161
 04  5 21  2 37 30.0000000  0  7G20G16G27G13G 4G25G 1
  20550204.125   -26672237.61543 -20736601.55542  20550203.587    20550200.242
  21394765.118   -13027927.81143  -9880133.66442  21394764.789    21394761.287
  24338826.584    -3696228.35043  -2838521.43142  24338826.444    24338826.825
  22552049.994   -17008589.84543 -13219331.23742  22552050.479    22552046.914
  24175210.891    -6814402.61343  -5278515.11442  24175211.015    24175209.186
  24167382.805    -6572843.36143  -5105678.06842  24167382.388    24167380.531
  20582217.503   -24556568.07044 -19119853.79542  20582217.101    20582214.029
 04  5 21  2 38  0.0000000  0  7G20G16G27G13G 4G25G 1
  20558069.353   -26630905.60643 -20704394.82542  20558068.820    20558065.500
  21391072.250   -13047333.81543  -9895255.19742  21391071.932    21391068.406
  24323542.792    -3776544.61543  -2901105.40942  24323542.700    24323542.995
  22538109.173   -17081849.40043 -13276416.55242  22538109.633    22538106.043
  24175654.598    -6812071.04643  -5276698.32342  24175654.687    24175652.933
  24184110.204    -6484940.13143  -5037182.10442  24184109.914    24184108.028
  20578748.508   -24574797.74543 -19134058.73142  20578748.104    20578745.040
 04  5 21  2 38 30.0000000  0  7G20G16G27G13G 4G25G 1
  20566038.103   -26589029.70743 -20671764.28442  20566037.536    20566034.239
  21387489.384   -13066161.88143  -9909926.39142  21387489.054    21387485.521
  24308287.243    -3856712.34143  -2963573.63442  24308287.246    24308287.521
  22524186.415   -17155013.61943 -13333427.57442  22524186.895    22524183.277
  24176196.322    -6809224.26243  -5274480.05242  24176196.468    24176194.619
  24200838.993    -6397030.43543  -4968681.10542  24200838.608    24200836.771
  20575322.654   -24592800.59543 -19148086.91942  20575322.250    20575319.213
 04  5 21  2 39  0.0000000  0  7G20G16G27G13G 4G25G 1
  20574111.010   -26546606.44043 -20638707.21942  20574110.455    20574107.132
  21384017.501   -13084406.90143  -9924143.27342  21384017.142    21384013.548
  24293060.959    -3936726.94743  -3025922.57342  24293060.922    24293061.016
  22510282.798   -17228077.37043 -13390360.32942  22510283.272    22510279.659
  24176836.778    -6805858.56343  -5271857.43942  24176837.035    24176835.093
  24217569.550    -6309111.35143  -4900172.79342  24217569.146    24217567.256
  20571940.943   -24610571.50843 -19161934.38342  20571940.547    20571937.525
 04  5 21  2 39 30.0000000  0  7G20G16G27G13G 4G25G 1
  20582288.509   -26503633.59743 -20605221.91142  20582287.949    20582284.626
  21380657.378   -13102064.47543  -9937902.39842  21380657.025    21380653.374
  24277864.503    -4016584.39043  -3088149.02742  24277864.427    24277864.531
  22496399.129   -17301036.41843 -13447211.48842  22496399.610    22496395.923
  24177576.610    -6801971.32543  -5268828.42242  24177576.761    24177574.793
  24234302.238    -6221180.56743  -4831655.35942  24234301.835    24234300.001
  20568604.188   -24628106.20844 -19175597.78542  20568603.772    20568600.783
 04  5 21  2 40  0.0000000  0  7G20G16G27G13G 4G25G 1
  20590569.477   -26460116.77443 -20571312.72342  20590568.934    20590565.631
  21377408.191   -13119138.95843  -9951207.17342  21377407.845    21377404.186
  24262697.055    -4096289.28943  -3150256.62942  24262696.918    24262697.144
  22482534.549   -17373895.11543 -13503984.45842  22482535.002    22482531.346
  24178414.600    -6797568.28443  -5265397.48342  24178414.638    24178412.741
  24251035.947    -6133244.28143  -4763133.62942  24251035.595    24251033.716
  20565311.558   -24645409.06543 -19189080.52642  20565311.143    20565308.154
 04  5 21  2 40 30.0000000  0  7G20G16G27G13G 4G25G 1
  20598954.124   -26416055.27143 -20536979.11142  20598953.578    20598950.278
  21374270.497   -13135627.75143  -9964055.56842  21374270.109    21374266.445
  24247559.144    -4175839.13043  -3212243.41142  24247558.926    24247559.193
  22468689.654   -17446650.28843 -13560676.76742  22468690.107    22468686.448
  24179350.581    -6792648.28443  -5261563.72342  24179350.845    24179349.054
  24267770.890    -6045301.68543  -4694606.98942  24267770.578    24267768.691
  20562063.543   -24662477.55343 -19202380.64542  20562063.129    20562060.132
 04  5 21  2 41  0.0000000  0  7G20G16G27G13G 4G25G 1
  20607441.890   -26371451.90643 -20502223.26242  20607441.332    20607438.044
  21371243.940   -13151532.10843  -9976448.55542  21371243.606    21371239.919
  24232450.515    -4255235.51343  -3274110.62142  24232450.202    24232450.420
  22454864.189   -17519303.52543 -13617289.64042  22454864.618    22454860.945
  24180384.790    -6787214.10543  -5257329.29042  24180384.885    24180383.193
  24284506.541    -5957355.57843  -4626077.61342  24284506.141    24284504.287
  20558859.879   -24679312.94343 -19215499.13042  20558859.452    20558856.455
 04  5 21  2 41 30.0000000  0  7G20G16G27G13G 4G25G 1
  20616033.931   -26326300.63843 -20467040.49042  20616033.350    20616030.070
  21368330.158   -13166844.09143  -9988379.95742  21368329.792    21368326.108
  24217372.493    -4334470.53943  -3335852.09142  24217372.163    24217372.393
  22441059.600   -17591846.87743 -13673816.89242  22441060.024    22441056.357
  24181517.946    -6781259.52043  -5252689.36342  24181517.988    24181516.372
  24301244.006    -5869399.91843  -4557540.77842  24301243.570    24301241.734
  20555702.065   -24695907.28643 -19228429.78842  20555701.669    20555698.645
 04  5 21  2 42  0.0000000  0  7G20G16G27G13G 4G25G 1
  20624727.456   -26280615.92543 -20431442.03742  20624726.900    20624723.603
  21365526.749   -13181576.01243  -9999859.36242  21365526.396    21365522.689
  24202322.768    -4413557.13443  -3397477.91442  24202322.439    24202322.610
  22427273.630   -17664292.56343 -13730268.04642  22427274.020    22427270.374
  24182747.422    -6774798.47143  -5247654.77742  24182747.507    24182745.876
  24317980.574    -5781449.27143  -4489007.86342  24317980.096    24317978.211
  20552587.752   -24712273.11443 -19241182.37642  20552587.359    20552584.314
 04  5 21  2 42 30.0000000  0  7G20G16G27G13G 4G25G 1
  20633524.969   -26234384.82843 -20395417.82642  20633524.417    20633521.118
  21362836.451   -13195713.51443 -10010875.57542  21362836.108    21362832.397
  24187303.982    -4492480.95743  -3458976.90142  24187303.623    24187303.654
  22413508.971   -17736626.28143 -13786631.94742  22413509.350    22413505.709
  24184075.872    -6767817.69443  -5242215.22542  24184075.895    24184074.246
  24334718.597    -5693490.76343  -4420468.81742  24334718.109    24334716.226
  20549519.717   -24728395.71544 -19253745.44242  20549519.321    20549516.284
 04  5 21  2 43  0.0000000  0  7G20G16G27G13G 4G25G 1
  20642424.650   -26187616.75443 -20358975.19942  20642424.094    20642420.814
  21360257.775   -13209264.34543 -10021434.64442  21360257.451    21360253.747
  24172314.662    -4571249.73343  -3520355.07342  24172314.326    24172314.259
  22399764.341   -17808854.82843 -13842913.90342  22399764.694    22399761.029
  24185501.167    -6760326.78043  -5236378.16042  24185501.317    24185499.714
  24351456.313    -5605533.46443  -4351930.70342  24351455.876    24351453.989
  20546496.536   -24744282.62443 -19266124.85042  20546496.139    20546493.093
 04  5 21  2 43 30.0000000  0  7G20G16G27G13G 4G25G 1
  20651427.053   -26140308.78543 -20322111.87442  20651426.523    20651423.258
  21357791.667   -13222223.88343 -10031532.96442  21357791.315    21357787.625
  24157355.682    -4649859.19343  -3581609.09742  24157355.377    24157355.261
  22386040.524   -17880973.85643 -13899110.51542  22386040.891    22386037.198
  24187024.337    -6752322.49443  -5230141.07442  24187024.540    24187022.841
  24368194.340    -5517574.69143  -4283391.44342  24368194.024    24368192.044
  20543519.111   -24759929.15443 -19278316.95042  20543518.682    20543515.657
 04  5 21  2 44  0.0000000  0  7G20G16G27G13G 4G25G 1
  20660531.618   -26092464.01143 -20284830.26242  20660531.092    20660527.835
  21355437.758   -13234593.64643 -10041171.71942  21355437.418    21355433.739
  24142426.819    -4728310.66343  -3642740.01942  24142426.527    24142426.297
  22372337.326   -17952984.43943 -13955222.62442  22372337.740    22372334.019
  24188644.886    -6743807.59043  -5223506.08642  24188645.065    24188643.243
  24384932.080    -5429617.30643  -4214853.26842  24384931.798    24384929.834
  20540587.194   -24775336.35943 -19290322.56042  20540586.788    20540583.749
 04  5 21  2 44 30.0000000  0  7G20G16G27G13G 4G25G 1
  20669737.667   -26044085.99043 -20247133.13542  20669737.134    20669733.899
  21353195.852   -13246374.81043 -10050351.82142  21353195.529    21353191.830
  24127527.648    -4806605.82143  -3703749.15042  24127527.460    24127527.172
  22358654.568   -18024887.71743 -14011251.12442  22358654.992    22358651.275
  24190361.500    -6734785.49443  -5216475.90442  24190361.847    24190360.219
  24401669.002    -5341664.80543  -4146318.88642  24401668.675    24401666.675
  20537700.559   -24790505.80643 -19302142.90442  20537700.133    20537697.096
 04  5 21  2 45  0.0000000  0  7G20G16G27G13G 4G25G 1
  20679046.019   -25995170.31243 -20209017.04842  20679045.481    20679042.267
  21351066.975   -13257561.89143 -10059069.00342  21351066.654    21351062.973
  24112659.396    -4884738.82943  -3764631.93242  24112659.143    24112658.825
  22344993.432   -18096677.38743 -14067191.09142  22344993.861    22344990.152
  24192175.728    -6725251.42443  -5209046.78242  24192176.065    24192174.479
  24418405.810    -5253712.62843  -4077784.76142  24418405.422    24418403.485
  20534860.307   -24805431.30143 -19313773.15342  20534859.879    20534856.873
 04  5 21  2 45 30.0000000  0  7G20G16G27G13G 4G25G 1
  20688455.631   -25945722.56843 -20170486.36242  20688455.085    20688451.882
  21349050.485   -13268158.61043 -10067326.16342  21349050.149    21349046.457
  24097821.150    -4962713.87043  -3825391.61542  24097820.903    24097820.672
  22331353.182   -18168357.27843 -14123045.51742  22331353.599    22331349.916
  24194086.540    -6715210.82143  -5201222.95642  24194086.789    24194085.147
  24435141.484    -5165766.20543  -4009255.11542  24435141.073    24435139.237
  20532065.810   -24820116.49943 -19325216.15642  20532065.383    20532062.348
 04  5 21  2 46  0.0000000  0  7G20G16G27G13G 4G25G 1
  20697966.667   -25895741.84543 -20131540.37242  20697966.095    20697962.919
  21347146.823   -13278162.16543 -10075121.11542  21347146.489    21347142.804
  24083013.619    -5040528.01743  -3886025.93542  24083013.305    24083013.048
  22317734.468   -18239923.99743 -14178811.75942  22317734.890    22317731.216
  24196093.841    -6704662.68143  -5193003.66042  24196093.970    24196092.536
  24451876.249    -5077824.26343  -3940728.96942  24451875.849    24451874.086
  20529317.626   -24834558.19443 -19336469.42042  20529317.192    20529314.176
 04  5 21  2 46 30.0000000  0  7G20G16G27G13G 4G25G 1
  20707578.859   -25845229.38443 -20092180.03942  20707578.289    20707575.155
  21345356.105   -13287572.39543 -10082453.74242  21345355.766    21345352.064
  24068236.607    -5118181.31543  -3946534.91042  24068236.322    24068236.019
  22304137.376   -18311377.24043 -14234489.58942  22304137.780    22304134.107
  24198197.460    -6693607.93743  -5184389.60342  24198197.667    24198196.140
  24468609.960    -4989887.99143  -3872207.23842  24468609.626    24468607.778
  20526615.866   -24848755.93443 -19347532.58742  20526615.447    20526612.446
 04  5 21  2 47  0.0000000  0  7G20G16G27G13G 4G25G 1
  20717291.695   -25794188.19443 -20052407.70442  20717291.117    20717287.974
  21343678.083   -13296390.42843 -10089324.90942  21343677.730    21343674.027
  24053489.975    -5195674.82843  -4006919.37942  24053489.715    24053489.366
  22290561.759   -18382717.40343 -14290079.28842  22290562.166    22290558.500
  24200397.105    -6682049.40843  -5175382.96942  24200397.223    24200395.597
  24485342.189    -4901959.81343  -3803691.80742  24485341.867    24485340.070
  20523960.362   -24862710.67343 -19358406.40142  20523959.934    20523956.939
 04  5 21  2 47 30.0000000  0  7G20G16G27G13G 4G25G 1
  20727105.303   -25742617.43543 -20012222.72342  20727104.736    20727101.565
  21342113.266   -13304613.62943 -10095732.57742  21342112.891    21342109.178
  24038774.235    -5273005.94143  -4067177.29742  24038773.969    24038773.580
  22277008.270   -18453941.41243 -14345578.48642  22277008.684    22277004.991
  24202692.789    -6669986.01943  -5165982.94342  24202692.860    24202691.168
  24502072.986    -4814038.87843  -3735182.02842  24502072.867    24502071.009
  20521351.680   -24876419.43443 -19369088.54742  20521351.247    20521348.243
 04  5 21  2 48  0.0000000  0  7G20G16G27G13G 4G25G 1
  20737018.615   -25690522.80043 -19971629.53142  20737018.042    20737014.872
  21340660.834   -13312246.15643 -10101679.97842  21340660.491    21340656.740
  24024088.752    -5350178.62243  -4127311.76042  24024088.461    24024088.076
  22263476.177   -18525052.78943 -14400989.90742  22263476.592    22263472.902
  24205083.397    -6657423.04143  -5156193.62942  24205083.426    24205081.830
  24518801.440    -4726130.24043  -3666681.79842  24518801.308    24518799.322
  20518789.113   -24889885.78943 -19379581.80542  20518788.685    20518785.681
 04  5 21  2 48 30.0000000  0  7G20G16G27G13G 4G25G 1
  20747032.312   -25637900.69343 -19930625.32042  20747031.724    20747028.538
  21339321.784   -13319282.89543 -10107163.13042  21339321.428    21339317.673
  24009434.300    -5427187.53343  -4187318.61342  24009434.087    24009433.676
  22249966.578   -18596045.81943 -14456309.12242  22249967.008    22249963.343
  24207569.811    -6644356.98443  -5146012.30542  24207569.882    24207568.324
  24535528.191    -4638230.49743  -3598188.53142  24535528.064    24535526.180
  20516273.776   -24903103.96144 -19389881.67442  20516273.363    20516270.344
 04  5 21  2 49  0.0000000  0  7G20G16G27G13G 4G25G 1
  20757145.921   -25584753.50643 -19889211.95642  20757145.333    20757142.130
  21338095.973   -13325724.56443 -10112182.58842  21338095.603    21338091.845
  23994810.926    -5504033.57043  -4247198.57142  23994810.667    23994810.278
  22236479.476   -18666920.75543 -14511536.29542  22236479.926    22236476.254
  24210151.331    -6630789.86443  -5135440.53942  24210151.620    24210150.135
  24552253.015    -4550341.16143  -3529703.35142  24552252.913    24552250.945
  20513805.608   -24916074.18443 -19399988.33442  20513805.216    20513802.202
 04  5 21  2 49 30.0000000  0  7G20G16G27G13G 4G25G 1
  20767359.172   -25531082.70443 -19847390.57942  20767358.585    20767355.366
  21336983.469   -13331570.63043 -10116737.94042  21336983.114    21336979.367
  23980218.654    -5580716.23643  -4306951.21542  23980218.384    23980217.975
  22223015.019   -18737676.82843 -14566670.85542  22223015.449    22223011.768
  24212828.367    -6616722.92843  -5124479.30542  24212828.500    24212827.098
  24568975.675    -4462463.26743  -3461227.08942  24568975.556    24568973.541
  20511384.780   -24928795.63643 -19409901.14842  20511384.389    20511381.388
 04  5 21  2 50  0.0000000  0  7G20G16G27G13G 4G25G 1
  20777672.042   -25476888.24843 -19805161.16242  20777671.460    20777668.269
  21335984.657   -13336819.35843 -10120827.83842  21335984.303    21335980.534
  23965657.841    -5657233.58943  -4366575.04542  23965657.538    23965657.103
  22209573.724   -18808311.22743 -14621710.61142  22209574.130    22209570.439
  24215600.439    -6602155.98043  -5113128.45742  24215600.558    24215599.151
  24585696.243    -4374596.46243  -3392759.48242  24585696.042    24585694.205
  20509011.736   -24941266.18543 -19419618.45442  20509011.327    20509008.312
 04  5 21  2 50 30.0000000  0  7G20G16G27G13G 4G25G 1
  20788083.215   -25422177.29943 -19762529.28342  20788082.629    20788079.451
  21335098.387   -13341476.60343 -10124456.84142  21335098.033    21335094.264
  23951127.336    -5733591.34743  -4426074.50342  23951127.076    23951126.642
  22196154.562   -18878829.19543 -14676659.63442  22196154.986    22196151.288
  24218466.062    -6587095.98843  -5101393.42142  24218466.331    24218465.109
  24602413.376    -4286747.68743  -3324305.91342  24602413.155    24602411.358
  20506685.402   -24953491.13943 -19429144.38642  20506684.994    20506681.983
 04  5 21  2 51  0.0000000  0  7G20G16G27G13G 4G25G 1
  20798593.468   -25366945.56443 -19719491.59442  20798592.905    20798589.718
  21334325.815   -13345536.39643 -10127620.29542  21334325.446    21334321.665
  23936628.400    -5809783.28443  -4485444.75142  23936628.119    23936627.746
  22182758.913   -18949223.84443 -14731512.56442  22182759.330    22182755.601
  24221426.550    -6571538.40343  -5089270.65242  24221426.817    24221425.661
  24619127.940    -4198911.81543  -3255862.39542  24619127.843    24619126.020
  20504407.073   -24965463.90043 -19438473.80642  20504406.645    20504403.629
 04  5 21  2 51 30.0000000  0  7G20G16G27G13G 4G25G 1
  20809201.992   -25311197.54543 -19676051.61242  20809201.418    20809198.238
  21333666.386   -13349001.52343 -10130320.37842  21333666.012    21333662.242
  23922160.551    -5885812.03443  -4544687.85742  23922160.285    23922159.813
  22169386.223   -19019497.77243 -14786271.43042  22169386.642    22169382.879
  24224481.055    -6555487.60643  -5076763.53742  24224481.283    24224479.945
  24635839.313    -4111092.94343  -3187432.13242  24635839.163    24635837.440
  20502176.313   -24977186.54343 -19447608.32942  20502175.896    20502172.896
 04  5 21  2 52  0.0000000  0  7G20G16G27G13G 4G25G 1
  20819908.804   -25254932.99143 -19632209.13342  20819908.229    20819905.062
  21333120.479   -13351870.15143 -10132555.65342  21333120.090    21333116.336
  23907724.092    -5961675.60343  -4603802.24842  23907723.852    23907723.367
  22156037.109   -19089647.68943 -14840933.65842  22156037.555    22156033.767
  24227629.429    -6538943.15543  -5063871.76942  24227629.617    24227628.105
  24652547.673    -4023290.37643  -3119014.57342  24652547.381    24652545.738
  20499993.624   -24988656.70744 -19456546.11542  20499993.202    20499990.176
 04  5 21  2 52 30.0000000  0  7G20G16G27G13G 4G25G 1
  20830713.275   -25198155.30243 -19587966.80842  20830712.668    20830709.531
  21332687.760   -13354144.10043 -10134327.54442  21332687.341    21332683.598
  23893318.840    -6037375.78543  -4662789.32842  23893318.608    23893318.039
  22142711.350   -19159674.95843 -14895500.31842  22142711.795    22142707.975
  24230871.142    -6521908.28043  -5050597.85842  24230871.312    24230869.766
  24669252.378    -3935506.93543  -3050611.92342  24669252.050    24669250.476
  20497858.749   -24999875.62543 -19465288.12342  20497858.302    20497855.278
 04  5 21  2 53  0.0000000  0  7G20G16G27G13G 4G25G 1
  20841615.688   -25140862.91443 -19543323.43042  20841615.083    20841611.949
  21332368.792   -13355820.06343 -10135633.46842  21332368.388    21332364.670
  23878945.337    -6112908.84943  -4721646.18342  23878945.095    23878944.488
  22129409.706   -19229575.42243 -14949968.16942  22129410.126    22129406.307
  24234206.483    -6504381.10743  -5036940.33142  24234206.577    24234205.105
  24685953.776    -3847740.32743  -2982222.38142  24685953.440    24685951.729
  20495772.441   -25010839.28843 -19473831.23642  20495771.993    20495768.952
 04  5 21  2 53 30.0000000  0  7G20G16G27G13G 4G25G 1
  20852615.722   -25083057.39343 -19498280.19842  20852615.134    20852611.992
  21332163.649   -13356897.98843 -10136473.39742  21332163.232    21332159.552
  23864603.672    -6188274.57443  -4780372.67042  23864603.350    23864602.813
  22116132.420   -19299347.85443 -15004336.26542  22116132.807    22116129.013
  24237635.322    -6486362.91443  -5022900.19942  24237635.338    24237633.798
  24702651.791    -3759991.61243  -2913846.77842  24702651.510    24702649.803
  20493734.875   -25021546.76443 -19482174.72242  20493734.439    20493731.379
 04  5 21  2 54  0.0000000  0  7G20G16G27G13G 4G25G 1
  20863712.175   -25024745.18143 -19452842.13742  20863711.583    20863708.455
  21332071.401   -13357382.59443 -10136850.99542  21332071.004    21332067.320
  23850292.926    -6263477.39643  -4838972.18542  23850292.598    23850292.120
  22102878.677   -19368996.56743 -15058607.94442  22102879.079    22102875.270
  24241156.248    -6467860.06843  -5008482.41442  24241156.266    24241154.794
  24719345.314    -3672266.61943  -2845489.67142  24719345.072    24719343.291
  20491745.272   -25032002.25744 -19490321.85542  20491744.825    20491741.751
 04  5 21  2 54 30.0000000  0  7G20G16G27G13G 4G25G 1
  20874905.526   -24965923.87843 -19407007.38942  20874904.939    20874901.794
  21332092.773   -13357270.16443 -10136763.37142  21332092.399    21332088.711
  23836013.977    -6338513.35943  -4897441.68842  23836013.650    23836013.209
  22089649.454   -19438516.61143 -15112779.37742  22089649.840    22089646.009
  24244769.885    -6448870.17443  -4993685.11142  24244769.934    24244768.530
  24736034.908    -3584562.22943  -2777148.61142  24736034.653    24736032.950
  20489804.444   -25042201.29143 -19498269.14742  20489804.011    20489800.946
 04  5 21  2 55  0.0000000  0  7G20G16G27G13G 4G25G 1
  20886195.761   -24906593.35943 -19360775.84642  20886195.186    20886192.040
  21332228.077   -13356559.02843 -10136209.21742  21332227.705    21332224.034
  23821767.235    -6413380.24643  -4955779.45542  23821766.891    23821766.382
  22076445.151   -19507905.43743 -15166848.55542  22076445.562    22076441.716
  24248476.395    -6429392.70343  -4978507.87442  24248476.434    24248474.974
  24752720.770    -3496877.62443  -2708822.97042  24752720.529    24752718.791
  20487912.956   -25052141.14243 -19506014.48242  20487912.524    20487909.472
 04  5 21  2 55 30.0000000  0  7G20G16G27G13G 4G25G 1
  20897581.892   -24846759.01743 -19314151.72142  20897581.316    20897578.156
  21332476.631   -13355252.64443 -10135191.23542  21332476.279    21332472.599
  23807552.036    -6488081.57843  -5013988.23842  23807551.671    23807551.162
  22063265.411   -19577165.26443 -15220817.22842  22063265.841    22063261.959
  24252274.478    -6409432.91443  -4962954.80442  24252274.561    24252273.216
  24769401.990    -3409217.22543  -2640516.20942  24769401.720    24769399.986
  20486070.238   -25061824.68244 -19513560.09542  20486069.794    20486066.758
 04  5 21  2 56  0.0000000  0  7G20G16G27G13G 4G25G 1
  20909064.013   -24786420.30243 -19267134.58042  20909063.430    20909060.274
  21332838.877   -13353348.99643 -10133707.85342  21332838.523    21332834.815
  23793368.807    -6562614.70843  -5072065.95042  23793368.407    23793367.984
  22050110.797   -19646293.01843 -15274682.98242  22050111.231    22050107.342
  24256164.687    -6388989.86943  -4947025.18242  24256164.667    24256163.452
  24786078.897    -3321579.76443  -2572227.31342  24786078.588    24786076.879
  20484276.860   -25071248.94943 -19520903.67442  20484276.420    20484273.363
 04  5 21  2 56 30.0000000  0  7G20G16G27G13G 4G25G 1
  20920640.953   -24725583.26643 -19219729.13642  20920640.369    20920637.215
  21333313.935   -13350852.52443 -10131762.53742  21333313.598    21333309.857
  23779216.776    -6636983.89843  -5130015.89842  23779216.395    23779215.946
  22036980.654   -19715292.21843 -15328448.55742  22036981.080    22036977.197
  24260145.820    -6368069.52043  -4930723.63442  24260145.711    24260144.439
  24802750.453    -3233970.34643  -2503960.26342  24802750.087    24802748.343
  20482532.138   -25080417.57743 -19528048.05642  20482531.682    20482528.628
 04  5 21  2 57  0.0000000  0  7G20G16G27G13G 4G25G 1
  20932313.415   -24664244.15143 -19171932.45742  20932312.834    20932309.699
  21333902.774   -13347758.15243 -10129351.31842  21333902.422    21333898.670
  23765097.030    -6711183.47343  -5187833.65942  23765096.690    23765096.198
  22023876.163   -19784156.80343 -15382109.23742  22023876.518    22023872.667
  24264218.378    -6346668.20143  -4914047.30142  24264218.331    24264216.899
  24819417.406    -3146384.79243  -2435711.79942  24819417.050    24819415.423
  20480837.188   -25089324.38543 -19534988.42042  20480836.770    20480833.721
 04  5 21  2 57 30.0000000  0  7G20G16G27G13G 4G25G 1
  20944081.051   -24602404.98243 -19123746.12642  20944080.449    20944077.330
  21334605.333   -13344066.18243 -10126474.43842  21334604.966    21334601.219
  23751009.554    -6785213.31343  -5245519.13442  23751009.253    23751008.731
  22010797.421   -19852885.70843 -15435664.20642  22010797.807    22010793.972
  24268382.175    -6324787.30843  -4896997.28042  24268382.165    24268380.652
  24836079.629    -3058824.38143  -2367482.95442  24836079.461    24836077.546
  20479192.209   -25097968.83543 -19541724.35342  20479191.795    20479188.729
 04  5 21  2 58  0.0000000  0  7G20G16G27G13G 4G25G 1
  20955942.947   -24540070.42543 -19075173.77542  20955942.355    20955939.235
  21335420.988   -13339779.89843 -10123134.45842  21335420.608    21335416.854
  23736953.793    -6859076.39143  -5303074.69742  23736953.495    23736952.960
  21997744.069   -19921481.24543 -15489115.23842  21997744.470    21997740.652
  24272636.514    -6302431.69543  -4879577.33142  24272636.458    24272634.839
  24852736.400    -2971292.75443  -2299276.50342  24852736.112    24852734.236
  20477596.708   -25106353.21843 -19548257.63542  20477596.271    20477593.244
 04  5 21  2 58 30.0000000  0  7G20G16G27G13G 4G25G 1
  20967899.544   -24477238.16043 -19026213.60142  20967898.950    20967895.845
  21336350.513   -13334895.14043 -10119328.13042  21336350.148    21336346.347
  23722930.655    -6932768.32043  -5360496.92142  23722930.337    23722929.727
  21984717.157   -19989937.92843 -15542458.07642  21984717.580    21984713.745
  24276981.458    -6279598.61343  -4861785.34442  24276981.577    24276980.024
  24869388.271    -2883786.59643  -2231089.91142  24869388.046    24869386.153
  20476051.662   -25114472.54043 -19554584.37642  20476051.212    20476048.183
 04  5 21  2 59  0.0000000  0  7G20G16G27G13G 4G25G 1
  20979949.468   -24413915.53143 -18976871.31842  20979948.853    20979945.774
  21337392.776   -13329418.00743 -10115060.21942  21337392.383    21337388.579
  23708939.072    -7006294.47543  -5417789.95142  23708938.736    23708938.134
  21971715.765   -20058260.58243 -15595696.47842  21971716.181    21971712.370
  24281415.915    -6256295.34043  -4843626.99942  24281416.058    24281414.563
  24886034.206    -2796312.27743  -2162928.12042  24886033.868    24886031.980
  20474556.109   -25122331.66443 -19560708.36942  20474555.676    20474552.630
 04  5 21  2 59 30.0000000  0  7G20G16G27G13G 4G25G 1
  20992093.632   -24350097.71543 -18927143.18242  20992092.994    20992089.925
  21338549.023   -13323341.79243 -10110325.48442  21338548.651    21338544.834
  23694980.352    -7079647.81543  -5474948.31942  23694980.019    23694979.376
  21958741.368   -20126441.32643 -15648824.29842  21958741.788    21958737.994
  24285940.732    -6232516.64643  -4825098.19342  24285940.795    24285939.613
  24902675.000    -2708863.79943  -2094786.47142  24902674.750    24902672.838
  20473111.514   -25129923.04343 -19566623.73042  20473111.072    20473108.030
 04  5 21  3  0  0.0000000  0  6G20G16G27G13G 4G 1
  21004324.484   -24285824.21743 -18877059.96642  21004323.861    21004320.814
  21339812.016   -13316704.64043 -10105153.65742  21339811.659    21339807.836
  23681047.367    -7152865.91143  -5532001.32142  23681047.013    23681046.302
  21945786.995   -20194516.92643 -15701870.18742  21945787.416    21945783.620
  24290548.689    -6208301.97543  -4806229.64442  24290548.814    24290547.318
  20471710.890   -25137283.52443 -19572359.16942  20471710.430    20471707.373
 04  5 21  3  0 30.0000000  0  6G20G16G27G13G 4G 1
  21016654.911   -24221027.55843 -18826569.10642  21016654.289    21016651.244
  21341194.787   -13309437.91543 -10099491.25042  21341194.449    21341190.616
  23667153.261    -7225879.41343  -5588894.89642  23667152.955    23667152.238
  21932865.981   -20262417.24643 -15754779.49142  21932866.401    21932862.574
  24295252.602    -6183583.97943  -4786968.88242  24295252.557    24295250.875
  20470367.472   -25144343.20643 -19577860.21842  20470367.006    20470363.953
 04  5 21  3  1  0.0000000  0  6G20G16G27G13G 4G 1
  21029077.416   -24155746.96143 -18775701.13742  21029076.801    21029073.790
  21342690.253   -13301579.01843 -10093367.41142  21342689.915    21342686.085
  23653291.157    -7298725.25743  -5645657.83042  23653290.841    23653290.081
  21919971.446   -20330178.36443 -15807580.32542  21919971.866    21919968.028
  24300044.880    -6158401.22543  -4767345.96042  24300044.725    24300042.884
  20469074.358   -25151138.53643 -19583155.27842  20469073.907    20469070.828
 04  5 21  3  1 30.0000000  0  6G20G16G27G13G 4G 1
  21041592.124   -24089981.76843 -18724455.55942  21041591.520    21041588.524
  21344298.810   -13293125.82243 -10086780.48342  21344298.474    21344294.627
  23639461.316    -7371400.94343  -5702288.16442  23639461.033    23639460.258
  21907104.013   -20397797.01243 -15860270.14842  21907104.438    21907100.598
  24304925.491    -6132753.05043  -4747360.39342  24304925.448    24304923.669
  20467832.147   -25157666.40044 -19588241.92642  20467831.699    20467828.605
 04  5 21  3  2  0.0000000  0  6G20G16G27G13G 4G 1
  21054200.247   -24023725.53343 -18672827.35242  21054199.674    21054196.678
  21346021.977   -13284070.43243 -10079724.30942  21346021.620    21346017.803
  23625665.572    -7443897.79343  -5758779.14142  23625665.272    23625664.510
  21894265.487   -20465263.67143 -15912841.53742  21894265.929    21894262.076
  24309895.695    -6106633.03043  -4727007.17942  24309895.791    24309894.418
  20466642.517   -25163917.82643 -19593113.16842  20466642.085    20466638.991
 04  5 21  3  2 30.0000000  0  6G20G16G27G13G 4G 1
  21066898.904   -23956993.70143 -18620828.55642  21066898.318    21066895.340
  21347857.081   -13274426.85043 -10072209.80642  21347856.727    21347852.882
  23611901.287    -7516229.30143  -5815141.27642  23611900.939    23611900.253
  21881453.505   -20532590.98143 -15965304.34542  21881453.960    21881450.056
  24314953.108    -6080056.21643  -4706298.02742  24314953.153    24314951.938
  20465503.100   -25169905.50543 -19597778.89342  20465502.670    20465499.572
 04  5 21  3  3  0.0000000  0  6G20G16G27G13G 4G 1
  21079687.508   -23889789.08543 -18568461.35342  21079686.928    21079683.973
  21349803.860   -13264196.45143 -10064238.04842  21349803.491    21349799.624
  23598168.293    -7588396.14243  -5871375.09742  23598167.989    23598167.234
  21868668.068   -20599778.67743 -16017658.36742  21868668.500    21868664.580
  24320097.066    -6053025.62443  -4685235.25442  24320097.009    24320095.708
  20464413.841   -25175629.49643 -19602239.14142  20464413.399    20464410.344
 04  5 21  3  3 30.0000000  0  6G20G16G27G13G 4G 1
  21092567.828   -23822102.61143 -18515718.67942  21092567.246    21092564.301
  21351864.301   -13253368.73243 -10055800.83942  21351863.952    21351860.051
  23584468.755    -7660387.35843  -5927472.08342  23584468.450    23584467.648
  21855911.433   -20666815.07643 -16069894.49042  21855911.871    21855907.928
  24325329.074    -6025531.80943  -4663811.52342  24325329.019    24325327.561
  20463376.979   -25181078.17943 -19606484.86842  20463376.546    20463373.510
 04  5 21  3  4  0.0000000  0  6G20G16G27G13G 4G 1
  21105538.695   -23753940.40543 -18462605.30242  21105538.101    21105535.167
  21354037.630   -13241947.81243 -10046901.39942  21354037.285    21354033.386
  23570801.965    -7732206.45643  -5983434.93142  23570801.672    23570800.860
  21843183.119   -20733702.69543 -16122014.68642  21843183.564    21843179.596
  24330648.057    -5997580.24143  -4642031.09142  24330648.061    24330646.462
  20462391.958   -25186254.47643 -19610518.34642  20462391.537    20462388.488
 04  5 21  3  4 30.0000000  0  6G20G16G27G13G 4G 1
  21118600.110   -23685302.35543 -18409121.14242  21118599.509    21118596.565
  21356324.049   -13229932.58243 -10037538.86042  21356323.689    21356319.787
  23557168.316    -7803851.65343  -6039262.27942  23557168.045    23557167.178
  21830483.732   -20800438.36543 -16174016.47742  21830484.152    21830480.182
  24336054.139    -5969171.09743  -4619894.12942  24336054.223    24336052.654
  20461459.259   -25191155.80443 -19614337.55642  20461458.826    20461455.799
 04  5 21  3  5  0.0000000  0  6G20G16G27G13G 4G 1
  21131750.511   -23616196.71343 -18355272.62542  21131749.911    21131746.954
  21358722.213   -13217329.95443 -10027718.61142  21358721.871    21358717.977
  23543566.603    -7875328.78943  -6094958.67742  23543566.327    23543565.417
  21817812.260   -20867027.27143 -16225903.90842  21817812.658    21817808.708
  24341545.752    -5940312.37143  -4597406.84442  24341545.811    24341544.369
  20460577.902   -25195787.53244 -19617946.69042  20460577.456    20460574.403
 04  5 21  3  5 30.0000000  0  6G20G16G27G13G 4G 1
  21144990.628   -23546619.46943 -18301056.61242  21144990.069    21144987.107
  21361233.194   -13204134.47043 -10017436.39842  21361232.852    21361228.987
  23529998.000    -7946631.82143  -6150519.40142  23529997.762    23529996.818
  21805169.948   -20933462.88043 -16277671.87842  21805170.339    21805166.392
  24347123.652    -5910999.79043  -4574565.91042  24347123.774    24347122.444
  20459749.076   -25200142.98844 -19621340.54542  20459748.643    20459745.591
 04  5 21  3  6  0.0000000  0  6G20G16G27G13G 4G 1
  21158318.911   -23476578.92143 -18246479.59042  21158318.360    21158315.393
  21363855.687   -13190353.04843 -10006697.61042  21363855.349    21363851.477
  23516461.348    -8017766.92243  -6205949.28242  23516461.084    23516460.160
  21792555.891   -20999750.06343 -16329324.20042  21792556.282    21792552.342
  24352786.523    -5881241.77843  -4551377.87342  24352786.598    24352785.348
  20458971.774   -25204227.73244 -19624523.45342  20458971.338    20458968.280
 04  5 21  3  6 30.0000000  0  6G20G16G27G13G 4G 1
  21171736.186   -23406070.79343 -18191538.22542  21171735.645    21171732.689
  21366590.758   -13175980.11043  -9995497.90042  21366590.402    21366586.546
  23502957.882    -8088727.80643  -6261243.39842  23502957.574    23502956.685
  21779971.435   -21065881.61743 -16380855.25442  21779971.807    21779967.881
  24358535.092    -5851033.79643  -4527839.23342  24358535.010    24358533.712
  20458247.293   -25208034.85544 -19627490.03742  20458246.863    20458243.812
 04  5 21  3  7  0.0000000  0  6G20G16G27G13G 4G 1
  21185241.761   -23335098.68143 -18136235.30642  21185241.224    21185238.265
  21369437.998   -13161017.51643  -9983838.71842  21369437.629    21369433.793
  23489487.318    -8159515.76043  -6316402.76442  23489486.990    23489486.163
  21767416.539   -21131857.92643 -16432265.33542  21767416.898    21767412.979
  24364368.421    -5820379.42543  -4503952.73342  24364368.456    24364367.113
  20457575.526   -25211565.01344 -19630240.80342  20457575.084    20457572.034
 04  5 21  3  7 30.0000000  0  6G20G16G27G13G 4G 1
  21198834.716   -23263667.57543 -18080574.74042  21198834.155    21198831.172
  21372396.751   -13145468.92943  -9971722.91942  21372396.393    21372392.560
  23476049.148    -8230133.49143  -6371429.49042  23476048.862    23476047.980
  21754890.874   -21197680.49443 -16483555.62342  21754891.251    21754887.322
  24370285.920    -5789282.97243  -4479721.76342  24370285.946    24370284.629
  20456956.086   -25214820.23143 -19632777.33142  20456955.640    20456952.575
 04  5 21  3  8  0.0000000  0  6G20G16G27G13G 4G 1
  21212516.597   -23191769.01043 -18024549.91542  21212516.021    21212513.057
  21375468.908   -13129324.64743  -9959142.94742  21375468.530    21375464.683
  23462645.417    -8300570.39443  -6426315.30542  23462645.095    23462644.231
  21742396.666   -21263337.87543 -16534717.19242  21742397.059    21742393.114
  24376289.009    -5757736.39743  -4455140.05442  24376289.051    24376287.654
  20456391.052   -25217789.42943 -19635090.97942  20456390.601    20456387.536
 04  5 21  3  8 30.0000000  0  6G20G16G27G13G 4G 1
  21226284.845   -23119416.59643 -17968171.45542  21226284.260    21226281.311
  21378652.087   -13112596.89343  -9946108.31842  21378651.718    21378647.844
  23449273.899    -8370837.95343  -6481069.17742  23449273.557    23449272.642
  21729931.881   -21328840.57443 -16585758.23842  21729932.269    21729928.340
  24382375.303    -5725752.77643  -4430217.79342  24382375.339    24382373.867
  20455878.443   -25220483.17244 -19637189.99442  20455877.990    20455874.919
 04  5 21  3  9  0.0000000  0  6G20G16G27G13G 4G 1
  21240140.027   -23046607.39243 -17911437.04842  21240139.417    21240136.495
  21381947.083   -13095281.53343  -9932615.81442  21381946.704    21381942.834
  23435935.540    -8440931.11043  -6535687.14542  23435935.195    23435934.269
  21717497.769   -21394182.25143 -16636673.80742  21717498.147    21717494.200
  24388545.269    -5693329.32843  -4404952.79842  24388545.368    24388543.882
  20455419.372   -25222895.64644 -19639069.83742  20455418.908    20455415.821
 04  5 21  3  9 30.0000000  0  6G20G16G27G13G 4G 1
  21254081.743   -22973343.35443 -17854348.22342  21254081.152    21254078.217
  21385353.815   -13077378.87043  -9918665.67642  21385353.438    21385349.579
  23422630.537    -8510849.37043  -6590168.82242  23422630.152    23422629.183
  21705094.557   -21459361.40343 -16687462.73942  21705094.931    21705091.031
  24394798.636    -5660467.60943  -4379346.30742  24394798.708    24394797.364
  20455013.992   -25225025.80643 -19640729.69342  20455013.540    20455010.457
 04  5 21  3 10  0.0000000  0  6G20G16G27G13G 4G 1
  21268108.801   -22899630.88943 -17796909.97642  21268108.203    21268105.267
  21388871.412   -13058893.71143  -9904261.64342  21388871.029    21388867.203
  23409358.018    -8580596.79743  -6644517.39342  23409357.653    23409356.598
  21692721.672   -21524381.38343 -16738127.63942  21692722.049    21692718.113
  24401134.226    -5627173.75843  -4353403.11342  24401134.297    24401133.084
  20454661.705   -25226877.02243 -19642172.19342  20454661.254    20454658.172
 04  5 21  3 10 30.0000000  0  6G20G16G27G13G 4G 1
  21282221.752   -22825467.13143 -17739120.07442  21282221.140    21282218.178
  21392500.565   -13039822.27443  -9889400.76742  21392500.187    21392496.374
  23396118.926    -8650168.56643  -6698729.08242  23396118.575    23396117.489
  21680380.205   -21589236.26043 -16788663.88342  21680380.571    21680376.623
  24407552.581    -5593445.05143  -4327121.04142  24407552.813    24407551.511
  20454363.584   -25228443.69344 -19643392.96442  20454363.130    20454360.022
 04  5 21  3 11  0.0000000  0  6G20G16G27G13G 4G 1
  21296419.201   -22750859.27843 -17680984.12342  21296418.589    21296415.617
  21396240.175   -13020170.51743  -9874087.69542  21396239.784    21396235.953
  23382912.315    -8719569.59143  -6752807.72742  23382911.929    23382910.788
  21668069.454   -21653929.73143 -16839074.35842  21668069.823    21668065.853
  24414052.418    -5559288.55243  -4300505.61642  24414052.630    24414051.125
  20454118.788   -25229730.10643 -19644395.35442  20454118.339    20454115.217
 04  5 21  3 11 30.0000000  0  6G20G16G27G13G 4G 1
  21310702.564   -22675799.77143 -17622496.22742  21310701.956    21310698.999
  21400091.981   -12999929.31043  -9858315.31442  21400091.566    21400087.720
  23369740.021    -8788789.92543  -6806745.57342  23369739.665    23369738.541
  21655791.501   -21718450.69743 -16889350.41542  21655791.868    21655787.917
  24420634.889    -5524696.43843  -4273550.77242  24420635.199    24420633.740
  20453929.316   -25230725.71744 -19645171.14242  20453928.869    20453925.767
 04  5 21  3 12  0.0000000  0  6G20G16G27G13G 4G 1
  21325068.961   -22600303.91943 -17563668.33042  21325068.364    21325065.419
  21404053.234   -12979112.84843  -9842094.68342  21404052.795    21404048.952
  23356599.601    -8857842.63343  -6860552.80142  23356599.289    23356598.171
  21643544.117   -21782810.99243 -16939501.26942  21643544.510    21643540.548
  24427297.648    -5489683.72243  -4246268.19742  24427297.804    24427296.495
  20453792.854   -25231442.76444 -19645729.86842  20453792.406    20453789.303
 04  5 21  3 12 30.0000000  0  6G20G16G27G13G 4G 1
  21339519.422   -22524366.35643 -17504496.23742  21339518.798    21339515.884
  21408125.236   -12957714.27143  -9825420.45742  21408124.812    21408120.965
  23343492.532    -8926720.17443  -6914223.53742  23343492.226    23343491.087
  21631328.949   -21847002.10543 -16989520.29742  21631329.321    21631325.390
  24434041.489    -5454245.15143  -4218653.77642  24434041.628    24434040.412
  20453711.003   -25231872.83043 -19646064.97442  20453710.543    20453707.463
 04  5 21  3 13  0.0000000  0  6G20G16G27G13G 4G 1
  21354053.463   -22447989.56743 -17444981.89842  21354052.840    21354049.940
  21412307.707   -12935735.07343  -9808293.79842  21412307.322    21412303.444
  23330418.804    -8995422.83443  -6967757.99942  23330418.517    23330417.375
  21619146.093   -21911023.40143 -17039407.00542  21619146.466    21619142.503
  24440865.821    -5418383.32643  -4190709.56042  24440865.950    24440864.809
  20453683.827   -25232015.59143 -19646176.20742  20453683.362    20453680.278
 04  5 21  3 13 30.0000000  0  6G20G16G27G13G 4G 1
  21368670.682   -22371175.68143 -17385126.95642  21368670.060    21368667.147
  21416600.605   -12913175.90143  -9790715.21742  21416600.214    21416596.315
  23317378.419    -9063950.31543  -7021155.95642  23317378.063    23317376.956
  21606995.821   -21974873.44243 -17089160.26942  21606996.182    21606992.212
  24447770.478    -5382099.65443  -4162436.62542  24447770.566    24447769.383
  20453711.410   -25231870.11044 -19646062.83342  20453711.045    20453707.970
 04  5 21  3 14  0.0000000  0  6G20G16G27G13G 4G 1
  21383369.934   -22293930.67743 -17324936.07542  21383369.296    21383366.399
  21421002.897   -12890041.54343  -9772688.43142  21421002.545    21420998.656
  23304370.667    -9132306.23543  -7074420.22742  23304370.272    23304369.138
  21594877.671   -22038554.63943 -17138781.96042  21594878.040    21594874.066
  24454754.152    -5345400.52943  -4133839.94542  24454754.260    24454753.004
  20453793.357   -25231439.37943 -19645727.18642  20453792.989    20453789.923
 04  5 21  3 14 30.0000000  0  6G20G16G27G13G 4G 1
  21398151.467   -22216253.19543 -17264408.21042  21398150.856    21398147.946
  21425515.201   -12866329.30043  -9754211.34742  21425514.807    21425510.940
  23291396.215    -9200487.14543  -7127548.12942  23291395.809    23291394.683
  21582792.613   -22102062.12343 -17188268.29642  21582792.964    21582788.957
  24461817.271    -5308284.13943  -4104918.14042  24461817.372    24461815.971
  20453930.453   -25230719.00944 -19645165.84642  20453930.076    20453926.993
 04  5 21  3 15  0.0000000  0  6G20G16G27G13G 4G 1
  21413015.535   -22138142.28543 -17203542.60542  21413014.896    21413011.977
  21430137.860   -12842037.08143  -9735282.33342  21430137.476    21430133.570
  23278455.705    -9268489.58243  -7180536.97142  23278455.322    23278454.188
  21570741.413   -22165391.51443 -17237615.86142  21570741.753    21570737.760
  24468959.947    -5270749.34543  -4075670.29342  24468960.039    24468958.641
  20454123.428   -25229704.96844 -19644375.67142  20454123.028    20454119.953
 04  5 21  3 15 30.0000000  0  6G20G16G27G13G 4G 1
  21427959.991   -22059608.67043 -17142347.61942  21427959.345    21427956.459
  21434869.083   -12817174.25343  -9715908.69242  21434868.702    21434864.791
  23265547.508    -9336321.89043  -7233393.23242  23265547.159    23265546.086
  21558722.697   -22228550.20543 -17286830.41042  21558723.048    21558719.020
  24476180.267    -5232806.71643  -4046104.65642  24476180.320    24476179.010
  20454370.864   -25228404.72543 -19643362.48742  20454370.466    20454367.377
 04  5 21  3 16  0.0000000  0  6G20G16G27G13G 4G 1
  21442985.932   -21980646.89043 -17080818.99242  21442985.313    21442982.411
  21439710.193   -12791734.04143  -9696085.13942  21439709.806    21439705.879
  23252673.199    -9403976.29943  -7286110.87842  23252672.895    23252671.796
  21546738.194   -22291529.04143 -17335904.81542  21546738.579    21546734.515
  24483479.201    -5194450.81543  -4016217.01142  24483479.153    24483477.825
  20454674.368   -25226809.92143 -19642119.77142  20454673.951    20454670.840
 04  5 21  3 16 30.0000000  0  6G20G16G27G13G 4G 1
  21458092.711   -21901260.40743 -17018959.43042  21458092.079    21458089.192
  21444660.675   -12765718.95743  -9675813.63842  21444660.306    21444656.376
  23239832.553    -9471454.07743  -7338690.89242  23239832.271    23239831.118
  21534788.009   -22354327.68443 -17384838.80342  21534788.398    21534784.329
  24490856.072    -5155684.93343  -3986009.88142  24490856.050    24490854.696
  20455033.825   -25224920.84843 -19640647.76042  20455033.408    20455030.294
 04  5 21  3 17  0.0000000  0  6G20G16G27G13G 4G 1
  21473279.107   -21821455.55743 -16956773.87342  21473278.468    21473275.590
  21449719.608   -12739133.97243  -9655098.05842  21449719.232    21449715.325
  23227024.759    -9538759.09943  -7391136.28742  23227024.480    23227023.280
  21522871.564   -22416949.07543 -17433634.67342  21522871.938    21522867.837
  24498309.866    -5116515.41243  -3955488.22542  24498309.831    24498308.370
  20455448.660   -25222740.69343 -19638948.92742  20455448.264    20455445.176
 04  5 21  3 17 30.0000000  0  6G20G16G27G13G 4G 1
  21488545.270   -21741231.43143 -16894261.60642  21488544.645    21488541.758
  21454887.416   -12711976.86843  -9633936.66842  21454887.028    21454883.118
  23214250.509    -9605888.07543  -7443444.51342  23214250.240    23214248.971
  21510989.655   -22479388.79843 -17482288.98542  21510990.035    21510985.931
  24505840.677    -5076941.07143  -3924651.09742  24505840.686    24505839.220
  20455919.656   -25220265.43643 -19637020.14842  20455919.257    20455916.179
 04  5 21  3 18  0.0000000  0  6G20G16G27G13G 4G 1
  21503890.547   -21660591.71243 -16831425.49942  21503889.917    21503887.011
  21460163.592   -12684250.29143  -9612331.53742  21460163.195    21460159.284
  23201509.567    -9672842.27943  -7495616.54942  23201509.228    23201507.936
  21499142.294   -22541647.02943 -17530801.86942  21499142.678    21499138.579
  24513447.759    -5036965.51243  -3893501.36042  24513447.853    24513446.300
  20456446.700   -25217495.76143 -19634861.95442  20456446.288    20456443.229
 04  5 21  3 18 30.0000000  0  6G20G16G27G13G 4G 1
  21519314.763   -21579537.07143 -16768266.08342  21519314.140    21519311.243
  21465548.271   -12655953.52343  -9590282.10342  21465547.868    21465543.960
  23188802.155    -9739620.06143  -7547651.11842  23188801.747    23188800.511
  21487330.061   -22603720.59043 -17579170.85142  21487330.465    21487326.354
  24521131.091    -4996589.13843  -3862039.28942  24521131.244    24521129.638
  20457030.262   -25214429.12443 -19632472.36642  20457029.831    20457026.802
 04  5 21  3 19  0.0000000  0  6G20G16G27G13G 4G 1
  21534817.084   -21498072.00943 -16704786.85342  21534816.446    21534813.567
  21471040.792   -12627090.08943  -9567791.10942  21471040.366    21471036.484
  23176127.878    -9806223.52243  -7599549.84742  23176127.445    23176126.189
  21475552.743   -22665610.63643 -17627396.83742  21475553.158    21475549.053
  24528889.946    -4955816.53543  -3830268.45942  24528890.017    24528888.468
  20457670.065   -25211067.01243 -19629852.53442  20457669.607    20457666.574
 04  5 21  3 19 30.0000000  0  6G20G16G27G13G 4G 1
  21550397.642   -21416195.84243 -16640987.28342  21550397.015    21550394.134
  21476641.506   -12597658.18543  -9544857.14742  21476641.066    21476637.191
  23163487.383    -9872649.62443  -7651310.38642  23163486.897    23163485.641
  21463811.196   -22727312.58043 -17675476.24442  21463811.643    21463807.545
  24536724.177    -4914646.97743  -3798188.32842  24536724.308    24536722.939
  20458366.825   -25207405.47843 -19626999.38942  20458366.378    20458363.337
 04  5 21  3 20  0.0000000  0  6G20G16G27G13G 4G 1
  21566055.726   -21333912.20443 -16576870.19542  21566055.099    21566052.254
  21482349.941   -12567660.28943  -9521482.16242  21482349.490    21482345.607
  23150880.351    -9938899.56343  -7702933.65342  23150879.904    23150878.635
  21452105.466   -22788826.54743 -17723409.18042  21452105.901    21452101.808
  24544633.296    -4873083.98643  -3765801.62242  24544633.391    24544632.210
  20459120.461   -25203445.00743 -19623913.30642  20459120.032    20459117.000
 04  5 21  3 20 30.0000000  0  6G20G16G27G13G 4G 1
  21581791.109   -21251222.40043 -16512436.63042  21581790.483    21581787.644
  21488166.031   -12537096.47243  -9497666.19642  21488165.598    21488161.701
  23138307.081   -10004972.38243  -7754418.90142  23138306.625    23138305.342
  21440435.980   -22850149.99243 -17771193.65542  21440436.427    21440432.322
  24552617.026    -4831128.71443  -3733109.23342  24552617.242    24552616.252
  20459931.373   -25199183.74244 -19620592.84042  20459930.927    20459927.875
 04  5 21  3 21  0.0000000  0  6G20G16G27G13G 4G 1
  21597602.365   -21168133.68643 -16447692.22742  21597601.751    21597598.953
  21494088.649   -12505972.90243  -9473414.05842  21494088.254    21494084.322
  23125766.609   -10070872.75943  -7805769.77042  23125766.168    23125764.875
  21428802.026   -22911286.61743 -17818832.55342  21428802.498    21428798.384
  24560674.198    -4788788.22043  -3700116.68642  24560674.263    24560673.482
  20460798.753   -25194625.70344 -19617041.11742  20460798.311    20460795.231
 04  5 21  3 21 30.0000000  0  6G20G16G27G13G 4G 1
  21613489.394   -21084646.85043 -16382637.59242  21613488.787    21613486.001
  21500117.862   -12474289.18443  -9448725.44542  21500117.451    21500113.518
  23113259.232   -10136599.15143  -7856985.07942  23113258.818    23113257.500
  21417204.212   -22972233.42343 -17866323.53942  21417204.669    21417200.576
  24568804.504    -4746063.19243  -3666824.50842  24568804.483    24568803.751
  20461723.049   -25189768.56044 -19613256.32542  20461722.597    20461719.497
 04  5 21  3 22  0.0000000  0  6G20G16G27G13G 4G 1
  21629452.620   -21000759.62843 -16317270.97442  21629452.032    21629449.241
  21506254.305   -12442041.98043  -9423597.74842  21506253.889    21506249.958
  23100785.877   -10202146.79443  -7908061.10342  23100785.470    23100784.143
  21405643.699   -23032984.24043 -17913661.80542  21405644.140    21405640.055
  24577008.399    -4702951.47343  -3633230.99242  24577008.525    24577007.638
  20462705.249   -25184606.92143 -19609234.26342  20462704.819    20462701.718
 04  5 21  3 22 30.0000000  0  6G20G16G27G13G 4G 1
  21645490.715   -20916479.07443 -16251597.86142  21645490.109    21645487.336
  21512496.839   -12409237.17943  -9398035.56242  21512496.412    21512492.486
  23088345.666   -10267520.28343  -7959001.42842  23088345.266    23088343.943
  21394119.798   -23093542.68043 -17960850.17142  21394120.217    21394116.137
  24585284.769    -4659459.48743  -3599341.17342  24585284.818    24585283.923
  20463744.715   -25179144.46343 -19604977.80042  20463744.276    20463741.196
 04  5 21  3 23  0.0000000  0  6G20G16G27G13G 4G 1
  21661603.692   -20831805.14443 -16185618.22542  21661603.049    21661600.308
  21518845.678   -12375873.76943  -9372038.09442  21518845.243    21518841.328
  23075939.051   -10332717.13043  -8009804.10642  23075938.633    23075937.341
  21382633.262   -23153904.63543 -18007885.43442  21382633.718    21382629.627
  24593633.422    -4615587.55243  -3565155.28142  24593633.403    24593632.576
  20464842.096   -25173377.72944 -19600484.23442  20464841.656    20464838.572
 04  5 21  3 23 30.0000000  0  6G20G16G27G13G 4G 1
  21677790.166   -20746744.85443 -16119337.52142  21677789.523    21677786.792
  21525299.674   -12341957.76843  -9345610.03642  21525299.216    21525295.333
  23063565.158   -10397742.09143  -8060472.85042  23063564.763    23063563.458
  21371183.462   -23214073.73943 -18054770.42142  21371183.895    21371179.802
  24602053.060    -4571342.39843  -3530678.59142  24602053.134    24602052.276
  20465996.611   -25167310.69844 -19595756.67142  20465996.164    20465993.073
 04  5 21  3 24  0.0000000  0  6G20G16G27G13G 4G 1
  21694051.886   -20661289.14043 -16052748.68942  21694051.214    21694048.525
  21531860.795   -12307478.80143  -9318743.30842  21531860.327    21531856.473
  23051226.214   -10462583.47243  -8110998.54742  23051225.874    23051224.470
  21359772.912   -23274036.48843 -18101494.61542  21359773.364    21359769.255
  24610545.411    -4526715.20043  -3495904.17742  24610545.483    24610544.530
  20467210.593   -25160931.12244 -19590785.56642  20467210.159    20467207.050
 04  5 21  3 24 30.0000000  0  6G20G16G27G13G 4G 1
  21710385.757   -20575454.27443 -15985864.42342  21710385.085    21710382.402
  21538526.143   -12272452.03543  -9291449.72042  21538525.688    21538521.857
  23038919.579   -10527255.17143  -8161392.03542  23038919.249    23038917.814
  21348399.248   -23333805.45943 -18148067.81342  21348399.686    21348395.571
  24619107.525    -4481721.71143  -3460844.36542  24619107.493    24619106.501
  20468481.586   -25154251.98744 -19585581.04342  20468481.173    20468478.028
 04  5 21  3 25  0.0000000  0  6G20G16G27G13G 4G 1
  21726792.889   -20489234.26743 -15918680.05342  21726792.224    21726789.571
  21545297.063   -12236870.58143  -9263723.90442  21545296.589    21545292.776
  23026646.827   -10591748.68543  -8211646.67042  23026646.505    23026645.058
  21337064.236   -23393371.31443 -18194482.74442  21337064.644    21337060.546
  24627740.344    -4436356.07043  -3425494.57242  24627740.250    24627739.371
  20469811.341   -25147264.07643 -19580135.91242  20469810.926    20469807.766
 04  5 21  3 25 30.0000000  0  6G20G16G27G13G 4G 1
  21743272.150   -20402635.43243 -15851200.47842  21743271.480    21743268.827
  21552172.470   -12200739.87243  -9235570.09742  21552172.021    21552168.214
  23014407.221   -10656068.06243  -8261765.60642  23014406.847    23014405.431
  21325767.351   -23452736.78443 -18240741.53542  21325767.747    21325763.662
  24636442.723    -4390624.52243  -3389859.64142  24636442.643    24636441.800
  20471199.244   -25139970.51643 -19574452.61142  20471198.839    20471195.688
 04  5 21  3 26  0.0000000  0  7G20G16G 3G27G13G 4G 1
  21759823.608   -20315656.98043 -15783425.10142  21759822.957    21759820.312
  21559152.822   -12164057.90943  -9206986.74142  21559152.351    21559148.568
  24574271.119    -4857737.66153  -3746920.81852  24574271.070    24574271.199
  23002201.399   -10720209.82743  -8311746.15642  23002201.015    23002199.609
  21314509.649   -23511896.27143 -18286839.81642  21314510.042    21314505.971
  24645215.008    -4344526.14543  -3353938.88842  24645214.903    24645214.151
  20472646.130   -25132367.07943 -19568527.84842  20472645.713    20472642.573
 04  5 21  3 26 30.0000000  0  7G20G16G 3G27G13G 4G 1
  21776446.728   -20228302.09543 -15715356.40642  21776446.068    21776443.440
  21566237.600   -12126827.00143  -9177975.63442  21566237.159    21566233.366
  24559636.797    -4934641.35143  -3806845.62342  24559636.659    24559636.782
  22990029.263   -10784174.67043  -8361588.84342  22990028.867    22990027.454
  21303291.272   -23570849.14343 -18332777.10042  21303291.667    21303287.598
  24654056.516    -4298064.08843  -3317734.74242  24654056.416    24654055.512
  20474151.982   -25124453.75744 -19562361.61742  20474151.569    20474148.415
 04  5 21  3 27  0.0000000  0  7G20G16G 3G27G13G 4G 1
  21793140.657   -20140575.17243 -15646997.80842  21793140.000    21793137.357
  21573426.211   -12089050.49843  -9148539.38842  21573425.763    21573422.000
  24545022.702    -5011438.15643  -3866687.13742  24545022.515    24545022.644
  22977890.447   -10847964.55443  -8411295.19742  22977890.031    22977888.577
  21292112.029   -23629596.32743 -18378554.11242  21292112.422    21292108.350
  24662966.291    -4251242.69043  -3281250.60042  24662966.114    24662965.395
  20475716.598   -25116231.60944 -19555954.73842  20475716.188    20475713.044
 04  5 21  3 27 30.0000000  0  7G20G16G 3G27G13G 4G 1
  21809905.402   -20052476.12843 -15578349.24142  21809904.744    21809902.072
  21580718.936   -12050727.01543  -9118676.92342  21580718.481    21580714.703
  24530430.085    -5088122.22543  -3926440.79942  24530429.981    24530430.007
  22965785.408   -10911576.78843  -8460863.12442  22965785.022    22965783.505
  21280972.774   -23688133.43743 -18424167.42342  21280973.154    21280969.098
  24671944.474    -4204061.50343  -3244486.10142  24671944.480    24671943.728
  20477340.645   -25107697.19144 -19549304.53542  20477340.219    20477337.085
 04  5 21  3 28  0.0000000  0  7G20G16G 3G27G13G 4G 1
  21826740.173   -19964008.91843 -15509413.79142  21826739.529    21826736.833
  21588115.154   -12011859.56543  -9088390.58442  21588114.696    21588110.908
  24515859.193    -5164692.10243  -3986105.47842  24515859.170    24515859.051
  22953713.891   -10975012.87843  -8510293.78842  22953713.476    22953711.965
  21269873.412   -23746460.88543 -18469617.36242  21269873.781    21269869.713
  24680990.432    -4156524.67543  -3207444.48542  24680990.345    24680989.712
  20479023.927   -25098851.30244 -19542411.63042  20479023.520    20479020.416
 04  5 21  3 28 30.0000000  0  7G20G16G 3G27G13G 4G 1
  21843643.989   -19875178.91443 -15440195.66042  21843643.350    21843640.645
  21595614.071   -11972452.48343  -9057683.75542  21595613.611    21595609.792
  24501310.144    -5241147.31143  -4045680.81342  24501310.105    24501309.905
  22941675.320   -11038275.78443  -8559589.51642  22941674.927    22941673.426
  21258813.679   -23804580.10143 -18514905.04042  21258814.051    21258809.962
  24690103.173    -4108637.44143  -3170129.82842  24690102.958    24690102.382
  20480766.123   -25089695.98644 -19535277.60742  20480765.730    20480762.616
 04  5 21  3 29  0.0000000  0  7G20G16G 3G27G13G 4G 1
  21860617.012   -19785985.27643 -15370694.17342  21860616.374    21860613.676
  21603215.906   -11932504.35143  -9026555.32942  21603215.503    21603211.641
  24486784.062    -5317481.92443  -4105162.17342  24486784.002    24486783.942
  22929670.362   -11101362.14043  -8608747.67542  22929669.922    22929668.417
  21247794.467   -23862486.17243 -18560026.62642  21247794.864    21247790.774
  24699282.729    -4060398.92043  -3132541.43642  24699282.548    24699281.891
  20482567.987   -25080227.19244 -19527899.32242  20482567.569    20482564.456
 04  5 21  3 29 30.0000000  0  7G20G16G 3G27G13G 4G 1
  21877658.781   -19696430.29243 -15300911.11542  21877658.161    21877655.452
  21610920.503   -11892016.36743  -8995006.24042  21610920.083    21610916.227
  24472281.411    -5393692.58843  -4164546.95342  24472281.446    24472281.422
  22917699.067   -11164271.58143  -8657767.97542  22917698.628    22917697.094
  21236816.193   -23920177.25043 -18604980.68242  21236816.588    21236812.503
  24708528.684    -4011811.14143  -3094680.89542  24708528.612    24708527.893
  20484429.718   -25070443.67844 -19520275.79742  20484429.312    20484426.200
 04  5 21  3 30  0.0000000  0  7G20G16G 3G27G13G 4G 1
  21894768.716   -19606517.09743 -15230848.93042  21894768.098    21894765.411
  21618727.409   -11850990.63443  -8963038.12442  21618727.015    21618723.133
  24457802.902    -5469776.87443  -4223833.26642  24457802.967    24457802.918
  22905761.288   -11227004.81643  -8706650.97142  22905760.831    22905759.306
  21225878.931   -23977652.78143 -18649766.77242  21225879.328    21225875.248
  24717840.553    -3962877.35643  -3056550.73942  24717840.486    24717839.712
  20486351.361   -25060345.43544 -19512407.03042  20486350.943    20486347.829
 04  5 21  3 30 30.0000000  0  7G20G16G 3G27G13G 4G 1
  21911946.157   -19516249.28443 -15160510.41942  21911945.536    21911942.865
  21626636.212   -11809429.61943  -8930652.90542  21626635.815    21626631.905
  24443348.941    -5545732.41543  -4283019.24442  24443349.017    24443348.775
  22893856.791   -11289562.85943  -8755397.45742  22893856.363    22893854.844
  21214982.819   -24034912.01043 -18694384.31742  21214983.243    21214979.171
  24727217.603    -3913601.08043  -3018153.70442  24727217.487    24727216.803
  20488332.873   -25049932.46143 -19504293.02142  20488332.455    20488329.359
 04  5 21  3 31  0.0000000  0  7G20G16G 3G27G13G 4G 1
  21929190.317   -19425630.72543 -15089898.59142  21929189.683    21929187.045
  21634646.310   -11767336.38643  -8897852.97442  21634645.892    21634641.955
  24428919.719    -5621557.84143  -4342103.83642  24428919.703    24428919.713
  22881985.413   -11351947.11643  -8804008.50642  22881984.973    22881983.453
  21204127.900   -24091954.87743 -18738833.26842  21204128.317    21204124.240
  24736659.162    -3863985.93743  -2979492.60942  24736659.041    24736658.196
  20490374.104   -25039205.59244 -19495934.41742  20490373.682    20490370.600
 04  5 21  3 31 30.0000000  0  7G20G16G 3G27G13G 4G 1
  21946501.563   -19334659.76643 -15019012.18242  21946500.914    21946498.300
  21642758.158   -11724708.40243  -8864636.35642  21642757.739    21642753.787
  24414516.674    -5697245.64943  -4401081.20742  24414516.533    24414516.603
  22870147.941   -11414153.27743  -8852480.79342  22870147.499    22870145.959
  21193315.226   -24148775.63443 -18783109.14742  21193315.673    21193311.566
  24746165.504    -3814030.39443  -2940566.27342  24746165.506    24746164.508
  20492476.094   -25028159.49344 -19487327.06042  20492475.670    20492472.568
 04  5 21  3 32  0.0000000  0  7G20G16G 3G27G13G 4G 1
  21963878.982   -19243341.08843 -14947854.82542  21963878.321    21963875.737
  21650971.018   -11681549.55543  -8831006.07642  21650970.623    21650966.630
  24400139.966    -5772794.79843  -4459950.52642  24400139.985    24400139.940
  22858343.905   -11476183.75643  -8900816.18442  22858343.456    22858341.859
  21182544.664   -24205375.18043 -18827212.65642  21182545.089    21182541.003
  24755735.682    -3763739.13443  -2901378.33042  24755735.618    24755734.611
  20494638.561   -25016795.65344 -19478472.12442  20494638.145    20494635.030
 04  5 21  3 32 30.0000000  0  7G20G16G 3G27G13G 4G 1
  21981321.861   -19151678.06943 -14876429.13942  21981321.238    21981318.689
  21659284.455   -11637862.22643  -8796963.99542  21659284.044    21659280.041
  24385790.114    -5848203.31543  -4518710.26742  24385790.127    24385790.069
  22846573.198   -11538039.19543  -8949015.17642  22846572.707    22846571.079
  21171816.332   -24261752.81043 -18871143.24642  21171816.750    21171812.669
  24765369.124    -3713115.25543  -2861931.20642  24765369.012    24765368.136
  20496861.438   -25005114.31843 -19469369.78042  20496861.027    20496857.892
 04  5 21  3 33  0.0000000  0  7G20G16G 3G27G13G 4G 1
  21998829.744   -19059673.70643 -14804737.47342  21998829.108    21998826.607
  21667698.058   -11593648.48043  -8762511.71842  21667697.633    21667693.636
  24371467.471    -5923468.44343  -4577358.30342  24371467.577    24371467.495
  22834835.677   -11599719.95443  -8997078.05342  22834835.180    22834833.565
  21161130.476   -24317907.16343 -18914899.85042  21161130.913    21161126.820
  24775065.261    -3662161.85543  -2822227.32142  24775065.080    24775064.330
  20499144.856   -24993114.92544 -19460019.60142  20499144.429    20499141.319
 04  5 21  3 33 30.0000000  0  7G20G16G 3G27G13G 4G 1
  22016402.095   -18967330.51843 -14732781.78342  22016401.442    22016399.002
  21676211.516   -11548910.08443  -8727650.62442  21676211.070    21676207.063
  24357172.872    -5998586.93343  -4635892.06942  24357172.796    24357172.753
  22823131.377   -11661226.26543  -9045004.99242  22823130.892    22823129.233
  21150487.385   -24373836.87243 -18958481.40742  21150487.814    21150483.713
  24784823.683    -3610881.27843  -2782268.46442  24784823.532    24784822.742
  20501488.896   -24980796.77544 -19450421.03642  20501488.486    20501485.389
 04  5 21  3 34  0.0000000  0  7G20G16G 3G27G13G 4G 1
  22034039.469   -18874645.78043 -14660559.96342  22034038.778    22034036.374
  21684825.536   -11503642.98243  -8692377.55642  21684825.097    21684821.096
  24342907.698    -6073550.36143  -4694305.00742  24342907.610    24342907.620
  22811461.359   -11722552.57343  -9092791.67342  22811460.878    22811459.209
  21139888.382   -24429534.92043 -19001882.45542  21139888.823    21139884.700
  24794644.858    -3559270.66643  -2742052.46242  24794644.719    24794643.966
  20503894.822   -24968153.58543 -19440569.20342  20503894.409    20503891.304
 04  5 21  3 34 30.0000000  0  7G20G16G 3G27G13G 4G 1
  22051739.984   -18781629.12343 -14588079.50142  22051739.312    22051736.922
  21693538.437   -11457856.38943  -8656699.68742  21693537.990    21693533.976
  24328671.153    -6148363.19143  -4752600.59642  24328671.164    24328671.003
  22799824.138   -11783706.22243  -9140443.81342  22799823.699    22799822.010
  21129332.345   -24485007.19543 -19045107.57342  21129332.785    21129328.659
  24804526.861    -3507339.99243  -2701587.06242  24804526.772    24804526.139
  20506361.375   -24955191.85943 -19430469.15842  20506360.928    20506357.825
 04  5 21  3 35  0.0000000  0  7G20G16G 3G27G13G 4G 1
  22069503.629   -18688280.84243 -14515340.63542  22069502.934    22069500.556
  21702350.361   -11411549.39743  -8620616.31542  21702349.913    21702345.892
  24314464.458    -6223019.59743  -4810774.30542  24314464.468    24314464.296
  22788220.309   -11844684.60743  -9187959.38342  22788219.843    22788218.173
  21118820.015   -24540249.63243 -19088153.60642  21118820.457    21118816.327
  24814469.925    -3455089.12143  -2660872.14642  24814469.815    24814469.307
  20508889.158   -24941908.15443 -19420118.21742  20508888.733    20508885.630
 04  5 21  3 35 30.0000000  0  7G20G16G 3G27G13G 4G 1
  22087329.650   -18594604.65043 -14442346.24242  22087328.972    22087326.600
  21711260.760   -11364724.97843  -8584129.75142  21711260.315    21711256.266
  24300287.930    -6297517.46943  -4868824.48042  24300287.854    24300287.579
  22776649.590   -11905488.95943  -9235339.33342  22776649.155    22776647.434
  21108351.574   -24595261.69643 -19131020.12342  21108351.984    21108347.836
  24824473.189    -3402521.81443  -2619910.67842  24824473.028    24824472.634
  20511478.140   -24928302.86944 -19409516.69142  20511477.713    20511474.641
 04  5 21  3 36  0.0000000  0  7G20G16G 3G27G13G 4G 1
  22105218.032   -18500600.99043 -14369096.68842  22105217.326    22105214.961
  21720269.662   -11317382.93643  -8547239.84842  21720269.202    21720265.137
  24286142.544    -6371851.75343  -4926747.19442  24286142.484    24286142.094
  22765112.364   -11966117.32343  -9282582.15142  22765111.912    22765110.227
  21097927.588   -24650040.02143 -19173704.50942  21097927.999    21097923.833
  24834536.606    -3349638.52843  -2578702.98042  24834536.494    24834536.060
  20514128.846   -24914373.37643 -19398662.54142  20514128.405    20514125.338
 04  5 21  3 36 30.0000000  0  7G20G16G 3G27G13G 4G 1
  22123168.314   -18406271.96843 -14295593.60642  22123167.585    22123165.216
  21729376.847   -11269524.35443  -8509947.44242  21729376.395    21729372.319
  24272028.957    -6446018.67143  -4984539.48342  24272029.000    24272028.521
  22753608.730   -12026568.95843  -9329687.25542  22753608.319    22753606.646
  21087548.561   -24704582.13643 -19216204.84442  21087548.957    21087544.774
  24844659.812    -3296441.10943  -2537250.49142  24844659.629    24844659.014
  20516841.551   -24900118.01043 -19387554.46342  20516841.109    20516838.043
 04  5 21  3 37  0.0000000  0  7G20G16G 3G27G13G 4G 1
  22141179.499   -18311622.60743 -14221840.90642  22141178.782    22141176.446
  21738581.488   -11221153.54843  -8472255.90242  21738581.039    21738576.960
  24257947.355    -6520017.84243  -5042201.06842  24257947.452    24257946.772
  22742138.231   -12086846.59643  -9376656.78342  22742137.807    22742136.118
  21077214.252   -24758889.23343 -19258522.03942  21077214.647    21077210.444
  24854841.661    -3242934.88643  -2495557.37642  24854841.624    24854840.929
  20519615.918   -24885538.64143 -19376193.91142  20519615.471    20519612.386
 04  5 21  3 37 30.0000000  0  7G20G16G 3G27G13G 4G 1
  22159251.960   -18216651.29443 -14147837.33242  22159251.275    22159248.940
  21747884.026   -11172268.22743  -8434163.44342  21747883.598    21747879.531
  24243899.028    -6593841.73543  -5099726.06742  24243899.076    24243898.450
  22730701.594   -12146946.09443  -9423487.49442  22730701.185    22730699.467
  21066925.761   -24812955.54443 -19300651.61442  21066926.156    21066921.935
  24865082.681    -3189118.29543  -2453622.42342  24865082.601    24865082.058
  20522452.886   -24870630.23543 -19364576.96642  20522452.447    20522449.352
 04  5 21  3 38  0.0000000  0  7G20G16G 3G27G13G 4G 1
  22177383.358   -18121370.30043 -14073592.45042  22177382.670    22177380.350
  21757282.335   -11122879.69343  -8395678.86742  21757281.876    21757277.856
  24229882.903    -6667496.75143  -5157119.47942  24229882.966    24229882.235
  22719297.089   -12206876.87543  -9470186.73942  22719296.704    22719294.959
  21056681.569   -24866788.95643 -19342599.71042  21056681.979    21056677.759
  24875380.584    -3135002.99743  -2411454.71442  24875380.542    24875379.937
  20525350.787   -24855401.68043 -19352710.55542  20525350.362    20525347.255
 04  5 21  3 38 30.0000000  0  7G20G16G 3G27G13G 4G 1
  22195574.604   -18025774.88543 -13999102.56342  22195573.919    22195571.607
  21766777.468   -11072982.42543  -8356797.87742  21766777.010    21766772.960
  24215900.921    -6740972.40343  -5214373.12742  24215900.764    24215900.239
  22707926.149   -12266631.58943  -9516748.79042  22707925.738    22707923.965
  21046483.430   -24920380.47643 -19384359.32142  21046483.837    21046479.625
  24885736.126    -3080584.50143  -2369050.74642  24885736.193    24885735.498
  20528311.166   -24839844.85643 -19340588.35442  20528310.729    20528307.632
 04  5 21  3 39  0.0000000  0  7G20G16G 3G27G13G 4G 1
  22213826.282   -17929861.95543 -13924365.26442  22213825.588    22213823.273
  21776370.139   -11022572.60843  -8317517.49942  21776369.661    21776365.631
  24201954.690    -6814260.00243  -5271480.24042  24201954.428    24201953.959
  22696589.685   -12326204.76543  -9563169.37742  22696589.292    22696587.506
  21036332.654   -24973722.97243 -19425924.88342  21036333.067    21036328.868
  24896149.951    -3025859.91543  -2326408.27642  24896150.077    24896149.260
  20531335.234   -24823953.36443 -19328205.37142  20531334.784    20531331.656
 04  5 21  3 39 30.0000000  0  7G20G16G 3G27G13G 4G 1
  22232134.876   -17833649.75943 -13849394.75442  22232134.193    22232131.867
  21786057.034   -10971667.43743  -8277851.12742  21786056.565    21786052.558
  24188041.833    -6887371.82743  -5328450.40342  24188041.504    24188041.028
  22685284.844   -12385611.71043  -9609460.44342  22685284.465    22685282.664
  21026226.659   -25026830.26643 -19467307.17142  21026227.079    21026222.866
  24906618.595    -2970847.04143  -2283541.16942  24906618.610    24906617.936
  20534420.172   -24807741.87343 -19315573.03942  20534419.739    20534416.590
 04  5 21  3 40  0.0000000  0  7G20G16G 3G27G13G 4G 1
  22250502.220   -17737128.89143 -13774183.73642  22250501.545    22250499.195
  21795840.116   -10920256.86243  -8237790.93042  21795839.647    21795835.658
  24174165.279    -6960292.97443  -5385271.97442  24174165.023    24174164.515
  22674013.913   -12444840.64543  -9655612.78742  22674013.515    22674011.716
  21016168.030   -25079688.61043 -19508495.46742  21016168.447    21016164.239
  24917143.884    -2915536.68043  -2240442.25842  24917143.834    24917143.246
  20537568.424   -24791197.59443 -19302681.38242  20537567.992    20537564.872
 04  5 21  3 40 30.0000000  0  6G20G16G 3G27G13G 1
  22268928.663   -17640297.49943 -13698730.75942  22268927.997    22268925.635
  21805719.839   -10868338.55043  -8197335.10142  21805719.376    21805715.379
  24160326.539    -7033015.81243  -5441939.03542  24160326.225    24160325.604
  22662777.682   -12503887.38643  -9701623.17242  22662777.252    22662775.448
  21006157.841   -25132292.36743 -19549485.38942  21006158.279    21006154.049
  20540780.974   -24774315.54343 -19289526.53542  20540780.531    20540777.412
 04  5 21  3 41  0.0000000  0  6G20G16G 3G27G13G 1
  22287410.748   -17543173.86443 -13623050.04642  22287410.082    22287407.672
  21815692.900   -10815929.88243  -8156497.17242  21815692.436    21815688.413
  24146523.172    -7105552.70643  -5498461.20042  24146522.799    24146522.130
  22651573.154   -12562767.12643  -9747503.42142  22651572.768    22651570.941
  20996193.490   -25184655.40443 -19590287.73042  20996193.907    20996189.659
  20544054.951   -24757110.48743 -19276119.99442  20544054.519    20544051.416
 04  5 21  3 41 30.0000000  0  6G20G16G 3G27G13G 1
  22305949.222   -17445753.66343 -13547138.24242  22305948.569    22305946.149
  21825760.272   -10763025.56243  -8115273.01642  21825759.803    21825755.771
  24132757.120    -7177893.34943  -5554830.44142  24132756.826    24132756.064
  22640401.742   -12621473.14743  -9793248.31242  22640401.324    22640399.472
  20986276.614   -25236768.90443 -19630895.62442  20986277.029    20986272.745
  20547391.916   -24739574.48743 -19262455.57242  20547391.494    20547388.413
 04  5 21  3 42  0.0000000  0  6G20G16G 3G27G13G 1
  22324543.859   -17348038.36043 -13470996.49142  22324543.183    22324540.791
  21835921.748   -10709626.56443  -8073663.40542  21835921.307    21835917.285
  24119029.162    -7250033.88543  -5611043.76342  24119028.847    24119028.037
  22629263.579   -12680004.36843  -9838857.00742  22629263.159    22629261.264
  20976407.679   -25288630.44243 -19671307.18842  20976408.097    20976403.789
  20550792.186   -24721705.88343 -19248531.98242  20550791.775    20550788.683
 04  5 21  3 42 30.0000000  0  6G20G16G 3G27G13G 1
  22343193.598   -17250033.50143 -13394629.11542  22343192.927    22343190.532
  21846176.446   -10655737.68943  -8031672.06842  21846176.009    21846171.989
  24105339.334    -7321974.11543  -5667100.99542  24105339.014    24105338.114
  22618158.155   -12738363.58543  -9884331.66542  22618157.751    22618155.808
  20966586.489   -25340241.03943 -19711523.20842  20966586.917    20966582.586
  20554255.355   -24703506.77743 -19234350.85242  20554254.922    20554251.835
 04  5 21  3 43  0.0000000  0  6G20G16G 3G27G13G 1
  22361898.781   -17151737.22043 -13318034.66042  22361898.144    22361895.749
  21856524.924   -10601356.19843  -7989296.87242  21856524.485    21856520.431
  24091689.094    -7393706.21743  -5722996.05942  24091688.811    24091687.925
  22607086.312   -12796546.31243  -9929668.80042  22607085.906    22607083.949
  20956814.246   -25391594.30743 -19751538.70942  20956814.695    20956810.360
  20557782.440   -24684971.99043 -19219908.16342  20557781.978    20557778.860
 04  5 21  3 43 30.0000000  0  6G20G16G 3G27G13G 1
  22380658.179   -17053156.07043 -13241218.20342  22380657.555    22380655.181
  21866965.991   -10546488.02743  -7946542.44542  21866965.581    21866961.505
  24078078.328    -7465230.98643  -5778729.56442  24078078.063    24078077.136
  22596047.267   -12854556.59543  -9974871.56442  22596046.890    22596044.898
  20947090.493   -25442692.87643 -19791355.74342  20947090.948    20947086.606
  20561372.756   -24666104.67143 -19205206.34942  20561372.314    20561369.182
 04  5 21  3 44  0.0000000  0  6G20G16G 3G27G13G 1
  22399471.537   -16954291.12143 -13164180.62142  22399470.935    22399468.632
  21877499.575   -10491133.80243  -7903409.26842  21877499.151    21877495.035
  24064507.913    -7536543.58143  -5834297.73642  24064507.620    24064506.872
  22585041.343   -12912392.79543 -10019938.67342  22585040.968    22585038.983
  20937415.867   -25493533.39443 -19830971.69642  20937416.299    20937411.941
  20565026.834   -24646902.37043 -19190243.51142  20565026.385    20565023.238
 04  5 21  3 44 30.0000000  0  6G20G16G 3G27G13G 1
  22418338.482   -16855144.71243 -13086923.73342  22418337.849    22418335.621
  21888125.368   -10435294.93943  -7859898.46042  21888124.928    21888120.799
  24050978.516    -7607640.52643  -5889697.87642  24050978.229    24050977.425
  22574068.615   -12970054.71143 -10064869.99242  22574068.227    22574066.204
  20927790.666   -25544113.99043 -19870385.11642  20927791.111    20927786.750
  20568744.842   -24627363.97743 -19175018.78642  20568744.409    20568741.257
 04  5 21  3 45  0.0000000  0  6G20G16G 3G27G13G 1
  22437258.110   -16755721.52343 -13009451.16842  22437257.459    22437255.260
  21898842.636   -10378975.42943  -7816013.12342  21898842.171    21898838.052
  24037490.373    -7678520.91143  -5944929.25842  24037490.133    24037489.187
  22563128.620   -13027544.38043 -10109667.09042  22563128.280    22563126.228
  20918214.884   -25594435.01943 -19909596.28142  20918215.332    20918210.953
  20572526.577   -24607490.85643 -19159533.23942  20572526.137    20572522.977
 04  5 21  3 45 30.0000000  0  6G20G16G 3G27G13G 1
  22456230.351   -16656022.01043 -12931763.29142  22456229.637    22456227.510
  21909651.416   -10322174.87643  -7771752.94142  21909650.967    21909646.801
  24024044.546    -7749179.25443  -5999987.62442  24024044.282    24024043.233
  22552221.928   -13084859.36443 -10154328.07742  22552221.546    22552219.523
  20908689.285   -25644492.23843 -19948601.87742  20908689.722    20908685.335
  20576372.648   -24587279.70243 -19143784.28642  20576372.204    20576369.003
 04  5 21  3 46  0.0000000  0  6G20G16G 3G27G13G 1
  22475254.429   -16556050.06443 -12853863.11642  22475253.724    22475251.609
  21920551.010   -10264897.06143  -7727120.86742  21920550.573    21920546.406
  24010641.187    -7819613.94143  -6054871.72042  24010640.941    24010639.871
  22541348.118   -13142001.50543 -10198854.37242  22541347.727    22541345.696
  20899213.853   -25694285.88543 -19987402.09242  20899214.299    20899209.883
  20580282.802   -24566731.61644 -19127772.79042  20580282.374    20580279.169
 04  5 21  3 46 30.0000000  0  6G20G16G 3G27G13G 1
  22494329.699   -16455809.13543 -12775753.33442  22494328.976    22494326.852
  21931540.986   -10207144.35943  -7682118.75142  21931540.547    21931536.348
  23997280.892    -7889822.10743  -6109579.30542  23997280.695    23997279.567
  22530507.172   -13198970.97843 -10243246.12042  22530506.747    22530504.719
  20889788.845   -25743814.47043 -20025995.76242  20889789.275    20889784.868
  20584257.148   -24545846.33043 -19111498.53742  20584256.709    20584253.533
 04  5 21  3 47  0.0000000  0  6G20G16G 3G27G13G 1
  22513455.678   -16355301.51543 -12697435.73942  22513454.959    22513452.855
  21942621.026   -10148918.34343  -7636747.82342  21942620.582    21942616.402
  23983964.426    -7959800.22243  -6164107.63542  23983964.222    23983963.101
  22519699.084   -13255767.68343 -10287503.24942  22519698.653    22519696.597
  20880414.678   -25793076.05443 -20064381.37542  20880415.080    20880410.669
  20588295.876   -24524622.75743 -19094960.68642  20588295.444    20588292.240
 04  5 21  3 47 30.0000000  0  6G20G16G 3G27G13G 1
  22532632.295   -16254527.84043 -12618910.82442  22532631.569    22532629.464
  21953791.117   -10090219.11143  -7591008.16142  21953790.647    21953786.472
  23970692.616    -8029543.65343  -6218453.09942  23970692.389    23970691.292
  22508924.200   -13312389.69443 -10331624.25542  22508923.816    22508921.749
  20871091.985   -25842067.04843 -20102556.14742  20871092.390    20871087.948
  20592399.491   -24503058.17343 -19078157.11942  20592399.040    20592395.868
 04  5 21  3 48  0.0000000  0  6G20G16G 3G27G13G 1
  22551858.329   -16153494.30843 -12540183.42042  22551857.605    22551855.522
  21965050.133   -10031052.40343  -7544904.22542  21965049.682    21965045.508
  23957465.481    -8099052.63043  -6272615.86842  23957465.198    23957464.132
  22498181.948   -13368840.47443 -10375611.82642  22498181.561    22498179.488
  20861820.419   -25890789.28043 -20140521.49142  20861820.845    20861816.376
  20596567.461   -24481155.33643 -19061089.96742  20596567.035    20596563.840
 04  5 21  3 48 30.0000000  0  6G20G16G 3G27G13G 1
  22571133.584   -16052202.42943 -12461254.72642  22571132.842    22571130.741
  21976397.962    -9971419.11043  -7498436.72042  21976397.497    21976393.353
  23944283.816    -8168322.71643  -6326592.47542  23944283.467    23944282.450
  22487472.481   -13425118.84443 -10419465.05342  22487472.117    22487470.019
  20852600.598   -25939239.74143 -20178275.07742  20852601.003    20852596.527
  20600800.136   -24458912.51443 -19043757.89942  20600799.697    20600796.515
 04  5 21  3 49  0.0000000  0  6G20G16G 3G27G13G 1
  22590457.561   -15950654.32143 -12382126.35942  22590456.852    22590454.739
  21987834.328    -9911320.74143  -7451606.81942  21987833.854    21987829.712
  23931148.224    -8237350.32243  -6380380.14342  23931147.868    23931146.951
  22476795.898   -13481224.43943 -10463183.65042  22476795.522    22476793.437
  20843432.856   -25987416.37943 -20215815.28742  20843433.275    20843428.793
  20605097.734   -24436328.52943 -19026159.98542  20605097.271    20605094.080
 04  5 21  3 49 30.0000000  0  6G20G16G 3G27G13G 1
  22609829.776   -15848852.52043 -12302800.31642  22609829.096    22609826.973
  21999358.828    -9850759.17643  -7404415.99142  21999358.328    21999354.196
  23918059.424    -8306132.12943  -6433976.26942  23918059.054    23918058.225
  22466152.189   -13537157.18543 -10506767.56342  22466151.806    22466149.749
  20834317.618   -26035317.15543 -20253140.54042  20834318.028    20834313.536
  20609460.411   -24413402.44443 -19008295.49942  20609459.955    20609456.775
 04  5 21  3 50  0.0000000  0  6G20G16G 3G27G13G 1
  22629249.485   -15746801.52743 -12223280.10342  22629248.788    22629246.646
  22010970.715    -9789738.19143  -7356867.16642  22010970.220    22010966.111
  23905017.636    -8374666.70243  -6487379.74342  23905017.385    23905016.425
  22455541.098   -13592918.69643 -10550218.04842  22455540.692    22455538.661
  20825254.795   -26082942.36043 -20290251.06242  20825255.216    20825250.746
  20613887.989   -24390135.27643 -18990165.24142  20613887.528    20613884.348
 04  5 21  3 50 30.0000000  0  7G20G16G 3G27G13G 8G 1
  22648712.415   -15644523.20943 -12143582.73642  22648711.737    22648709.607
  22022665.946    -9728279.27343  -7308977.09942  22022665.461    22022661.359
  23892019.855    -8442970.01043  -6540603.00842  23892019.707    23892018.638
  22444958.887   -13648528.40543 -10593550.25342  22444958.476    22444956.456
  20816241.112   -26130309.33643 -20327160.36742  20816241.536    20816237.098
  24865857.758    -3589472.19853  -2781821.20552  24865856.466    24865856.117
  20618376.937   -24366545.57843 -18971783.65942  20618376.469    20618373.335
 04  5 21  3 51  0.0000000  0  7G20G16G 3G27G13G 8G 1
  22668226.363   -15541976.95343 -12063676.60242  22668225.687    22668223.542
  22034452.431    -9666340.86343  -7260713.40942  22034451.912    22034447.833
  23879074.984    -8510995.61443  -6593609.88842  23879074.793    23879073.675
  22434413.857   -13703942.87843 -10636730.32142  22434413.423    22434411.381
  20807285.176   -26177372.93643 -20363833.27642  20807285.589    20807281.175
  24848856.282    -3678814.85643  -2851438.77742  24848855.022    24848854.702
  20622935.672   -24342589.24943 -18953116.38642  20622935.204    20622932.073
 04  5 21  3 51 30.0000000  0  7G20G16G 3G27G13G 8G 1
  22687785.911   -15439191.10643 -11983583.77942  22687785.222    22687783.038
  22046324.833    -9603950.76243  -7212097.74342  22046324.345    22046320.268
  23866178.630    -8578766.19343  -6646418.03442  23866178.385    23866177.241
  22423901.054   -13759187.79443 -10679778.25642  22423900.658    22423898.566
  20798382.383   -26224157.23443 -20400288.54042  20798382.811    20798378.387
  24831872.104    -3768066.87643  -2920985.74442  24831870.793    24831870.551
  20627559.405   -24318291.19243 -18934182.83142  20627558.968    20627555.827
 04  5 21  3 52  0.0000000  0  7G20G16G 3G27G13G 8G 1
  22707391.053   -15336165.50243 -11903304.12642  22707390.383    22707388.223
  22058283.272    -9541108.67843  -7163129.88742  22058282.797    22058278.723
  23853331.902    -8646276.02143  -6699023.01742  23853331.643    23853330.474
  22413421.053   -13814260.50443 -10722692.00842  22413420.618    22413418.527
  20789533.611   -26270657.73843 -20436522.67242  20789534.036    20789529.611
  24814905.806    -3857225.07243  -2990459.62542  24814904.416    24814904.189
  20632248.813   -24293648.11743 -18914980.43342  20632248.372    20632245.260
 04  5 21  3 52 30.0000000  0  7G20G16G 3G27G13G 8G 1
  22727040.846   -15232904.96543 -11822841.39942  22727040.223    22727038.141
  22070326.944    -9477818.63543  -7113812.96942  22070326.507    22070322.438
  23840534.899    -8713524.04043  -6751423.97742  23840534.748    23840533.527
  22402973.394   -13869163.16743 -10765473.25042  22402972.957    22402970.875
  20780738.807   -26316874.67243 -20472535.84042  20780739.215    20780734.797
  24797956.983    -3946290.99443  -3059861.58442  24797955.566    24797955.582
  20637003.602   -24268661.41043 -18895510.26542  20637003.183    20637000.082
 04  5 21  3 53  0.0000000  0  7G20G16G 3G27G13G 8G 1
  22746735.468   -15129409.06443 -11742195.28842  22746734.847    22746732.757
  22082456.038    -9414079.76443  -7064146.31842  22082455.607    22082451.558
  23827788.950    -8780503.87743  -6803615.96342  23827788.814    23827787.637
  22392558.673   -13923892.60443 -10808119.50942  22392558.262    22392556.145
  20771998.866   -26362803.28843 -20508324.35042  20771999.270    20771994.842
  24781026.541    -4035260.37343  -3129188.29542  24781025.190    24781025.282
  20641824.557   -24243327.27043 -18875769.37842  20641824.110    20641821.013
 04  5 21  3 53 30.0000000  0  7G20G16G 3G27G13G 8G 1
  22766473.450   -15025685.16443 -11661371.52042  22766472.868    22766470.804
  22094669.267    -9349898.73643  -7014135.12842  22094668.818    22094664.808
  23815093.805    -8847217.20443  -6855600.28642  23815093.535    23815092.416
  22382176.047   -13978453.43243 -10850634.38242  22382175.646    22382173.472
  20763313.244   -26408446.46643 -20543890.43142  20763313.640    20763309.210
  24764113.655    -4124137.93243  -3198443.49142  24764112.308    24764112.225
  20646710.830   -24217649.76643 -18855760.93442  20646710.406    20646707.286
 04  5 21  3 54  0.0000000  0  7G20G16G 3G27G13G 8G 1
  22786254.802   -14921733.33143 -11580370.13842  22786254.220    22786252.225
  22106966.755    -9285275.05443  -6963779.01042  22106966.286    22106962.318
  23802450.526    -8913658.21143  -6907372.41142  23802450.199    23802449.061
  22371825.974   -14032843.27943 -10893016.00942  22371825.563    22371823.383
  20754682.721   -26453800.14643 -20579230.93642  20754683.099    20754678.658
  24747218.785    -4212920.49743  -3267624.64242  24747217.467    24747217.493
  20651663.056   -24191625.69943 -18835482.43542  20651662.627    20651659.519
 04  5 21  3 54 30.0000000  0  7G20G16G 3G27G13G 8G 1
  22806079.107   -14817556.01943 -11499193.04542  22806078.545    22806076.517
  22119348.051    -9220210.84843  -6913079.62742  22119347.603    22119343.611
  23789859.643    -8979823.61743  -6958929.78842  23789859.302    23789858.054
  22361508.528   -14087061.65743 -10935264.03742  22361508.113    22361505.892
  20746107.730   -26498861.99943 -20614344.04242  20746108.099    20746103.639
  24730342.252    -4301606.91043  -3336730.86242  24730341.007    24730340.983
  20656681.426   -24165254.04043 -18814933.08942  20656680.977    20656677.867
 04  5 21  3 55  0.0000000  0  7G20G16G 3G27G13G 8G 1
  22825945.772   -14713156.29943 -11417842.66342  22825945.164    22825943.179
  22131812.777    -9154708.44843  -6862038.79942  22131812.327    22131808.295
  23777321.685    -9045710.65243  -7010270.26142  23777321.398    23777320.041
  22351223.577   -14141109.18243 -10977378.93642  22351223.194    22351220.909
  20737588.468   -26543630.86043 -20649228.84042  20737588.865    20737584.378
  24713484.205    -4390196.89243  -3405761.97942  24713482.813    24713482.762
  20661766.001   -24138534.53043 -18794112.69242  20661765.549    20661762.417
 04  5 21  3 55 30.0000000  0  7G20G16G 3G27G13G 8G 1
  22845854.215   -14608536.80643 -11336321.01242  22845853.623    22845851.605
  22144360.408    -9088770.21043  -6810658.35542  22144359.967    22144355.913
  23764837.312    -9111316.16143  -7061391.35842  23764836.999    23764835.651
  22340971.129   -14194985.74143 -11019360.60842  22340970.741    22340968.459
  20729125.370   -26588104.68243 -20683883.73842  20729125.761    20729121.277
  24696644.387    -4478689.89743  -3474717.47042  24696643.081    24696643.151
  20666916.883   -24111466.48943 -18773020.70842  20666916.440    20666913.301
 04  5 21  3 56  0.0000000  0  7G20G16G 3G27G13G 8G 1
  22865803.981   -14503700.30443 -11254630.28042  22865803.365    22865801.375
  22156990.561    -9022398.40243  -6758940.05942  22156990.131    22156986.020
  23752406.975    -9176637.39443  -7112290.93642  23752406.647    23752405.406
  22330751.212   -14248691.62943 -11061209.29942  22330750.797    22330748.475
  20720718.711   -26632281.97343 -20718307.57142  20720719.090    20720714.590
  24679823.246    -4567085.71843  -3543597.28042  24679821.968    24679821.901
  20672134.139   -24084049.57143 -18751656.87342  20672133.696    20672130.547
 04  5 21  3 56 30.0000000  0  7G20G16G 3G27G13G 8G 1
  22885794.944   -14398647.32443 -11172770.85342  22885794.328    22885792.381
  22169703.243    -8955592.87243  -6706883.81142  22169702.811    22169698.698
  23740031.867    -9241668.67943  -7162964.59842  23740031.536    23740030.309
  22320564.174   -14302224.54543 -11102923.20542  22320563.767    22320561.466
  20712369.211   -26676158.88343 -20752497.34842  20712369.576    20712365.068
  24663020.982    -4655381.62943  -3612399.21342  24663019.710    24663019.744
  20677418.362   -24056280.75443 -18730018.83642  20677417.926    20677414.763
 04  5 21  3 57  0.0000000  0  7G20G16G 3G27G13G 8G 1
  22905824.891   -14293389.39443 -11090751.72442  22905824.279    22905822.301
  22182496.359    -8888364.62943  -6654498.16842  22182495.937    22182491.790
  23727710.841    -9306415.90243  -7213416.91642  23727710.405    23727709.209
  22310408.338   -14355593.48543 -11144509.33942  22310407.943    22310405.636
  20704075.533   -26719742.41643 -20786458.51442  20704075.894    20704071.379
  24646236.298    -4743585.87643  -3681129.73242  24646234.927    24646235.013
  20682767.970   -24028168.40843 -18708113.11342  20682767.531    20682764.366
 04  5 21  3 57 30.0000000  0  7G20G16G 3G27G13G 8G 1
  22925895.051   -14187920.15143 -11008567.94842  22925894.427    22925892.516
  22195371.152    -8820707.06743  -6601777.99742  22195370.774    22195366.597
  23715446.122    -9370867.06443  -7263638.53542  23715445.735    23715444.464
  22300285.423   -14408789.36943 -11185960.62542  22300285.043    22300282.749
  20695839.725   -26763021.84243 -20820182.71942  20695840.082    20695835.547
  24629470.926    -4831688.71743  -3749781.23342  24629469.506    24629469.493
  20688184.810   -23999702.69243 -18685932.03942  20688184.363    20688181.214
 04  5 21  3 58  0.0000000  0  7G20G16G 3G27G13G 8G 1
  22946004.056   -14082247.02343 -10926225.30842  22946003.462    22946001.497
  22208326.366    -8752626.90143  -6548728.52642  22208326.001    22208321.835
  23703237.439    -9435023.62643  -7313630.59842  23703237.158    23703235.801
  22290194.612   -14461816.81143 -11227280.65842  22290194.193    22290191.897
  20687661.264   -26805999.89143 -20853672.08242  20687661.635    20687657.083
  24612723.943    -4919694.46243  -3818357.07342  24612722.530    24612722.463
  20693668.081   -23970887.75443 -18663478.84142  20693667.667    20693664.514
 04  5 21  3 58 30.0000000  0  7G20G16G 3G27G13G 8G 1
  22966151.531   -13976371.41843 -10843724.88442  22966150.956    22966149.040
  22221361.805    -8684125.19043  -6495350.57142  22221361.426    22221357.254
  23691085.674    -9498881.45543  -7363389.88242  23691085.346    23691084.025
  22280135.989   -14514674.84443 -11268468.67642  22280135.597    22280133.296
  20679540.698   -26848673.69443 -20886924.37342  20679541.054    20679536.501
  24595995.930    -5007600.73943  -3886855.40442  24595994.526    24595994.355
  20699218.201   -23941721.73443 -18640752.07142  20699217.763    20699214.633
 04  5 21  3 59  0.0000000  0  7G20G16G 3G27G13G 8G 1
  22986337.259   -13870294.80143 -10761067.83542  22986336.676    22986334.789
  22234477.242    -8615203.04343  -6441645.01142  22234476.854    22234472.739
  23678991.569    -9562436.31643  -7412913.08742  23678991.176    23678989.903
  22270109.893   -14567362.17943 -11309523.70242  22270109.498    22270107.185
  20671478.559   -26891040.37043 -20919937.33642  20671478.929    20671474.364
  24579286.969    -5095406.62543  -3955275.49742  24579285.551    24579285.396
  20704835.459   -23912202.89543 -18617750.38042  20704835.003    20704831.879
 04  5 21  3 59 30.0000000  0  7G20G16G 3G27G13G 8G 1
  23006560.520   -13764021.19943 -10678257.28942  23006559.927    23006558.021
  22247672.053    -8545863.75943  -6387614.40942  22247671.662    22247667.582
  23666955.520    -9625686.05343  -7462198.52942  23666955.109    23666953.759
  22260116.072   -14619879.95943 -11350446.60042  22260115.650    22260113.337
  20663475.007   -26933099.21743 -20952710.44242  20663475.368    20663470.806
  24562597.082    -5183112.14243  -4023617.39042  24562595.649    24562595.522
  20710519.746   -23882331.74743 -18594474.16542  20710519.284    20710516.177
 04  5 21  4  0  0.0000000  0  7G20G16G 3G27G13G 8G 1
  23026820.479   -13657554.70843 -10595296.43242  23026819.868    23026818.000
  22260945.576    -8476111.05943  -6333261.67142  22260945.148    22260941.097
  23654977.778    -9688629.21243  -7511245.08342  23654977.392    23654976.021
  22250154.238   -14672229.68843 -11391238.55442  22250153.807    22250151.500
  20655530.100   -26974849.90343 -20985243.43642  20655530.466    20655525.895
  24545926.082    -5270718.39243  -4091881.92242  24545924.588    24545924.493
  20716270.897   -23852109.14043 -18570924.08342  20716270.454    20716267.358
 04  5 21  4  0 30.0000000  0  7G20G16G 3G27G13G 8G 1
  23047116.845   -13550896.92243 -10512186.51942  23047116.213    23047114.325
  22274297.516    -8405946.09243  -6278587.67742  22274297.077    22274293.035
  23643059.180    -9751261.43243  -7560049.33342  23643058.775    23643057.466
  22240224.592   -14724410.25243 -11431898.68442  22240224.130    22240221.834
  20647644.395   -27016289.47843 -21017533.99342  20647644.746    20647640.175
  24529274.279    -5358224.05343  -4160068.08242  24529272.729    24529272.606
  20722089.275   -23821533.37643 -18547098.80542  20722088.811    20722085.740
 04  5 21  4  1  0.0000000  0  7G20G16G 3G27G13G 8G 1
  23067448.760   -13444052.34443 -10428931.06342  23067448.105    23067446.230
  22287727.051    -8335373.23743  -6223595.85042  22287726.630    22287722.611
  23631199.905    -9813582.00743  -7608610.73242  23631199.503    23631198.181
  22230326.678   -14776423.84543 -11472428.70842  22230326.232    22230323.931
  20639817.804   -27057418.38143 -21049582.46942  20639818.170    20639813.578
  24512641.302    -5445630.64143  -4228177.05442  24512639.818    24512639.594
  20727974.536   -23790606.14643 -18522999.66242  20727974.067    20727971.006
 04  5 21  4  1 30.0000000  0  7G20G16G 3G27G13G 8G 1
  23087816.628   -13337018.87443 -10345528.40342  23087815.975    23087814.061
  22301234.765    -8264389.64843  -6168283.97542  22301234.315    22301230.346
  23619401.457    -9875582.87043  -7656923.00942  23619401.114    23619399.766
  22220461.542   -14828265.37843 -11512824.66742  22220461.100    22220458.762
  20632051.657   -27098229.81443 -21081383.56542  20632052.006    20632047.397
  24496028.306    -5532932.26343  -4296204.21042  24496026.797    24496026.610
  20733927.746   -23759321.69843 -18498622.16742  20733927.295    20733924.226
 04  5 21  4  2  0.0000000  0  7G20G16G 3G27G13G 8G 1
  23108218.635   -13229806.00643 -10261985.95542  23108217.952    23108216.025
  22314818.918    -8193004.30543  -6112659.04842  22314818.482    22314814.560
  23607663.194    -9937267.66643  -7704989.00942  23607662.754    23607661.447
  22210627.826   -14879941.76343 -11553091.93142  22210627.394    22210625.013
  20624344.972   -27138728.66543 -21112941.09342  20624345.320    20624340.687
  24479434.124    -5620135.03943  -4364154.33742  24479432.555    24479432.467
  20739947.779   -23727686.20043 -18473971.12742  20739947.341    20739944.251
 04  5 21  4  2 30.0000000  0  7G20G16G 3G27G13G 8G 1
  23128655.143   -13122411.62543 -10178302.07242  23128654.462    23128652.529
  22328479.973    -8121214.96143  -6056719.32042  22328479.534    22328475.632
  23595986.578    -9998628.67543  -7752802.69142  23595986.143    23595984.762
  22200826.490   -14931448.12043 -11593226.70542  22200826.007    22200823.638
  20616698.988   -27178908.37743 -21144249.94442  20616699.345    20616694.714
  24462859.686    -5707233.90143  -4432023.52342  24462858.113    24462858.065
  20746035.630   -23695694.35343 -18449042.41842  20746035.190    20746032.094
 04  5 21  4  3  0.0000000  0  7G20G16G 3G27G13G 8G 1
  23149125.463   -13014839.60543 -10094479.77042  23149124.786    23149122.825
  22342217.344    -8049024.77543  -6000467.24642  22342216.896    22342213.012
  23584371.857   -10059664.14743  -7800362.71042  23584371.462    23584370.045
  22191057.229   -14982785.83843 -11633230.07742  22191056.740    22191054.325
  20609113.838   -27218768.51243 -21175309.77442  20609114.192    20609109.560
  24446304.982    -5794229.24843  -4499812.03142  24446303.438    24446303.386
  20752191.169   -23663346.80843 -18423836.54042  20752190.713    20752187.637
 04  5 21  4  3 30.0000000  0  7G20G16G 3G27G13G 8G 1
  23169629.169   -12907092.13243 -10010520.76242  23169628.506    23169626.519
  22356030.613    -7976435.82543  -5943904.44642  22356030.149    22356026.269
  23572819.732   -10120370.66943  -7847666.40842  23572819.428    23572817.838
  22181320.138   -15033954.43943 -11673101.67142  22181319.658    22181317.209
  20601589.927   -27258306.84743 -21206118.84242  20601590.284    20601585.641
  24429770.070    -5881120.40643  -4567519.36442  24429768.556    24429768.391
  20758414.530   -23630642.71243 -18398352.82942  20758414.104    20758410.999
 04  5 21  4  4  0.0000000  0  7G20G16G 3G27G13G 8G 1
  23190164.616   -12799177.56643  -9926431.52842  23190163.976    23190162.090
  22369918.219    -7903456.11643  -5887037.15242  22369917.745    22369913.831
  23561329.770   -10180750.68443  -7894715.68942  23561329.426    23561327.771
  22171614.165   -15084959.53243 -11712845.86742  22171613.698    22171611.211
  20594126.531   -27297527.17743 -21236680.12342  20594126.906    20594122.239
  24413254.092    -5967912.43443  -4635149.46342  24413252.557    24413252.362
  20764704.834   -23597587.03943 -18372595.16242  20764704.399    20764701.262
 04  5 21  4  4 30.0000000  0  7G20G16G 3G27G13G 8G 1
  23210732.807   -12691091.27243  -9842208.48842  23210732.159    23210730.285
  22383881.164    -7830080.47043  -5829861.33842  22383880.682    22383876.741
  23549903.851   -10240793.98843  -7941502.59542  23549903.553    23549901.811
  22161940.666   -15135794.00943 -11752457.10142  22161940.192    22161937.699
  20586725.423   -27336420.31244 -21266986.44242  20586725.787    20586721.104
  24396758.391    -6054597.25743  -4702695.98942  24396756.924    24396756.783
  20771063.476   -23564172.15243 -18346557.58742  20771063.037    20771059.887
 04  5 21  4  5  0.0000000  0  7G20G16G 3G27G13G 8G 1
  23231331.839   -12582842.92443  -9757859.17642  23231331.136    23231329.373
  22397917.683    -7756318.14943  -5772384.21442  22397917.197    22397913.254
  23538541.314   -10300504.38643  -7988030.09142  23538541.021    23538539.244
  22152298.307   -15186464.64243 -11791940.66742  22152297.849    22152295.350
  20579385.577   -27374991.49544 -21297041.89342  20579385.938    20579381.245
  24380281.882    -6141181.37443  -4770164.06642  24380280.494    24380280.315
  20777489.249   -23530404.43943 -18320245.08642  20777488.839    20777485.657
 04  5 21  4  5 30.0000000  0  7G20G16G 3G27G13G 8G 1
  23251962.770   -12474426.92843  -9673379.23642  23251962.056    23251960.311
  22412028.909    -7682163.31343  -5714601.23942  22412028.419    22412024.463
  23527244.106   -10359870.88143  -8034289.61142  23527243.902    23527242.084
  22142688.692   -15236963.29543 -11831290.22542  22142688.217    22142685.725
  20572108.799   -27413231.02343 -21326838.90442  20572109.187    20572104.493
  24363826.176    -6227656.23043  -4837547.01742  24363824.802    24363824.582
  20783983.852   -23496275.05943 -18293650.76242  20783983.424    20783980.275
 04  5 21  4  6  0.0000000  0  7G20G16G 3G27G13G 8G 1
  23272623.649   -12365853.64243  -9588776.72542  23272622.929    23272621.145
  22426212.957    -7607625.80043  -5656520.06942  22426212.458    22426208.463
  23516011.494   -10418898.08243  -8080284.74942  23516011.347    23516009.501
  22133110.328   -15287297.69143 -11870511.79842  22133109.870    22133107.339
  20564894.125   -27451144.38143 -21356381.76142  20564894.505    20564889.803
  24347390.138    -6314028.43643  -4904849.95942  24347388.656    24347388.546
  20790545.935   -23461791.14543 -18266780.17942  20790545.507    20790542.355
 04  5 21  4  6 30.0000000  0  7G20G16G 3G27G13G 8G 1
  23293314.569   -12257122.47343  -9504051.18542  23293313.825    23293312.040
  22440470.013    -7532704.61943  -5598139.93942  22440469.480    22440465.492
  23504844.698   -10477579.57943  -8126010.52242  23504844.559    23504842.652
  22123563.946   -15337464.19643 -11909602.53942  22123563.475    22123560.941
  20557742.537   -27488726.24743 -21385666.31342  20557742.893    20557738.188
  24330974.153    -6400294.55643  -4972070.25842  24330972.725    24330972.537
  20797176.232   -23426948.69643 -18239630.21542  20797175.813    20797172.668
 04  5 21  4  7  0.0000000  0  7G20G16G 3G27G13G 8G 1
  23314034.633   -12148238.02243  -9419206.20442  23314033.863    23314032.123
  22454799.295    -7457403.82843  -5539464.00942  22454798.744    22454794.774
  23493743.875   -10535914.56443  -8171466.28742  23493743.677    23493741.793
  22114049.060   -15387465.06043 -11948564.20542  22114048.589    22114046.056
  20550653.948   -27525977.05643 -21414692.90042  20550654.304    20550649.582
  24314578.087    -6486456.13343  -5039209.08642  24314576.637    24314576.534
  20803874.411   -23391749.52843 -18212202.29642  20803874.004    20803870.846
 04  5 21  4  7 30.0000000  0  7G20G16G 3G27G13G 8G 1
  23334783.693   -12039201.21243  -9334242.50342  23334782.892    23334781.192
  22469200.580    -7381724.53543  -5480493.13342  22469200.047    22469196.065
  23482709.889   -10593898.28343  -8216648.33042  23482709.672    23482707.767
  22104565.975   -15437298.69143 -11987395.56142  22104565.516    22104562.971
  20543628.967   -27562893.50543 -21443458.94742  20543629.330    20543624.584
  24298202.363    -6572510.51843  -5106264.37542  24298200.928    24298200.858
  20810640.875   -23356191.50543 -18184494.74942  20810640.454    20810637.311
 04  5 21  4  8  0.0000000  0  7G20G16G 3G27G13G 8G 1
  23355560.647   -11930017.54043  -9249164.36042  23355559.966    23355558.196
  22483672.985    -7305671.64643  -5421231.14442  22483672.448    22483668.456
  23471742.767   -10651530.67643  -8261556.60642  23471742.537    23471740.657
  22095114.232   -15486967.97343 -12026098.85442  22095113.748    22095111.182
  20536667.434   -27599476.53343 -21471965.18542  20536667.813    20536663.050
  24281846.591    -6658460.65943  -5173238.44542  24281845.201    24281845.000
  20817475.252   -23320276.69543 -18156509.18742  20817474.834    20817471.663
 04  5 21  4  8 30.0000000  0  7G20G16G 3G27G13G 8G 1
  23376365.603   -11820686.91343  -9163971.72142  23376364.922    23376363.130
  22498216.519    -7229244.82743  -5361677.77942  22498215.992    22498212.003
  23460843.548   -10708805.95443  -8306186.61842  23460843.339    23460841.498
  22085694.269   -15536469.98143 -12064671.80142  22085693.807    22085691.211
  20529770.135   -27635721.83843 -21500208.25842  20529770.532    20529765.782
  24265511.243    -6744302.87443  -5240128.39142  24265509.887    24265509.727
  20824378.110   -23284001.94343 -18128243.15042  20824377.680    20824374.524
 04  5 21  4  9  0.0000000  0  7G20G16G 3G27G13G 8G 1
  23397198.201   -11711211.10943  -9078665.95142  23397197.508    23397195.736
  22512831.012    -7152445.14343  -5301833.86642  22512830.475    22512826.507
  23450013.070   -10765720.05043  -8350535.18842  23450012.908    23450011.023
  22076306.350   -15585803.56443 -12103113.49542  22076305.895    22076303.319
  20522937.728   -27671626.27643 -21528185.72442  20522938.129    20522933.371
  24249196.813    -6830035.67643  -5306933.11442  24249195.436    24249195.214
  20831349.798   -23247365.59443 -18099695.34742  20831349.373    20831346.183
 04  5 21  4  9 30.0000000  0  7G20G16G 3G27G13G 8G 1
  23418056.670   -11601599.07143  -8993254.02142  23418056.008    23418054.245
  22527514.755    -7075281.42443  -5241706.28642  22527514.234    22527510.316
  23439250.692   -10822276.34143  -8394604.95542  23439250.538    23439248.637
  22066949.271   -15634975.24243 -12141429.03542  22066948.801    22066946.214
  20516169.305   -27707194.36443 -21555901.09442  20516169.706    20516164.968
  24232902.123    -6915664.33743  -5373656.66342  24232900.753    24232900.567
  20838389.129   -23210373.69343 -18070870.48742  20838388.695    20838385.520
 04  5 21  4 10  0.0000000  0  7G20G16G 3G27G13G 8G 1
  23438941.700   -11491847.52243  -8907733.37942  23438941.015    23438939.298
  22542268.407    -6997750.24443  -5181292.37442  22542267.947    22542264.037
  23428558.024   -10878466.53943  -8438389.44842  23428557.740    23428555.967
  22057624.055   -15683979.29043 -12179613.96142  22057623.625    22057620.983
  20509466.361   -27742418.47643 -21583348.42742  20509466.763    20509462.021
  24216628.287    -7001183.52043  -5440294.92642  24216626.814    24216626.756
  20845497.308   -23173019.92643 -18041763.65542  20845496.890    20845493.705
 04  5 21  4 10 30.0000000  0  7G20G16G 3G27G13G 8G 1
  23459852.127   -11381962.47443  -8822108.69942  23459851.460    23459849.732
  22557090.956    -6919857.10243  -5120596.41842  22557090.488    22557086.592
  23417935.004   -10934290.76443  -8481888.76142  23417934.693    23417932.926
  22048330.127   -15732818.94743 -12217670.79442  22048329.696    22048327.058
  20502828.598   -27777300.12843 -21610528.91142  20502828.975    20502824.235
  24200374.895    -7086595.45843  -5506849.62242  24200373.343    24200373.313
  20852673.848   -23135307.04143 -18012376.99842  20852673.416    20852670.244
 04  5 21  4 11  0.0000000  0  7G20G16G 3G27G13G 8G 1
  23480787.963   -11271944.01443  -8736380.08442  23480787.281    23480785.574
  22571982.482    -6841601.58843  -5059618.09542  22571982.030    22571978.123
  23407382.633   -10989743.37843  -8525098.50942  23407382.369    23407380.567
  22039068.009   -15781491.50843 -12255597.41542  22039067.569    22039064.939
  20496256.804   -27811834.98643 -21637439.16742  20496257.193    20496252.435
  24184142.507    -7171897.00543  -5573318.29642  24184140.917    24184140.852
  20859919.265   -23097232.10743 -17982708.22342  20859918.844    20859915.649
 04  5 21  4 11 30.0000000  0  8G20G16G 3G27G13G 8G19G 1
  23501747.453   -11161801.03843  -8650554.43442  23501746.793    23501745.085
  22586941.281    -6762992.53643  -4998364.28742  22586940.855    22586936.931
  23396900.280   -11044827.97543  -8568021.48942  23396900.085    23396898.202
  22029836.478   -15830003.26643 -12293398.73742  22029836.046    22029833.410
  20489750.161   -27846027.64243 -21664082.76842  20489750.522    20489745.765
  24167930.016    -7257093.98543  -5639705.49642  24167928.458    24167928.332
  24730247.787    -4683568.86453  -3642811.12752  24730247.445    24730245.420
  20867232.441   -23058801.01343 -17952761.91242  20867232.007    20867228.830
 04  5 21  4 12  0.0000000  0  8G20G16G 3G27G13G 8G19G 1
  23522731.374   -11051529.68643  -8564628.75742  23522730.731    23522729.076
  22601968.153    -6684025.93843  -4936831.86742  22601967.703    22601963.751
  23386489.733   -11099535.22243  -8610650.43642  23386489.629    23386487.648
  22020636.768   -15878347.91343 -12331069.83942  22020636.326    22020633.684
  20483310.183   -27879869.80443 -21690453.25642  20483310.569    20483305.804
  24151738.636    -7342179.53543  -5706005.84642  24151737.085    24151737.077
  24714250.213    -4767636.26643  -3708318.05842  24714249.901    24714247.753
  20874614.720   -23020006.87643 -17922532.71842  20874614.266    20874611.097
 04  5 21  4 12 30.0000000  0  8G20G16G 3G27G13G 8G19G 1
  23543739.040   -10941133.79743  -8478606.03342  23543738.371    23543736.748
  22617062.303    -6604705.36143  -4875023.62742  22617061.905    22617057.957
  23376151.370   -11153863.39443  -8652983.98542  23376151.250    23376149.248
  22011468.660   -15926526.46043 -12368611.50842  22011468.215    22011465.551
  20476937.039   -27913360.77643 -21716550.09142  20476937.407    20476932.643
  24135568.548    -7427153.85743  -5772219.55542  24135567.070    24135566.955
  24698257.618    -4851677.62343  -3773804.70842  24698257.272    24698255.059
  20882065.905   -22980850.54743 -17892021.29042  20882065.452    20882062.278
 04  5 21  4 13  0.0000000  0  8G20G16G 3G27G13G 8G19G 1
  23564769.724   -10830617.37143  -8392489.39942  23564768.962    23564767.413
  22632223.231    -6525034.06743  -4812942.09942  22632222.819    22632218.880
  23365885.396   -11207810.93743  -8695020.94742  23365885.303    23365883.314
  22002331.889   -15974540.17943 -12406024.74442  22002331.473    22002328.796
  20470630.793   -27946500.21043 -21742373.00442  20470631.180    20470626.395
  24119419.396    -7512018.06643  -5838347.43342  24119417.884    24119417.735
  24682270.253    -4935691.03643  -3839269.62242  24682270.000    24682267.737
  20889585.879   -22941332.77643 -17861228.22642  20889585.422    20889582.256
 04  5 21  4 13 30.0000000  0  8G20G16G 3G27G13G 8G19G 1
  23585822.868   -10719982.70443  -8306280.62742  23585822.120    23585820.517
  22647450.476    -6445014.18543  -4750588.94542  22647450.082    22647446.139
  23355692.489   -11261374.46543  -8736758.67542  23355692.402    23355690.459
  21993226.531   -16022388.86243 -12443309.37542  21993226.119    21993223.460
  20464391.842   -27979286.09843 -21767920.42542  20464392.209    20464387.430
  24103291.369    -7596771.38943  -5904388.91042  24103289.807    24103289.642
  24666288.927    -5019673.01443  -3904710.02342  24666288.719    24666286.338
  20897174.759   -22901452.98743 -17830153.06942  20897174.291    20897171.124
 04  5 21  4 14  0.0000000  0  8G20G16G 3G27G13G 8G19G 1
  23606897.427   -10609235.32243  -8219984.02342  23606896.719    23606895.113
  22662743.094    -6364651.08743  -4687968.34042  22662742.665    22662738.713
  23345572.685   -11314554.22843  -8778197.38042  23345572.561    23345570.611
  21984152.043   -16070075.26443 -12480467.55642  21984151.647    21984148.995
  20458220.009   -28011719.22643 -21793192.97042  20458220.391    20458215.594
  24087184.030    -7681415.81243  -5970345.53742  24087182.489    24087182.280
  24650313.618    -5103623.56843  -3970125.94442  24650313.405    24650310.881
  20904832.045   -22861213.69343 -17798797.78342  20904831.570    20904828.387
 04  5 21  4 14 30.0000000  0  8G20G16G 3G27G13G 8G19G 1
  23627993.533   -10498374.60543  -8133599.09042  23627992.820    23627991.247
  22678101.165    -6283943.93343  -4625079.65642  22678100.734    22678096.784
  23335527.057   -11367344.09843  -8819332.26442  23335526.902    23335524.945
  21975109.042   -16117596.28243 -12517496.86642  21975108.669    21975105.996
  20452116.259   -28043794.48343 -21818186.65242  20452116.643    20452111.846
  24071098.011    -7765948.04943  -6036214.74142  24071096.518    24071096.257
  24634345.503    -5187536.37843  -4035512.44642  24634345.259    24634342.743
  20912558.406   -22820611.32543 -17767159.58242  20912557.958    20912554.780
 04  5 21  4 15  0.0000000  0  8G20G16G 3G27G13G 8G19G 1
  23649110.390   -10387405.01343  -8047129.32442  23649109.669    23649108.076
  22693523.932    -6202896.75143  -4561926.00642  22693523.475    22693519.533
  23325555.803   -11419743.14643  -8860162.60642  23325555.629    23325553.603
  21966097.179   -16164953.76543 -12554398.75542  21966096.813    21966094.120
  20446080.557   -28075512.11343 -21842901.65942  20446080.959    20446076.143
  24055033.175    -7850369.33643  -6101997.50042  24055031.684    24055031.320
  24618384.867    -5271409.72643  -4100868.20242  24618384.519    24618381.997
  20920353.633   -22779647.20143 -17735239.49642  20920353.157    20920350.012
 04  5 21  4 15 30.0000000  0  8G20G16G 3G27G13G 8G19G 1
  23670247.160   -10276331.05643  -7960578.24642  23670246.438    23670244.777
  22709010.594    -6121513.74343  -4498510.67442  22709010.130    22709006.191
  23315659.123   -11471750.22143  -8900687.52742  23315658.940    23315656.901
  21957116.151   -16212149.25743 -12591174.42042  21957115.772    21957113.091
  20440112.931   -28106872.13043 -21867338.01142  20440113.328    20440108.516
  24038989.149    -7934680.98243  -6167694.80242  24038987.687    24038987.264
  24602431.906    -5355242.46043  -4166192.30442  24602431.537    24602429.038
  20928217.427   -22738322.68243 -17703038.57842  20928216.972    20928213.804
 04  5 21  4 16  0.0000000  0  8G20G16G 3G27G13G 8G19G 1
  23691403.882   -10165152.14843  -7873945.37942  23691403.142    23691401.510
  22724561.326    -6039794.12843  -4434833.04842  22724560.845    22724556.920
  23305838.123   -11523359.55943  -8940902.52942  23305837.947    23305835.843
  21948166.509   -16259179.76643 -12627821.51942  21948166.132    21948163.425
  20434214.274   -28137869.77943 -21891492.00142  20434214.644    20434209.830
  24022966.763    -8018879.09943  -6233303.65942  24022965.296    24022964.728
  24586487.855    -5439028.23743  -4231479.80042  24586487.564    24586485.076
  20936150.415   -22696634.45843 -17670554.25642  20936149.977    20936146.820
 04  5 21  4 16 30.0000000  0  8G20G16G 3G27G13G 8G19G 1
  23712579.347   -10053874.66343  -7787235.70342  23712578.624    23712576.976
  22740174.925    -5957744.05343  -4370897.93242  22740174.449    22740170.559
  23296092.626   -11574572.18743  -8980808.39742  23296092.428    23296090.258
  21939247.535   -16306049.13843 -12664343.06642  21939247.162    21939244.437
  20428384.206   -28168506.97543 -21915365.11942  20428384.581    20428379.744
  24006965.268    -8102967.05243  -6298826.64542  24006963.794    24006963.293
  24570552.673    -5522767.84143  -4296731.34242  24570552.401    24570549.887
  20944151.979   -22654585.99343 -17637789.22442  20944151.533    20944148.390
 04  5 21  4 17  0.0000000  0  8G20G16G 3G27G13G 8G19G 1
  23733774.095    -9942495.78943  -7700447.02242  23733773.374    23733771.712
  22755851.990    -5875360.45643  -4306702.90942  22755851.543    22755847.638
  23286424.247   -11625379.60043  -9020398.51342  23286424.046    23286421.823
  21930360.325   -16352751.71043 -12700734.62142  21930359.927    21930357.200
  20422624.116   -28198776.39343 -21938951.65642  20422624.479    20422619.652
  23990985.977    -8186938.53243  -6364258.89342  23990984.553    23990983.942
  24554627.890    -5606452.64143  -4361940.15742  24554627.568    24554625.015
  20952223.213   -22612171.46343 -17604738.96242  20952222.727    20952219.615
 04  5 21  4 17 30.0000000  0  8G20G16G 3G27G13G 8G19G 1
  23754986.494    -9831024.36543  -7613586.22242  23754985.698    23754984.072
  22771590.968    -5792651.73943  -4242254.56742  22771590.518    22771586.555
  23276832.312   -11675785.49643  -9059675.78742  23276832.118    23276829.821
  21921503.656   -16399293.73843 -12737001.08942  21921503.238    21921500.487
  20416933.164   -28228682.49743 -21962255.09142  20416933.521    20416928.694
  23975027.708    -8270799.34443  -6429604.88042  23975026.316    23975025.720
  24538713.038    -5690085.37543  -4427108.41042  24538712.667    24538710.213
  20960363.005   -22569396.64243 -17571407.94542  20960362.511    20960359.396
 04  5 21  4 18  0.0000000  0  8G20G16G 3G27G13G 8G19G 1
  23776216.566    -9719459.79143  -7526652.84342  23776215.758    23776214.145
  22787391.991    -5709617.03243  -4177552.18742  22787391.500    22787387.526
  23267317.851   -11725783.78343  -9098635.41842  23267317.686    23267315.321
  21912678.154   -16445671.87443 -12773139.85142  21912677.739    21912674.973
  20411312.291   -28258220.38843 -21985271.60942  20411312.652    20411307.812
  23959091.057    -8354546.31943  -6494862.17242  23959089.689    23959089.086
  24522809.267    -5773659.79643  -4492231.21542  24522808.903    24522806.450
  20968572.029   -22526257.92943 -17537793.37342  20968571.547    20968568.435
 04  5 21  4 18 30.0000000  0  8G20G16G 3G27G13G 8G19G 1
  23797463.480    -9607806.50543  -7439650.34342  23797462.688    23797461.021
  22803254.186    -5626260.60343  -4112599.10842  22803253.709    22803249.760
  23257881.184   -11775373.51343  -9137276.70042  23257881.018    23257878.617
  21903883.490   -16491888.03343 -12809152.39042  21903883.078    21903880.270
  20405761.503   -28287389.96943 -22008001.12742  20405761.844    20405756.986
  23943175.923    -8438180.23743  -6560031.34842  23943174.597    23943174.083
  24506916.808    -5857174.76243  -4557307.69642  24506916.422    24506913.982
  20976849.985   -22482756.84743 -17503896.43642  20976849.532    20976846.416
 04  5 21  4 19  0.0000000  0  8G20G16G 3G27G13G 8G19G 1
  23818727.398    -9496063.85843  -7352578.20442  23818726.683    23818725.016
  22819177.654    -5542582.05943  -4047395.04342  22819177.231    22819173.206
  23248523.377   -11824549.05643  -9175595.23942  23248523.152    23248520.809
  21895120.215   -16537939.13543 -12845036.31642  21895119.812    21895116.981
  20400281.662   -28316186.53143 -22030439.98342  20400282.019    20400277.166
  23927282.994    -8521697.67543  -6625109.76842  23927281.672    23927281.166
  24491036.903    -5940623.99243  -4622332.96042  24491036.523    24491033.955
  20985197.548   -22438890.11343 -17469714.57742  20985197.092    20985193.975
 04  5 21  4 19 30.0000000  0  8G20G16G 3G27G13G 8G19G 1
  23840006.752    -9384239.96943  -7265442.75842  23840006.111    23840004.486
  22835161.072    -5458588.69743  -3981945.67542  22835160.618    22835156.622
  23239243.865   -11873313.03543  -9213593.06942  23239243.638    23239241.273
  21886387.355   -16583830.55143 -12880795.81142  21886386.923    21886384.077
  20394872.118   -28344613.72143 -22052591.01542  20394872.483    20394867.630
  23911411.357    -8605103.52443  -6690101.24642  23911409.945    23911409.465
  24475168.993    -6024009.65543  -4687308.69242  24475168.626    24475166.031
  20993613.767   -22394662.58343 -17435251.57242  20993613.332    20993610.199
 04  5 21  4 20  0.0000000  0  8G20G16G 3G27G13G 8G19G 1
  23861301.308    -9272336.22243  -7178245.07942  23861300.781    23861299.125
  22851204.123    -5374281.82643  -3916251.99042  22851203.709    22851199.671
  23230043.399   -11921661.40243  -9251267.06242  23230043.146    23230040.821
  21877685.139   -16629560.81243 -12916429.72742  21877684.699    21877681.844
  20389533.413   -28372668.63943 -22074451.96942  20389533.786    20389528.910
  23895561.184    -8688396.24543  -6755004.56542  23895559.784    23895559.259
  24459314.128    -6107327.11443  -4752231.29742  24459313.737    24459311.157
  21002098.928   -22350072.91143 -17400506.38642  21002098.495    21002095.341
 04  5 21  4 20 30.0000000  0  8G20G16G 3G27G13G 8G19G 1
  23882611.159    -9160352.35243  -7090984.97442  23882610.602    23882609.030
  22867307.018    -5289660.69543  -3850313.42942  22867306.553    22867302.538
  23220923.112   -11969588.53743  -9288612.80742  23220922.827    23220920.595
  21869014.104   -16675127.24443 -12951935.99142  21869013.656    21869010.788
  20384266.491   -28400346.32243 -22096018.97242  20384266.871    20384261.990
  23879733.259    -8771572.12443  -6819816.84642  23879731.882    23879731.335
  24443473.449    -6190570.50243  -4817096.17342  24443473.017    24443470.354
  21010653.614   -22305117.95943 -17365476.56942  21010653.164    21010649.996
 04  5 21  4 21  0.0000000  0  8G20G16G 3G27G13G 8G19G 1
  23903935.286    -9048293.67143  -7003666.57542  23903934.746    23903933.046
  22883468.605    -5204730.92543  -3784134.37142  22883468.180    22883464.119
  23211882.866   -12017094.77543  -9325630.57942  23211882.618    23211880.397
  21860373.750   -16720532.53243 -12987316.68942  21860373.307    21860370.389
  20379071.157   -28427648.00043 -22117292.98742  20379071.522    20379066.609
  23863927.093    -8854633.89843  -6884540.21042  23863925.677    23863925.172
  24427646.866    -6273739.54943  -4881903.13942  24427646.402    24427643.713
  21019277.277   -22259800.39343 -17330164.20042  21019276.813    21019273.642
 04  5 21  4 21 30.0000000  0  8G20G16G 3G27G13G 8G19G 1
  23925273.294    -8936161.90243  -6916291.23142  23925272.699    23925271.090
  22899688.743    -5119493.57243  -3717715.64342  22899688.255    22899684.242
  23202923.497   -12064176.42943  -9362317.51142  23202923.227    23202920.997
  21851764.223   -16765775.65843 -13022571.01742  21851763.780    21851760.857
  20373947.853   -28454571.05543 -22138271.96942  20373948.222    20373943.296
  23848142.990    -8937579.55543  -6949173.08342  23848141.632    23848141.105
  24411835.231    -6356829.79543  -4946648.68842  24411834.741    24411832.047
  21027970.193   -22214118.83943 -17294568.19842  21027969.746    21027966.562
 04  5 21  4 22  0.0000000  0  8G20G16G 3G27G13G 8G19G 1
  23946624.570    -8823960.70543  -6828861.78742  23946623.962    23946622.391
  22915966.665    -5033952.33143  -3651060.11742  22915966.206    22915962.221
  23194045.151   -12110832.12443  -9398672.52642  23194044.833    23194042.715
  21843185.330   -16810857.87543 -13057699.97642  21843184.891    21843181.941
  20368896.727   -28481114.79043 -22158955.37542  20368897.111    20368892.155
  23832380.858    -9020409.90443  -7013716.12642  23832379.441    23832378.898
  24396038.904    -6439839.32543  -5011331.33342  24396038.456    24396035.765
  21036732.197   -22168074.35043 -17258689.39242  21036731.745    21036728.565
 04  5 21  4 22 30.0000000  0  8G20G16G 3G27G13G 8G19G 1
  23967988.816    -8711691.12543  -6741379.03542  23967988.247    23967986.673
  22932302.318    -4948107.88143  -3584168.33842  22932301.852    22932297.891
  23185248.628   -12157057.63243  -9434692.32742  23185248.395    23185246.226
  21834637.418   -16855777.32543 -13092702.09442  21834636.963    21834634.012
  20363918.415   -28507275.96143 -22179340.68842  20363918.800    20363913.827
  23816641.024    -9103123.06443  -7078167.85042  23816639.599    23816638.984
  24380258.977    -6522763.24343  -5075947.28242  24380258.491    24380255.788
  21045563.644   -22121664.95043 -17222526.23142  21045563.160    21045559.981
 04  5 21  4 23  0.0000000  0  8G20G16G 3G27G13G 8G19G 1
  23989365.315    -8599357.56743  -6653846.45442  23989364.658    23989363.139
  22948694.869    -4861964.47443  -3517043.58942  22948694.348    22948690.458
  23176534.218   -12202852.01543  -9470376.19842  23176533.970    23176531.785
  21826120.094   -16900535.90043 -13127578.85942  21826119.653    21826116.679
  20359012.915   -28533054.54543 -22199427.87542  20359013.275    20359008.302
  23800923.182    -9185720.25743  -7142529.19642  23800921.794    23800921.189
  24364495.495    -6605600.14043  -5140495.42042  24364495.097    24364492.378
  21054464.200   -22074892.23043 -17186079.95942  21054463.727    21054460.552
 04  5 21  4 23 30.0000000  0  8G20G16G 3G27G13G 8G19G 1
  24010753.309    -8486963.41843  -6566266.65842  24010752.580    24010751.069
  22965143.730    -4775525.06743  -3449688.19942  22965143.233    22965139.333
  23167902.235   -12248213.29943  -9505722.58642  23167901.980    23167899.786
  21817633.292   -16945134.25043 -13162330.77242  21817632.840    21817629.824
  20354180.367   -28558449.77143 -22219216.34842  20354180.711    20354175.749
  23785227.467    -9268201.70543  -7206800.38342  23785226.067    23785225.363
  24348749.149    -6688347.71143  -5204973.93042  24348748.677    24348745.942
  21063433.794   -22027756.75543 -17149351.02642  21063433.322    21063430.155
 04  5 21  4 24  0.0000000  0  8G20G16G 3G27G13G 8G19G 1
  24032152.466    -8374510.63643  -6478641.16542  24032151.670    24032150.213
  22981648.577    -4688791.63243  -3382103.69542  22981648.067    22981644.152
  23159353.209   -12293138.44043  -9540729.11942  23159353.017    23159350.773
  21809177.025   -16989571.98543 -13196957.53842  21809176.589    21809173.547
  20349421.212   -28583459.32243 -22238704.29142  20349421.543    20349416.558
  23769553.970    -9350566.21543  -7270980.43742  23769552.549    23769551.788
  24333020.431    -6771002.36943  -5269380.04142  24333019.973    24333017.198
  21072472.507   -21980257.98943 -17112339.01442  21072472.018    21072468.886
 04  5 21  4 24 30.0000000  0  8G20G16G 3G27G13G 8G19G 1
  24053562.134    -8262002.21543  -6390972.31442  24053561.349    24053559.958
  22998208.832    -4601766.97243  -3314292.27542  22998208.309    22998204.379
  23150887.544   -12337625.59643  -9575394.37542  23150887.378    23150885.147
  21800751.251   -17033849.49643 -13231459.45642  21800750.794    21800747.773
  20344735.660   -28608081.91043 -22257890.69742  20344735.996    20344731.018
  23753902.654    -9432814.09343  -7335069.60842  23753901.263    23753900.401
  24317309.925    -6853561.36143  -5333711.61942  24317309.407    24317306.630
  21081580.329   -21932396.07043 -17075044.02642  21081579.836    21081576.711
 04  5 21  4 25  0.0000000  0  9G20G16G 3G27G13G 8G19G 1G31
  24074982.366    -8149438.75043  -6303260.58242  24074981.440    24074980.081
  23014824.406    -4514451.50843  -3246254.23442  23014823.889    23014819.944
  23142506.140   -12381670.10543  -9609714.71542  23142505.947    23142503.738
  21792356.399   -17077964.55643 -13265834.78142  21792355.923    21792352.919
  20340124.486   -28632313.74743 -22276772.62242  20340124.817    20340119.821
  23738273.977    -9514942.67043  -7399065.82642  23738272.634    23738271.789
  24301618.614    -6936018.98743  -5397964.19242  24301618.207    24301615.342
  21090757.719   -21884168.66443 -17037464.23642  21090757.206    21090754.101
  24638839.917    -4629126.67753  -3603130.88352  24638839.895    24638839.637
 04  5 21  4 25 30.0000000  0  9G20G16G 3G27G13G 8G19G 1G31
  24096411.818    -8036826.65643  -6215510.95942  24096411.012    24096409.506
  23031494.102    -4426851.49843  -3177994.48542  23031493.619    23031489.666
  23134208.728   -12425273.29543  -9643691.17042  23134208.466    23134206.219
  21783991.720   -17121921.06943 -13300086.56142  21783991.252    21783988.222
  20335587.218   -28656157.09343 -22295351.83842  20335587.551    20335582.566
  23722667.471    -9596955.15243  -7462971.58442  23722666.155    23722665.318
  24285946.417    -7018376.28243  -5462138.57342  24285946.006    24285943.076
  21100003.894   -21835579.70443 -16999602.72442  21100003.364    21100000.280
  24619607.970    -4730190.64643  -3681881.87542  24619608.117    24619607.700
